[[{"header":{"parameterUnit":"m.s-1","parameterCategory":1,"la1":31.0,"la2":29.5877,"lo1":-88.7671,"lo2":-86.6584,"dy":0.0162,"dx":0.0185,"nx":115,"ny":88,"refTime":"2023-06-23T12:00:00:Z","depth":0,"parameterNumber":2,"parameterNumberName":"U-component_of_WINDS"},"data":[0.0,0.0,0.0,0.0,0.0,0.0,0.0,0.0,0.0,0.0,0.0,0.0,0.0,0.0,0.0,0.0,0.0,0.0,0.0,0.0,0.0,0.0,0.0,0.0,0.0,0.0,0.0,0.0,0.0,0.0,0.0,0.0,0.0,0.0,0.0,0.0,0.0,0.0,0.0,0.0,0.0,0.0,0.0,0.0,0.0,0.0,0.0,0.0,0.0,0.0,0.0,0.0,0.0,0.0,0.0,0.0,0.0,0.0,0.0,0.0,0.0,0.0,0.0,0.0,0.0,0.0,0.0,0.0,0.0,0.0,0.0,0.0,0.0,0.0,0.0,0.0,0.0,0.0,0.0,0.0,0.0,0.0,0.0,0.0,0.0,0.0,0.0,0.0,0.0,0.0,0.0,0.0,0.0,0.0,0.0,0.0,0.0,0.0,0.0,0.0,0.0,0.0,0.0,0.0,0.0,0.0,0.0,0.0,0.0,0.0,0.0,0.0,0.0,0.0,0.0,0.0,0.0,0.0,0.0,0.0,0.0,0.0,0.0,0.0,0.0,0.0,0.0,0.0,0.0,0.0,0.0,0.0,0.0,0.0,0.0,0.0,0.0,0.0,0.0,0.0,0.0,0.0,0.0,0.0,0.0,0.0,0.0,0.0,0.0,0.0,0.0,0.0,0.0,0.0,0.0,0.0,0.0,0.0,0.0,0.0,0.0,0.0,0.0,0.0,0.0,0.0,0.0,0.0,0.0,0.0,0.0,0.0,0.0,0.0,0.0,0.0,0.0,0.0,0.0,0.0,0.0,0.0,0.0,0.0,0.0,0.0,0.0,0.0,0.0,0.0,0.0,0.0,0.0,0.0,0.0,0.0,0.0,0.0,0.0,0.0,0.0,0.0,0.0,0.0,0.0,0.0,0.0,0.0,0.0,0.0,0.0,0.0,0.0,0.0,0.0,0.0,0.0,0.0,0.0,0.0,0.0,0.0,0.0,0.0,0.0,0.0,0.0,0.0,0.0,0.0,0.0,0.0,0.0,0.0,0.0,0.0,0.0,0.0,0.0,0.0,0.0,0.0,0.0,0.0,0.0,0.0,0.0,0.0,0.0,0.0,0.0,0.0,0.0,0.0,0.0,0.0,0.0,0.0,0.0,0.0,0.0,0.0,0.0,0.0,0.0,0.0,0.0,0.0,0.0,0.0,0.0,0.0,0.0,0.0,0.0,0.0,0.0,0.0,0.0,0.0,0.0,0.0,0.0,0.0,0.0,0.0,0.0,0.0,0.0,0.0,0.0,0.0,0.0,0.0,0.0,0.0,0.0,0.0,0.0,0.0,0.0,0.0,0.0,0.0,0.0,0.0,0.0,0.0,0.0,0.0,0.0,0.0,0.0,0.0,0.0,0.0,0.0,0.0,0.0,0.0,0.0,0.0,0.0,0.0,0.0,0.0,0.0,0.0,0.0,0.0,0.0,0.0,0.0,0.0,0.0,0.0,0.0,0.0,0.0,0.0,0.0,0.0,0.0,0.0,0.0,0.0,0.0,0.0,0.0,0.0,0.0,0.0,0.0,0.0,0.0,0.0,0.0,0.0,0.0,0.0,0.0,0.0,0.0,0.0,0.0,0.0,0.0,0.0,0.0,0.0,0.0,0.0,0.0,0.0,0.0,0.0,0.0,0.0,0.0,0.0,0.0,0.0,0.0,0.0,0.0,0.0,0.0,0.0,0.0,0.0,0.0,0.0,0.0,0.0,0.0,0.0,0.0,0.0,0.0,0.0,0.0,0.0,0.0,0.0,0.0,0.0,0.0,0.0,0.0,0.0,0.0,0.0,0.0,0.0,0.0,0.0,0.0,0.0,0.0,0.0,0.0,0.0,0.0,0.0,0.0,0.0,0.0,0.0,0.0,0.0,0.0,0.0,0.0,0.0,0.0,0.0,0.0,0.0,0.0,0.0,0.0,0.0,0.0,0.0,0.0,0.0,0.0,0.0,0.0,0.0,0.0,0.0,0.0,0.0,0.0,0.0,0.0,0.0,0.0,0.0,0.0,0.0,0.0,0.0,0.0,0.0,0.0,0.0,0.0,0.0,0.0,0.0,0.0,0.0,0.0,0.0,0.0,0.0,0.0,0.0,0.0,0.0,0.0,0.0,0.0,0.0,0.0,0.0,0.0,0.0,0.0,0.0,0.0,0.0,0.0,0.0,0.0,0.0,0.0,0.0,0.0,0.0,0.0,0.0,0.0,0.0,0.0,0.0,0.0,0.0,0.0,0.0,0.0,0.0,0.0,0.0,0.0,0.0,0.0,0.0,0.0,0.0,0.0,0.0,0.0,0.0,0.0,0.0,0.0,0.0,0.0,0.0,0.0,0.0,0.0,0.0,0.0,0.0,0.0,0.0,0.0,0.0,0.0,0.0,0.0,0.0,0.0,0.0,0.0,0.0,0.0,0.0,0.0,0.0,0.0,0.0,0.0,0.0,0.0,0.0,0.0,0.0,0.0,0.0,0.0,0.0,0.0,0.0,0.0,0.0,0.0,0.0,0.0,0.0,0.0,0.0,0.0,0.0,0.0,0.0,0.0,0.0,0.0,0.0,0.0,0.0,0.0,0.0,0.0,0.0,0.0,0.0,0.0,0.0,0.0,0.0,0.0,0.0,0.0,0.0,0.0,0.0,0.0,0.0,0.0,0.0,0.0,0.0,0.0,0.0,0.0,0.0,0.0,0.0,0.0,0.0,0.0,0.0,0.0,0.0,0.0,0.0,0.0,0.0,0.0,0.0,0.0,0.0,0.0,0.0,0.0,0.0,0.0,0.0,0.0,0.0,0.0,0.0,0.0,0.0,0.0,0.0,0.0,0.0,0.0,0.0,0.0,0.0,0.0,0.0,0.0,0.0,0.0,0.0,0.0,0.0,0.0,0.0,0.0,0.0,0.0,0.0,0.0,0.0,0.0,0.0,0.0,0.0,0.0,0.0,0.0,0.0,0.0,0.0,0.0,0.0,0.0,0.0,0.0,0.0,0.0,0.0,0.0,0.0,0.0,0.0,0.0,0.0,0.0,0.0,0.0,0.0,0.0,0.0,0.0,0.0,0.0,0.0,0.0,0.0,0.0,0.0,0.0,0.0,0.0,0.0,0.0,0.0,0.0,0.0,0.0,0.0,0.0,0.0,0.0,0.0,0.0,0.0,0.0,0.0,0.0,0.0,0.0,0.0,0.0,0.0,0.0,0.0,0.0,0.0,0.0,0.0,0.0,0.0,0.0,0.0,0.0,0.0,0.0,0.0,0.0,0.0,0.0,0.0,0.0,0.0,0.0,0.0,0.0,0.0,0.0,0.0,0.0,0.0,0.0,0.0,0.0,0.0,0.0,0.0,0.0,0.0,0.0,0.0,0.0,0.0,0.0,0.0,0.0,0.0,0.0,0.0,0.0,0.0,0.0,0.0,0.0,0.0,0.0,0.0,0.0,0.0,0.0,0.0,0.0,0.0,0.0,0.0,0.0,0.0,0.0,0.0,0.0,0.0,0.0,0.0,0.0,0.0,0.0,0.0,0.0,0.0,0.0,0.0,0.0,0.0,0.0,0.0,0.0,0.0,0.0,0.0,0.0,0.0,0.0,0.0,0.0,0.0,0.0,0.0,0.0,0.0,0.0,0.0,0.0,0.0,0.0,0.0,0.0,0.0,0.0,0.0,0.0,0.0,0.0,0.0,0.0,0.0,0.0,0.0,0.0,0.0,0.0,0.0,0.0,0.0,0.0,0.0,0.0,0.0,0.0,0.0,0.0,0.0,0.0,0.0,0.0,0.0,0.0,0.0,0.0,0.0,0.0,0.0,0.0,0.0,0.0,0.0,0.0,0.0,0.0,0.0,0.0,0.0,0.0,0.0,0.0,0.0,0.0,0.0,0.0,0.0,0.0,0.0,0.0,0.0,0.0,0.0,0.0,0.0,0.0,0.0,0.0,0.0,0.0,0.0,0.0,0.0,0.0,0.0,0.0,0.0,0.0,0.0,0.0,0.0,0.0,0.0,0.0,0.0,0.0,0.0,0.0,0.0,0.0,0.0,0.0,0.0,0.0,0.0,0.0,0.0,0.0,0.0,0.0,0.0,0.0,0.0,0.0,0.0,0.0,0.0,0.0,0.0,0.0,0.0,0.0,0.0,0.0,0.0,0.0,0.0,0.0,0.0,0.0,0.0,0.0,0.0,0.0,0.0,0.0,0.0,0.0,0.0,0.0,0.0,0.0,0.0,0.0,0.0,0.0,0.0,0.0,0.0,0.0,0.0,0.4157,0.0,0.0,0.0,0.0,0.0,0.0,0.0,0.0,0.0,0.0,0.0,0.0,0.0,0.0,0.0,0.0,0.0,0.0,0.0,0.0,0.0,0.0,0.0,0.0,0.0,0.0,0.0,0.0,0.0,0.0,0.0,0.0,0.0,0.0,0.0,0.0,0.0,0.0,0.0,0.0,0.0,0.0,0.0,0.0,0.0,0.0,0.0,0.0,0.0,0.0,0.0,0.0,0.0,0.0,0.0,0.0,0.0,0.0,0.0,0.0,0.0,0.0,0.0,0.0,0.0,0.0,0.0,0.0,0.0,0.0,0.0,0.0,0.0,0.0,0.0,0.0,0.0,0.0,0.0,0.0,0.0,0.0,0.0,0.0,0.0,0.0,0.0,0.0,0.0,0.0,0.0,0.0,0.0,0.0,0.0,0.0,0.0,0.0,0.0,0.0,0.0,0.0,0.0,0.0,0.0,0.0,0.0,0.0,0.0,0.0,0.423,0.487,0.4668,0.4678,0.4905,0.0,0.0,0.0,0.0,0.0,0.0,0.0,0.0,0.0,0.0,0.0,0.0,0.0,0.0,0.0,0.0,0.0,0.0,0.0,0.0,0.0,0.0,0.0,0.0,0.0,0.0,0.0,0.0,0.0,0.0,0.0,0.0,0.0,0.0,0.0,0.0,0.0,0.0,0.0,0.0,0.0,0.0,0.0,0.0,0.0,0.0,0.0,0.0,0.0,0.0,0.0,0.0,0.0,0.0,0.0,0.0,0.0,0.0,0.0,0.0,0.0,0.0,0.0,0.0,0.0,0.0,0.0,0.0,0.0,0.0,0.0,0.0,0.0,0.0,0.0,0.0,0.0,0.0,0.0,0.0,0.0,0.0,0.0,0.0,0.0,0.0,0.0,0.0,0.0,0.0,0.0,0.0,0.0,0.0,0.0,0.0,0.0,0.0,0.0,0.0,0.0,0.0,0.0,0.0,0.0,0.0,0.0,0.0,0.0,0.0,0.0,0.0,0.4986,0.5341,0.5971,0.0,0.0,0.0,0.0,0.0,0.0,0.0,0.0,0.0,0.0,0.0,0.0,0.0,0.0,0.0,0.0,0.0,0.0,0.0,0.0,0.0,0.0,0.0,0.0,0.0,0.0,0.0,0.0,0.0,0.0,0.0,0.0,0.0,0.0,0.0,0.0,0.0,0.0,0.0,0.0,0.0,0.0,0.0,0.0,0.0,0.0,0.0,0.0,0.0,0.0,0.0,0.0,0.0,0.0,0.0,0.0,0.0,0.0,0.0,0.0,0.0,0.0,0.0,0.0,0.0,0.0,0.0,0.0,0.0,0.0,0.0,0.0,0.0,0.0,0.0,0.0,0.0,0.0,0.0,0.0,0.0,0.0,0.0,0.0,0.0,0.0,0.0,0.0,0.0,0.0,0.0,0.0,0.0,0.0,0.0,0.0,0.0,0.0,0.0,0.0,0.0,0.0,0.0,0.0,0.0,0.0,0.0,0.0,0.0,0.0,0.5064,0.4995,0.5621,0.0,0.7835,0.0,0.0,0.0,0.0,0.0,0.0,0.0,0.0,0.0,0.0,0.0,0.0,0.0,0.0,0.0,0.0,0.0,0.0,0.0,0.0,0.0,0.0,0.0,0.0,0.0,0.0,0.0,0.0,0.0,0.0,0.0,0.0,0.0,0.0,0.0,0.0,0.0,0.0,0.0,0.0,0.0,0.0,0.0,0.0,0.0,0.0,0.0,0.0,0.0,0.0,0.0,0.0,0.0,0.0,0.0,0.0,0.0,0.0,0.0,0.0,0.0,0.0,0.0,0.0,0.0,0.0,0.0,0.0,0.0,0.0,0.0,0.0,0.0,0.0,0.0,0.0,0.0,0.0,0.0,0.0,0.0,0.0,0.0,0.0,0.0,0.0,0.0,0.0,0.0,0.0,0.0,0.0,0.0,0.0,0.0,0.0,0.0,0.0,0.0,0.0,0.0,0.0,0.0,0.0,0.0,0.0,0.0,0.0,0.0,0.0,0.5066,0.4998,0.6218,0.7185,0.0,0.0,0.0,0.0,0.0,0.0,0.0,0.0,0.0,0.0,0.0,0.0,0.0,0.0,0.0,0.0,0.0,0.0,0.0,0.0,0.0,0.0,0.0,0.0,0.0,0.0,0.0,0.0,0.0,0.0,0.0,0.0,0.0,0.0,0.0,0.0,0.0,0.0,0.0,0.0,0.0,0.0,0.0,0.0,0.0,0.0,0.0,0.0,0.0,0.0,0.0,0.0,0.0,0.0,0.0,0.0,0.0,0.0,0.0,0.0,0.0,0.0,0.0,0.0,0.0,0.0,0.0,0.0,0.0,0.0,0.0,0.0,0.0,0.0,0.0,0.0,0.0,0.0,0.0,0.0,0.0,0.0,0.0,0.0,0.0,0.0,0.0,0.0,0.0,0.0,0.0,0.0,0.0,0.0,0.0,0.0,0.0,0.0,0.0,0.0,0.0,0.0,0.0,0.0,0.0,0.0,0.0,0.0,0.0,0.0,0.5094,0.5173,0.5382,0.6894,0.7818,0.7941,0.0,0.0,0.0,0.0,0.0,0.0,0.0,0.0,0.0,0.0,0.0,0.0,0.0,0.0,0.0,0.0,0.0,0.0,0.0,0.0,0.0,0.0,0.0,0.0,0.0,0.0,0.0,0.0,0.0,0.0,0.0,0.0,0.0,0.0,0.0,0.0,0.0,0.0,0.0,0.0,0.0,0.0,0.0,0.0,0.0,0.0,0.0,0.0,0.0,0.0,0.0,0.0,0.0,0.0,0.0,0.0,0.0,0.0,0.0,0.0,0.0,0.0,0.0,0.0,0.0,0.0,0.0,0.0,0.0,0.0,0.0,0.0,0.0,0.0,0.0,0.0,0.0,0.0,0.0,0.0,0.0,0.0,0.0,0.0,0.0,0.0,0.0,0.0,0.0,0.0,0.0,0.0,0.0,0.0,0.0,0.0,0.0,0.0,0.0,0.0,0.0,0.0,0.0,0.0,0.0,0.0,0.0,0.0,0.5089,0.5107,0.5439,0.6118,0.7755,0.8668,0.0,0.0,0.0,0.0,0.0,0.0,0.0,0.0,0.0,0.0,0.0,0.0,0.0,0.0,0.0,0.0,0.0,0.0,0.0,0.0,0.0,0.0,0.0,0.0,0.0,0.0,0.0,0.0,0.0,0.0,0.0,0.0,0.0,0.0,0.0,0.0,0.0,0.0,0.0,0.0,0.0,0.0,0.0,0.0,0.0,0.0,0.0,0.0,0.0,0.0,0.0,0.0,0.0,0.0,0.0,0.0,0.0,0.0,0.0,0.0,0.0,0.0,0.0,0.0,0.0,0.0,0.0,0.0,0.0,0.0,0.0,0.0,0.0,0.0,0.0,0.0,0.0,0.0,0.0,0.0,0.0,0.0,0.0,0.0,0.0,0.0,0.0,0.0,0.0,0.0,0.0,0.0,0.0,0.0,0.0,0.0,0.0,0.0,0.0,0.0,0.0,0.0,0.0,0.0,0.0,0.0,0.0,0.0,0.0,0.5124,0.5595,0.5992,0.6312,0.7879,0.8796,0.0,0.0,0.0,0.0,0.0,0.0,0.0,0.0,0.0,0.0,0.0,0.0,0.0,0.0,0.0,0.0,0.0,0.0,0.0,0.0,0.0,0.0,0.0,0.0,0.0,0.0,0.0,0.0,0.0,0.0,0.0,0.0,0.0,0.0,0.0,0.0,0.0,0.0,0.0,0.0,0.0,0.0,0.0,0.0,0.0,0.0,0.0,0.0,0.0,0.0,0.0,0.0,0.0,0.0,0.0,0.0,0.0,0.0,0.0,0.0,0.0,0.0,0.0,0.0,0.0,0.0,0.0,0.0,0.0,0.0,0.0,0.0,0.0,0.0,0.0,0.0,0.0,0.0,0.0,0.0,0.0,0.0,0.0,0.0,0.0,0.0,0.0,0.0,0.0,0.0,0.0,0.0,0.0,0.0,0.0,0.0,0.0,0.0,0.0,0.0,0.0,0.0,0.0,0.0,0.0,0.0,0.0,0.0,0.0,0.5979,0.0,0.7012,0.6796,0.8336,0.913,0.0,0.0,0.0,0.0,0.0,0.0,0.0,0.0,0.0,0.0,0.0,0.0,0.0,0.0,0.0,0.0,0.0,0.0,0.0,0.0,0.0,0.0,0.0,0.0,0.0,0.0,0.0,0.0,0.0,0.0,0.0,0.0,0.0,0.0,0.0,0.0,0.0,0.0,0.0,0.0,0.0,0.0,0.0,0.0,0.0,0.0,0.0,0.0,0.0,0.0,0.0,0.0,0.0,0.0,0.0,0.0,0.0,0.0,0.0,0.0,0.0,0.0,0.0,0.0,0.0,0.0,0.0,0.0,0.0,0.0,0.0,0.0,0.0,0.0,0.0,0.0,0.0,0.0,0.0,0.0,0.0,0.0,0.0,0.0,0.0,0.0,0.0,0.0,0.0,0.0,0.0,0.0,0.0,0.0,0.0,0.0,0.0,0.0,0.0,0.0,0.0,0.0,0.0,0.0,0.0,0.0,0.0,0.0,0.7734,0.7713,0.8437,0.8413,0.7678,0.921,0.9725,0.0,0.0,0.0,0.0,0.0,0.0,0.0,0.0,0.0,0.0,0.0,0.0,0.0,0.0,0.0,0.0,0.0,0.0,0.0,0.0,0.0,0.0,0.0,0.0,0.0,0.0,0.0,0.0,0.0,0.0,0.0,0.0,0.0,0.0,0.0,0.0,0.0,0.0,0.0,0.0,0.0,0.0,0.0,0.0,0.0,0.0,0.0,0.0,0.0,0.0,0.0,0.0,0.0,0.0,0.0,0.0,0.0,0.0,0.0,0.0,0.0,0.0,0.0,0.0,0.0,0.0,0.0,0.0,0.0,0.0,0.0,0.0,0.0,0.0,0.0,0.0,0.0,0.0,0.0,0.0,0.0,0.0,0.0,0.0,0.0,0.0,0.0,0.0,0.0,0.0,0.0,0.0,0.0,0.0,0.0,0.0,0.0,0.0,0.0,0.0,0.0,0.0,0.0,0.0,0.0,0.0,0.0,0.0,0.0,0.7784,0.8483,0.8769,0.8549,0.9594,1.005,0.0,0.0,0.0,0.0,0.0,0.0,0.0,0.0,0.0,0.0,0.0,0.0,0.0,0.0,0.0,0.0,0.0,0.0,0.0,0.0,0.0,0.0,0.0,0.0,0.0,0.0,0.0,0.0,0.0,0.0,0.0,0.0,0.0,0.0,0.0,0.0,0.0,0.0,0.0,0.0,0.0,0.0,0.0,0.0,0.0,0.0,0.0,0.0,0.0,0.0,0.0,0.0,0.0,0.0,0.0,0.0,0.0,0.0,0.0,0.0,0.0,0.0,0.0,0.0,0.0,0.0,0.0,0.0,0.0,0.0,0.0,0.0,0.0,0.0,0.0,0.0,0.0,0.0,0.0,0.0,0.0,0.0,0.0,0.0,0.0,0.0,0.0,0.0,0.0,0.0,0.0,0.0,0.0,0.0,0.0,0.0,0.0,0.0,0.0,0.0,0.0,0.0,0.0,0.0,0.0,0.0,0.0,0.0,0.0,1.0154,1.0248,1.0344,1.0358,1.0887,1.1169,1.1163,0.0,0.0,0.0,0.0,0.0,0.0,0.0,0.0,0.0,0.0,0.0,0.0,0.0,0.0,0.0,0.0,0.0,0.0,0.0,0.0,0.0,0.0,0.0,0.0,0.0,0.0,0.0,0.0,0.0,0.0,0.0,0.0,0.0,0.0,0.0,0.0,0.0,0.0,0.0,0.0,0.0,0.0,0.0,0.0,0.0,0.0,0.0,0.0,0.0,0.0,0.0,0.0,0.0,0.0,0.0,0.0,0.0,0.0,0.0,0.0,0.0,0.0,0.0,0.0,0.0,0.0,0.0,0.0,0.0,0.0,0.0,0.0,0.0,0.0,0.0,0.0,0.0,0.0,0.0,0.0,0.0,0.0,0.0,0.0,0.0,0.0,0.0,0.0,0.0,0.0,0.0,0.0,0.0,0.0,0.0,0.0,0.0,0.0,0.0,0.0,0.0,0.0,0.0,0.0,0.0,0.0,0.0,0.0,1.415,1.3454,1.3003,1.2852,1.2838,1.2844,0.0,0.0,0.0,0.0,0.0,0.0,0.0,0.0,0.0,0.0,0.0,0.0,0.0,0.0,0.0,0.0,0.0,0.0,0.0,0.0,0.0,0.0,0.0,0.0,0.0,0.0,0.0,0.0,0.0,0.0,0.0,0.0,0.0,0.0,0.0,0.0,0.0,0.0,0.0,0.0,0.0,0.0,0.0,0.0,0.0,0.0,0.0,0.0,0.0,0.0,0.0,0.0,0.0,0.0,0.0,0.0,0.0,0.0,0.0,0.0,0.0,0.0,0.0,0.0,0.0,0.0,0.0,0.0,0.0,0.0,0.0,0.0,0.0,0.0,0.0,0.0,0.0,0.0,0.0,0.0,0.0,0.0,0.0,0.0,0.0,0.0,0.0,0.0,0.0,0.0,0.0,0.0,0.0,0.0,0.0,0.0,0.0,0.0,0.0,0.0,0.0,0.0,0.0,0.0,0.0,0.0,0.0,0.0,0.0,1.5004,1.5935,1.5611,1.3847,1.3748,1.3465,0.0,0.0,0.0,0.0,0.0,0.0,0.0,0.0,0.0,0.0,0.0,0.0,0.0,0.0,0.0,0.0,0.0,0.0,0.0,0.0,0.0,0.0,0.0,0.0,0.0,0.0,0.0,0.0,0.0,0.0,0.0,0.0,0.0,0.0,0.0,0.0,0.0,0.0,0.0,0.0,0.0,0.0,0.0,0.0,0.0,0.0,0.0,0.0,0.0,0.0,0.0,0.0,0.0,0.0,0.0,0.0,0.0,0.0,0.0,0.0,0.0,0.0,0.0,0.0,0.0,0.0,0.0,0.0,0.0,0.0,0.0,0.0,0.0,0.0,0.0,0.0,0.0,0.0,0.0,0.0,0.0,0.0,0.0,0.0,0.0,0.0,0.0,0.0,0.0,0.0,0.0,0.0,0.0,0.0,0.0,0.0,0.0,0.0,0.0,0.0,0.0,0.0,0.0,0.0,0.0,0.0,0.0,0.0,1.7561,1.7317,1.8279,1.8105,1.6709,1.6034,1.5292,0.0,0.0,0.0,0.0,0.0,0.0,0.0,0.0,0.0,0.0,0.0,0.0,0.0,0.0,0.0,0.0,0.0,0.0,0.0,0.0,0.0,0.0,0.0,0.0,0.0,0.0,0.0,0.0,0.0,0.0,0.0,0.0,0.0,0.0,0.0,0.0,0.0,0.0,0.0,0.0,0.0,0.0,0.0,0.0,0.0,0.0,0.0,0.0,0.0,0.0,0.0,0.0,0.0,0.0,0.0,0.0,0.0,0.0,0.0,0.0,0.0,0.0,0.0,0.0,0.0,0.0,0.0,0.0,0.0,0.0,0.0,0.0,0.0,0.0,0.0,0.0,0.0,0.0,0.0,0.0,0.0,0.0,0.0,0.0,0.0,0.0,0.0,0.0,0.0,0.0,0.0,0.0,0.0,0.0,0.0,0.0,0.0,0.0,0.0,0.0,0.0,0.0,0.0,0.0,0.0,0.0,0.0,0.0,1.8597,2.0129,2.0269,2.0304,2.0285,1.8891,1.7708,0.0,0.0,0.0,0.0,0.0,0.0,0.0,0.0,0.0,0.0,0.0,0.0,0.0,0.0,0.0,0.0,0.0,0.0,0.0,0.0,0.0,0.0,0.0,0.0,0.0,0.0,0.0,0.0,0.0,0.0,0.0,0.0,0.0,0.0,0.0,0.0,0.0,0.0,0.0,0.0,0.0,0.0,0.0,0.0,0.0,0.0,0.0,0.0,0.0,0.0,0.0,0.0,0.0,0.0,0.0,0.0,0.0,0.0,0.0,0.0,0.0,0.0,0.0,0.0,0.0,0.0,0.0,0.0,0.0,0.0,0.0,0.0,0.0,0.0,0.0,0.0,0.0,0.0,0.0,0.0,0.0,0.0,0.0,0.0,0.0,0.0,0.0,0.0,0.0,0.0,0.0,0.0,0.0,0.0,0.0,0.0,0.0,0.0,0.0,0.0,0.0,0.0,0.0,0.0,0.0,0.0,0.0,0.0,1.9658,2.0039,2.0707,2.1051,2.1051,2.0236,1.9076,0.0,0.0,0.0,0.0,0.0,0.0,0.0,0.0,0.0,0.0,0.0,0.0,0.0,0.0,0.0,0.0,0.0,0.0,0.0,0.0,0.0,0.0,0.0,0.0,0.0,0.0,0.0,0.0,0.0,0.0,0.0,0.0,0.0,0.0,0.0,0.0,0.0,0.0,0.0,0.0,0.0,0.0,0.0,0.0,0.0,0.0,0.0,0.0,1.3508,0.0,0.0,0.0,0.0,0.0,0.0,0.0,0.0,0.0,0.0,0.0,0.0,0.0,0.0,0.0,0.0,0.0,0.0,0.0,0.0,0.0,0.0,0.0,0.0,0.0,0.0,0.0,0.0,0.0,0.0,0.0,0.0,0.0,0.0,0.0,0.0,0.0,0.0,0.0,0.0,0.0,0.0,0.0,0.0,0.0,0.0,0.0,0.0,0.0,0.0,0.0,0.0,0.0,0.0,0.0,0.0,0.0,0.0,0.0,2.031,2.1053,2.1487,2.1714,2.1708,2.1393,2.0291,0.0,0.0,0.0,0.0,0.0,0.0,0.0,0.0,0.0,0.0,0.0,0.0,0.0,0.0,0.0,0.0,0.0,0.0,0.0,0.0,0.0,0.0,0.0,0.0,0.0,0.0,0.0,0.0,0.0,0.0,0.0,0.0,0.0,0.0,0.0,0.0,0.0,0.0,0.0,0.0,0.0,0.0,0.0,0.0,0.0,0.0,0.0,0.0,0.0,0.0,0.0,0.0,0.0,0.0,0.0,0.0,0.0,0.0,0.0,0.0,0.0,0.0,0.0,0.0,0.0,0.0,0.0,0.0,0.0,0.0,0.0,0.0,0.0,0.0,0.0,0.0,0.0,0.0,0.0,0.0,0.0,0.0,0.0,0.0,0.0,0.0,0.0,0.0,0.0,0.0,0.0,0.0,0.0,0.0,0.0,0.0,0.0,0.0,0.0,0.0,0.0,0.0,0.0,0.0,0.0,0.0,0.0,1.9265,2.0891,2.2187,2.2314,2.2299,2.2154,2.2145,2.1178,1.9177,0.0,0.0,0.0,0.0,0.0,0.0,0.0,0.0,0.0,0.0,0.0,0.0,0.0,0.0,0.0,0.0,0.0,0.0,0.0,0.0,0.0,0.0,0.0,0.0,0.0,0.0,0.0,0.0,0.0,0.0,0.0,0.0,0.0,0.0,0.0,0.0,0.0,0.0,1.3793,1.398,0.0,0.0,0.0,0.0,0.0,0.0,0.0,0.0,1.4476,0.0,0.0,0.0,0.0,0.0,0.0,0.0,0.0,0.0,0.0,0.0,0.0,0.0,0.0,0.0,0.0,0.0,0.0,0.0,0.0,0.0,0.0,0.0,0.0,0.0,0.0,0.0,0.0,0.0,0.0,0.0,0.0,0.0,0.0,0.0,0.0,0.0,0.0,0.0,0.0,0.0,0.0,0.0,0.0,0.0,0.0,0.0,0.0,0.0,0.0,0.0,0.0,0.0,0.0,0.0,0.0,1.8098,2.0508,2.1835,2.2066,2.271,2.2699,2.1999,2.1911,2.1146,1.9647,0.0,0.0,0.0,0.0,0.0,0.0,0.0,0.0,0.0,0.0,0.0,0.0,0.0,0.0,0.0,0.0,0.0,0.0,0.0,0.0,0.0,0.0,0.0,0.0,0.0,0.0,0.0,0.0,0.0,0.0,0.0,0.0,0.0,0.0,0.0,0.0,0.0,0.0,0.0,1.3918,1.3944,0.0,0.0,0.0,0.0,0.0,0.0,0.0,0.0,1.4229,0.0,0.0,0.0,0.0,0.0,0.0,0.0,0.0,0.0,0.0,0.0,0.0,0.0,0.0,0.0,0.0,0.0,0.0,0.0,0.0,0.0,0.0,0.0,0.0,0.0,0.0,0.0,0.0,0.0,0.0,0.0,0.0,0.0,0.0,0.0,0.0,0.0,0.0,0.0,0.0,0.0,0.0,0.0,0.0,0.0,0.0,0.0,0.0,0.0,0.0,0.0,0.0,0.0,0.0,0.0,1.8232,2.0737,2.2002,2.1927,2.2674,2.2679,2.1766,2.1677,2.0974,0.0,0.0,0.0,0.0,0.0,0.0,0.0,0.0,0.0,0.0,0.0,0.0,0.0,0.0,0.0,0.0,0.0,0.0,0.0,0.0,0.0,0.0,0.0,0.0,0.0,0.0,0.0,0.0,0.0,0.0,0.0,0.0,0.0,0.0,0.0,0.0,0.0,0.0,0.0,0.0,1.4127,1.4296,1.4,0.0,0.0,0.0,0.0,0.0,0.0,1.4381,1.4203,0.0,0.0,0.0,0.0,0.0,0.0,0.0,0.0,0.0,0.0,0.0,0.0,0.0,0.0,0.0,0.0,0.0,0.0,0.0,0.0,0.0,0.0,0.0,0.0,0.0,0.0,0.0,0.0,0.0,0.0,0.0,0.0,0.0,0.0,0.0,0.0,0.0,0.0,0.0,0.0,0.0,0.0,0.0,0.0,0.0,0.0,0.0,0.0,0.0,0.0,0.0,0.0,0.0,0.0,0.0,1.8625,2.0834,2.1983,2.2021,2.274,2.2612,2.1552,2.1422,2.0717,0.0,0.0,0.0,0.0,0.0,0.0,0.0,0.0,0.0,0.0,0.0,0.0,0.0,0.0,0.0,0.0,0.0,0.0,0.0,0.0,0.0,0.0,0.0,0.0,0.0,0.0,0.0,0.0,0.0,0.0,0.0,0.0,0.0,0.0,0.0,0.0,0.0,0.0,0.0,0.0,0.0,1.4739,1.4432,1.5526,0.0,0.0,0.0,0.0,1.5581,1.5364,0.0,0.0,0.0,0.0,0.0,0.0,0.0,0.0,0.0,0.0,0.0,0.0,0.0,0.0,0.0,0.0,0.0,0.0,0.0,0.0,0.0,0.0,0.0,0.0,0.0,0.0,0.0,0.0,0.0,0.0,0.0,0.0,0.0,0.0,0.0,0.0,0.0,0.0,0.0,0.0,0.0,0.0,0.0,0.0,0.0,0.0,0.0,0.0,0.0,0.0,0.0,0.0,0.0,0.0,0.0,0.0,2.0158,2.1323,2.2152,2.2684,2.3293,2.2821,2.1215,2.1036,2.0314,0.0,0.0,0.0,0.0,0.0,0.0,0.0,0.0,0.0,0.0,0.0,0.0,0.0,0.0,0.0,0.0,0.0,0.0,0.0,0.0,0.0,0.0,0.0,0.0,0.0,0.0,0.0,0.0,0.0,0.0,0.0,0.0,0.0,0.0,0.0,0.0,0.0,0.0,0.0,0.0,0.0,1.5071,1.5835,1.6195,1.693,0.0,0.0,1.7173,1.8453,1.8608,0.0,0.0,0.0,0.0,0.0,0.0,0.0,0.0,0.0,0.0,0.0,0.0,0.0,0.0,0.0,0.0,0.0,0.0,0.0,0.0,0.0,0.0,0.0,0.0,0.0,0.0,0.0,0.0,0.0,0.0,0.0,0.0,0.0,0.0,0.0,0.0,0.0,0.0,0.0,0.0,0.0,0.0,0.0,0.0,0.0,0.0,0.0,0.0,0.0,0.0,0.0,0.0,0.0,0.0,0.0,1.8521,2.0264,2.2208,2.2997,2.2614,2.3192,2.2638,2.082,2.0627,1.99,0.0,0.0,0.0,0.0,0.0,0.0,0.0,0.0,0.0,0.0,0.0,0.0,0.0,0.0,0.0,0.0,0.0,0.0,0.0,0.0,0.0,0.0,0.0,0.0,0.0,0.0,0.0,0.0,0.0,0.0,0.0,0.0,0.0,0.0,0.0,0.0,0.0,0.0,0.0,0.0,0.0,0.0,1.6133,1.7081,0.0,0.0,0.0,1.8222,1.9028,0.0,0.0,0.0,0.0,0.0,0.0,0.0,0.0,0.0,0.0,0.0,0.0,0.0,0.0,0.0,0.0,0.0,0.0,0.0,0.0,0.0,0.0,0.0,0.0,0.0,0.0,0.0,0.0,0.0,0.0,0.0,0.0,0.0,0.0,0.0,0.0,0.0,0.0,0.0,0.0,0.0,0.0,0.0,0.0,0.0,0.0,0.0,0.0,0.0,0.0,0.0,0.0,0.0,0.0,0.0,0.0,0.0,2.0349,2.272,2.35,2.2571,2.2911,2.2282,2.0556,2.0161,0.0,0.0,0.0,0.0,0.0,0.0,0.0,0.0,0.0,0.0,0.0,0.0,0.0,0.0,0.0,0.0,0.0,0.0,0.0,0.0,0.0,0.0,0.0,0.0,0.0,0.0,0.0,1.2818,0.0,0.0,0.0,0.0,0.0,0.0,0.0,0.0,0.0,0.0,0.0,0.0,0.0,0.0,1.6321,1.6712,1.7932,1.8861,0.0,0.0,1.9,1.9087,1.9071,1.8843,0.0,0.0,0.0,0.0,0.0,0.0,0.0,0.0,0.0,0.0,0.0,0.0,0.0,0.0,0.0,0.0,0.0,0.0,0.0,0.0,0.0,0.0,0.0,0.0,0.0,0.0,0.0,0.0,0.0,0.0,0.0,0.0,0.0,0.0,0.0,0.0,0.0,0.0,0.0,0.0,0.0,0.0,0.0,0.0,0.0,0.0,0.0,0.0,0.0,0.0,0.0,0.0,0.0,0.0,0.0,2.0918,2.2507,2.3204,2.286,2.2548,2.179,2.0544,1.9572,1.8844,0.0,0.0,0.0,0.0,0.0,0.0,0.0,0.0,0.0,0.0,0.0,0.0,0.0,0.0,0.0,0.0,0.0,0.0,0.0,0.0,0.0,0.0,0.0,0.0,0.0,0.0,0.0,0.0,0.0,0.0,0.0,0.0,0.0,0.0,0.0,0.0,0.0,0.0,0.0,0.0,0.0,1.7275,1.8202,1.855,1.8753,0.0,0.0,1.9152,1.9104,1.8932,1.862,1.8113,0.0,0.0,0.0,0.0,0.0,0.0,0.0,0.0,0.0,0.0,0.0,0.0,0.0,0.0,0.0,0.0,0.0,0.0,0.0,0.0,0.0,0.0,0.0,0.0,0.0,0.0,0.0,0.0,0.0,0.0,0.0,0.0,0.0,0.0,0.0,0.0,0.0,0.0,0.0,0.0,0.0,0.0,0.0,0.0,0.0,0.0,0.0,0.0,0.0,0.0,0.0,0.0,0.0,1.8773,2.0692,2.2171,2.2841,2.2635,2.2235,2.133,1.9919,1.9171,1.8331,0.0,0.0,0.0,0.0,0.0,0.0,0.0,0.0,0.0,0.0,0.0,0.0,0.0,0.0,0.0,0.0,0.0,0.0,0.0,0.0,0.0,0.0,0.0,0.0,0.0,0.0,0.0,0.0,1.253,1.2526,1.2616,0.0,0.0,0.0,0.0,0.0,0.0,0.0,0.0,0.0,0.0,1.73,1.836,1.8582,0.0,0.0,1.8965,1.9198,1.9,1.877,1.8502,1.8172,1.7828,0.0,0.0,0.0,0.0,0.0,0.0,0.0,0.0,0.0,0.0,0.0,0.0,0.0,0.0,0.0,0.0,0.0,0.0,0.0,0.0,0.0,0.0,0.0,0.0,0.0,0.0,0.0,0.0,0.0,0.0,0.0,0.0,0.0,0.0,0.0,0.0,0.0,0.0,0.0,0.0,0.0,0.0,0.0,0.0,0.0,0.0,0.0,0.0,0.0,0.0,0.0,0.0,1.843,2.0355,2.1873,2.2526,2.2252,2.1707,2.078,1.9454,1.8471,1.7597,0.0,0.0,0.0,0.0,0.0,0.0,0.0,0.0,0.0,0.0,0.0,0.0,0.0,0.0,0.0,0.0,0.0,0.0,0.0,0.0,0.0,0.0,0.0,0.0,0.0,0.0,0.0,0.0,1.2617,1.2416,1.2369,0.0,0.0,0.0,0.0,0.0,0.0,0.0,0.0,0.0,0.0,1.7432,1.8217,1.8406,1.8351,1.8107,1.8495,1.8771,1.8661,1.8408,1.8117,1.7895,0.0,0.0,0.0,0.0,0.0,0.0,0.0,0.0,0.0,0.0,0.0,0.0,0.0,0.0,0.0,0.0,0.0,0.0,0.0,0.0,0.0,0.0,0.0,0.0,0.0,0.0,0.0,0.0,0.0,0.0,1.2862,0.0,0.0,0.0,0.0,0.0,0.0,0.0,0.0,0.0,0.0,0.0,0.0,0.0,0.0,0.0,0.0,0.0,0.0,0.0,0.0,0.0,0.0,1.8087,2.0085,2.1678,2.2224,2.1698,2.0959,2.0085,1.9178,1.7547,1.6633,1.6563,0.0,0.0,0.0,0.0,0.0,0.0,0.0,0.0,0.0,0.0,0.0,0.0,0.0,0.0,0.0,0.0,0.0,0.0,0.0,0.0,0.0,0.0,0.0,0.0,0.0,0.0,1.371,1.3169,1.2561,0.0,0.0,0.0,0.0,0.0,0.0,0.0,0.0,0.0,0.0,1.7625,1.7738,1.7883,1.8023,1.7963,1.7562,1.7636,1.7798,1.7988,1.7737,1.7427,0.0,0.0,0.0,0.0,0.0,0.0,0.0,0.0,0.0,0.0,0.0,0.0,0.0,0.0,0.0,0.0,0.0,0.0,0.0,0.0,0.0,0.0,0.0,0.0,0.0,0.0,0.0,1.3334,1.3775,0.0,0.0,0.0,0.0,0.0,0.0,0.0,0.0,0.0,0.0,0.0,1.7238,1.7652,0.0,0.0,0.0,0.0,0.0,0.0,0.0,0.0,0.0,0.0,0.0,0.0,1.7856,1.9615,2.1083,2.1599,2.1148,2.0289,1.9367,1.8363,1.69,1.569,1.4809,0.0,0.0,0.0,0.0,0.0,0.0,0.0,0.0,0.0,0.0,0.0,0.0,0.0,0.0,0.0,0.0,0.0,0.0,0.0,0.0,0.0,0.0,0.0,0.0,0.0,1.4094,0.0,0.0,0.0,0.0,0.0,0.0,0.0,0.0,0.0,0.0,0.0,1.5216,1.6848,1.7167,1.7288,1.7401,1.7618,1.7618,0.0,0.0,0.0,0.0,0.0,0.0,0.0,0.0,0.0,0.0,0.0,0.0,0.0,0.0,1.7637,1.5725,1.5328,1.5574,1.6416,0.0,0.0,0.0,0.0,0.0,0.0,0.0,0.0,0.0,0.0,0.0,0.0,0.0,0.0,1.4923,0.0,1.4905,0.0,0.0,0.0,0.0,0.0,0.0,0.0,0.0,1.6443,1.6821,1.7439,1.793,1.8099,0.0,1.8063,1.7967,0.0,0.0,0.0,0.0,0.0,0.0,0.0,0.0,1.7555,1.9163,2.0407,2.0923,2.0603,1.9652,1.8574,1.7356,1.5731,1.4381,1.324,1.3729,1.4284,0.0,0.0,0.0,0.0,0.0,0.0,0.0,0.0,0.0,0.0,0.0,0.0,0.0,0.0,0.0,0.0,0.0,0.0,0.0,0.0,0.0,0.0,0.0,1.4279,0.0,0.0,0.0,0.0,0.0,0.0,0.0,0.0,0.0,1.2308,1.3845,1.535,1.646,1.6789,1.6926,1.7084,0.0,0.0,0.0,0.0,0.0,0.0,0.0,1.6543,1.6371,1.6344,1.7005,1.9044,1.7883,1.7031,1.8202,0.0,0.0,1.6471,1.598,1.639,1.7793,1.8007,1.7722,1.6949,1.6725,1.6515,0.0,0.0,0.0,0.0,0.0,0.0,0.0,0.0,1.5651,1.6025,0.0,1.5605,0.0,0.0,0.0,0.0,0.0,1.4475,0.0,0.0,1.6889,1.7288,1.7695,1.7928,1.7959,1.777,1.7959,1.7866,1.7542,1.7018,0.0,0.0,0.0,0.0,0.0,0.0,1.7175,1.8747,1.9688,2.0125,2.0051,1.9038,1.7731,1.6193,1.4128,1.2653,1.1945,1.2741,1.3328,1.3569,1.5046,0.0,0.0,0.0,0.0,0.0,0.0,0.0,0.0,0.0,0.0,0.0,0.0,0.0,0.0,0.0,0.0,0.0,0.0,0.0,0.0,1.4477,0.0,0.0,0.0,0.0,0.0,0.0,0.0,0.0,0.0,0.0,1.2298,1.4308,1.6067,1.6194,0.0,0.0,0.0,0.0,1.6837,1.6743,1.6517,1.6436,1.657,1.6596,1.6628,1.6781,0.0,0.0,2.0623,1.9563,1.8563,1.9308,2.0206,2.0091,1.7796,1.7325,1.7807,1.9361,1.9528,1.8992,1.7817,1.7311,1.6992,2.1604,0.0,0.0,0.0,0.0,1.9666,1.9483,1.921,1.9052,1.8973,1.8842,1.8156,0.0,0.0,0.0,0.0,0.0,0.0,1.4379,1.4915,1.5612,1.6007,1.6129,1.6872,1.7205,1.7169,1.7363,1.7748,1.8193,1.7098,1.6491,1.6398,0.0,0.0,0.0,0.0,1.6738,1.8192,1.9131,1.9557,1.9471,1.8416,1.6683,1.4231,1.2946,1.1868,1.0954,1.1445,1.186,1.2191,1.3218,0.0,0.0,0.0,0.0,0.0,0.0,0.0,0.0,0.0,0.0,0.0,0.0,0.0,0.0,0.0,0.0,0.0,0.0,0.0,1.3714,1.373,1.3644,0.0,0.0,0.0,0.0,0.0,0.0,0.0,0.0,0.0,1.4367,1.5304,1.6067,0.0,0.0,1.6355,1.6517,1.6532,1.6748,1.7263,1.6725,0.0,1.6436,1.6543,1.7357,1.9578,2.0166,2.0648,2.1573,2.0938,2.0353,2.0639,2.1069,2.1006,2.0044,1.9314,1.9346,2.023,2.0323,1.9993,1.934,1.9006,1.8794,2.3621,2.3327,2.2621,2.2146,2.1888,2.1678,2.1405,2.1059,2.0697,2.0302,1.9875,1.9186,1.8199,1.6949,1.5558,0.0,0.0,0.0,1.3638,1.4253,1.478,1.527,1.5667,1.6322,1.6652,1.6665,1.6864,1.7221,1.7716,1.6628,1.6145,1.6146,0.0,0.0,1.5118,1.5356,1.6161,1.7486,1.8555,1.8925,1.8717,1.7246,1.5372,1.3195,1.2209,1.1338,1.0532,1.0891,1.1195,1.1354,1.2027,1.3071,0.0,0.0,0.0,0.0,0.0,0.0,0.0,0.0,0.0,0.0,0.0,1.4994,0.0,0.0,0.0,0.0,1.4862,1.4463,1.3423,1.3247,0.0,0.0,0.0,0.0,0.0,0.0,0.0,1.2974,1.3852,1.4962,1.6365,1.6518,1.6593,1.6935,1.6993,1.708,1.7249,0.0,1.6823,1.7937,1.8073,1.7876,1.7415,1.6932,1.7764,2.1157,2.1797,2.1899,2.1974,2.1678,2.1464,2.145,2.1495,2.1497,2.1167,2.0679,2.041,2.0843,2.081,2.0595,2.0139,1.9925,1.9762,2.4913,2.5022,2.3545,2.2831,2.2674,2.236,2.1993,2.155,2.1065,2.0487,1.9872,1.9058,1.7975,1.6653,1.4588,0.0,1.2827,1.2425,1.2936,1.4149,1.4166,1.4754,1.5792,1.6027,1.6157,1.6126,1.6348,1.6366,1.6225,1.5824,1.5574,1.5536,1.5336,1.4972,1.4497,1.4816,1.5556,1.6705,1.7777,1.8159,1.7814,1.5784,1.4075,1.2822,1.1841,1.1074,1.0514,1.0863,1.1014,1.0938,1.128,1.1902,1.2781,0.0,0.0,0.0,0.0,0.0,0.0,0.0,0.0,0.0,0.0,0.0,0.0,0.0,0.0,0.0,1.4059,0.0,1.346,1.2957,0.0,0.0,0.0,1.2842,1.3319,1.3095,1.3031,1.3357,0.0,0.0,1.8093,1.7798,1.7548,1.8234,1.8346,1.8439,1.8573,1.7449,1.7133,1.8776,2.0004,2.0369,1.9176,1.8047,1.8421,2.1494,2.2089,2.2003,2.1961,2.1957,2.1899,2.1708,2.165,2.1589,2.1589,2.1356,2.1262,2.107,2.1038,2.0892,2.046,2.02,2.0025,2.4638,2.4682,2.4171,2.4061,2.4204,2.3645,2.2991,2.2277,2.1555,2.0829,1.9988,1.9114,1.7279,1.4801,1.3826,1.2978,1.224,1.0903,1.0933,1.2061,1.2835,1.3455,1.4057,1.449,1.4709,1.4698,1.4801,1.4835,1.479,1.4812,1.4561,1.4207,1.4375,1.4403,1.431,1.465,1.517,1.5811,1.6678,1.6879,1.633,1.5174,1.3946,1.2696,1.1841,1.1116,1.0514,1.0565,1.0532,1.0254,1.0535,1.1026,1.1819,1.3848,0.0,0.0,0.0,0.0,0.0,0.0,0.0,0.0,0.0,1.5239,1.5065,0.0,1.4949,0.0,1.2942,1.234,1.2791,1.3162,0.0,0.0,1.3122,1.3048,1.3317,1.3442,1.3332,1.2734,1.4238,1.6125,1.8238,1.8341,1.8467,1.9246,1.8624,1.8206,1.8453,1.8279,1.8474,1.972,2.065,2.107,2.0762,2.0668,2.0688,2.1411,2.1708,2.1811,2.1691,2.1869,2.194,2.1738,2.1634,2.1542,2.1419,2.145,2.1294,2.0876,2.081,2.0876,2.0826,2.0561,2.0323,2.4024,2.3947,2.3581,2.3356,2.3199,2.3244,2.2757,2.1912,2.1133,2.0219,1.926,1.7671,1.5781,1.3716,1.3247,1.25,1.143,0.9797,0.9475,1.0264,1.1513,1.2258,1.2657,1.3294,1.3589,1.3589,1.3674,1.37,1.3653,1.37,1.3668,1.3472,1.3461,1.3507,1.3668,1.3986,1.4565,1.5323,1.6039,1.6096,1.549,1.4744,1.3862,1.2812,1.2049,1.141,1.0972,1.093,1.0747,1.0551,1.046,1.0686,1.1233,1.2916,1.4092,0.0,0.0,0.0,0.0,0.0,0.0,0.0,0.0,0.0,0.0,0.0,1.4948,1.4017,1.301,1.252,1.273,1.308,1.3212,1.2973,1.2648,1.2583,1.2893,1.3173,1.3291,1.3275,1.4185,1.5538,1.7341,1.8135,1.862,1.9035,1.885,1.8882,1.9421,1.961,1.9939,2.0647,2.1311,2.1754,2.1754,2.1509,2.1324,2.1325,2.1464,2.157,2.157,2.1675,2.1721,2.1556,2.1371,2.1246,2.1198,2.1294,2.1183,2.0728,2.0426,2.0444,2.0794,2.0579,2.0289,2.3075,2.285,2.2307,2.16,2.092,2.1609,2.1437,2.071,1.9878,1.8863,1.7658,1.5579,1.3968,1.2782,1.2721,1.1957,1.051,0.9027,0.8487,0.8899,1.0308,1.1225,1.163,1.2307,1.2628,1.2618,1.2716,1.2716,1.2628,1.257,1.2725,1.2899,1.2555,1.2563,1.2853,1.314,1.3874,1.5,1.5509,1.5513,1.496,1.4398,1.3742,1.2977,1.2255,1.1778,1.1528,1.1427,1.1294,1.1205,1.0846,1.0767,1.096,1.2125,1.3106,0.0,1.4253,0.0,0.0,0.0,0.0,0.0,0.0,0.0,0.0,1.5004,1.466,1.3585,1.3525,1.3294,1.2849,1.2754,1.2667,1.2493,1.2133,1.2027,1.2437,1.261,1.3086,1.4133,1.3937,1.4397,1.6059,1.7434,1.8214,1.8252,1.8727,1.9375,2.0364,2.0748,2.1039,2.1262,2.1797,2.2094,2.1991,2.1324,2.0827,2.1087,2.1214,2.1261,2.1339,2.1355,2.134,2.1183,2.0877,2.0745,2.091,2.099,2.0924,2.0494,2.001,1.9925,2.0545,2.0392,1.996,2.1453,2.1288,2.0573,1.9777,1.8966,1.8331,1.8249,1.8432,1.7461,1.6039,1.4428,1.3695,1.251,1.1174,1.1901,1.1256,0.9461,0.8455,0.8271,0.881,0.9555,1.03,1.1057,1.1427,1.161,1.171,1.1669,1.161,1.161,1.1469,1.151,1.166,1.1729,1.1938,1.228,0.0,0.0,0.0,1.4471,1.4321,1.4212,1.3789,1.3228,1.2608,1.2283,0.0,1.1669,1.1628,1.155,1.1327,1.1372,0.0,0.0,0.0,0.0,0.0,0.0,0.0,0.0,0.0,0.0,0.0,1.3637,1.3915,1.4147,1.4414,1.4109,1.3142,1.3017,1.2803,1.2295,1.2058,1.2058,1.2463,1.2569,1.2559,1.2532,1.257,1.283,1.3331,1.3875,1.4439,1.5073,1.6163,1.7034,1.749,1.7948,1.85,1.9222,2.0326,2.1022,2.0974,2.1417,2.1768,2.1542,2.0844,2.0357,2.0494,2.0728,2.0811,2.0712,2.073,2.073,2.0613,2.0323,2.0065,2.0124,2.0514,2.0644,2.0115,1.9581,1.953,2.0545,2.0239,1.9566,1.922,0.0,1.8352,1.7536,0.0,1.5648,1.5092,1.4859,1.5043,1.4165,1.2445,1.2162,1.126,0.9961,1.091,1.0393,0.8745,0.8049,0.7913,0.8389,0.9235,0.988,1.0478,1.1023,1.1276,1.1226,1.1267,1.1226,1.1124,1.0972,1.0972,1.1124,1.1217,1.1418,1.1728,1.2049,1.2774,1.3732,1.3564,1.347,1.3494,1.3266,1.29,1.2539,1.2234,0.0,0.0,0.0,0.0,0.0,0.0,0.0,0.0,0.0,0.0,1.1451,1.1925,1.2436,1.2726,1.2981,1.2975,1.2659,1.2695,1.307,1.3911,1.4,1.3563,1.2627,1.2471,1.2234,1.1604,1.1394,1.1477,1.1846,1.2116,1.2206,1.2017,1.1977,1.2157,1.2598,1.3238,1.3773,1.415,1.4915,1.5744,1.6502,1.6879,1.7338,1.8235,1.9651,2.0577,2.0308,2.0778,2.1007,2.0579,2.01,1.9711,1.9762,1.996,2.0085,2.003,1.9984,1.9934,1.9823,1.966,1.9536,1.9434,1.9788,2.001,1.9654,1.9011,1.8669,1.9266,1.9281,1.8959,1.6738,1.6558,1.615,1.5336,1.4292,1.333,1.2242,1.1197,0.0,0.0,0.0,1.0759,1.0037,0.8981,0.9616,0.9305,0.824,0.7729,0.7641,0.7935,0.8967,0.9673,1.0138,1.082,1.1023,1.0871,1.1074,1.1065,1.082,1.0667,1.0667,1.0769,1.0777,1.0922,1.1217,1.1669,1.2147,1.2628,1.2667,1.2764,1.2871,1.2696,1.2569,1.2372,1.2076,1.1977,1.1977,1.1828,1.1819,1.1918,1.1927,1.1968,1.2026,1.1477,1.1124,1.1015,1.1074,1.136,1.2021,1.2218,1.2227,1.1972,1.185,1.2344,1.3631,1.3525,1.2997,1.2076,1.1977,1.1645,1.098,1.0802,1.0871,1.115,1.1436,1.1528,1.1368,1.1276,1.1427,1.1877,1.2421,1.291,1.343,1.3905,1.4501,1.5334,1.5768,1.6337,1.734,1.8841,1.9797,1.9581,1.9909,2.0065,1.9566,1.9072,1.886,1.8898,1.9124,1.9295,1.9295,1.9192,1.9103,1.9029,1.8968,1.8855,1.8741,1.8959,1.9139,1.9153,1.8201,1.7488,1.7652,1.7908,1.7921,1.4349,1.4394,1.4532,1.3699,1.2261,1.1405,1.0148,0.8835,0.9555,0.9622,0.919,0.9341,0.8805,0.7729,0.7639,0.7597,0.7597,0.7538,0.7634,0.7919,0.8633,0.9456,1.0394,1.0443,1.0573,1.0726,1.0769,1.0726,1.0565,1.0419,1.0368,1.0368,1.0368,1.0522,1.0769,1.0981,1.1174,1.136,1.172,1.2064,1.2363,1.2166,1.1977,1.1828,1.1569,1.1427,1.1427,1.1427,1.1326,1.1276,1.1377,1.1528,1.1728,1.1023,1.0411,0.9925,1.0035,1.0403,1.0846,1.1057,1.1116,1.1116,1.1074,1.1519,1.2569,1.2666,1.2323,1.1528,1.1418,1.1276,1.093,1.0419,1.0308,1.0726,1.0922,1.0972,1.0828,1.0871,1.1074,1.1377,1.171,1.2215,1.2813,1.319,1.36,1.4222,1.4766,1.5466,1.6697,1.7908,1.8553,1.8697,1.9026,1.9101,1.8721,1.8121,1.7882,1.8029,1.8279,1.8486,1.8563,1.8394,1.8263,1.8249,1.8106,1.7974,1.7894,1.8135,1.8254,1.8095,1.6824,1.5844,1.6497,1.6441,1.6225,1.1661,1.1795,1.2153,1.1427,0.9972,0.8802,0.7823,0.6999,0.6945,0.7261,0.7706,0.8146,0.7711,0.6804,0.6691,0.6756,0.7058,0.7387,0.7645,0.7955,0.8593,0.9299,0.9963,1.0288,1.0411,1.0462,1.0624,1.0675,1.0589,1.0427,1.0316,1.0316,1.0368,1.0522,1.0667,1.0712,1.0754,1.0972,1.1199,1.1399,1.1719,1.1578,1.1418,1.1377,1.1175,1.1074,1.1065,1.1074,1.1074,1.1023,1.0812,1.0863,1.1217,1.0198,0.9532,0.9413,0.9524,0.9792,1.0249,1.036,1.0411,1.0411,1.0411,1.0659,1.1377,1.1578,1.1427,1.0922,1.0863,1.0769,1.0462,1.0146,1.0102,1.03,1.036,1.0411,1.047,1.0419,1.0616,1.1015,1.1267,1.1569,1.1977,1.2363,1.2745,1.3238,1.3873,1.4789,1.5756,1.6256,1.6604,1.6701,1.7639,1.8161,1.7855,1.7365,1.7018,1.6989,1.7338,1.7571,1.7693,1.7517,1.7353,1.7312,1.7201,1.7047,1.6993,1.7352,1.7447,1.7005,1.5599,1.4846,1.5355,1.5085,1.5028,0.8851,0.8851,0.9747,0.8995,0.7248,0.6328,0.5706,0.5332,0.4956,0.5281,0.6036,0.6712,0.6603,0.5991,0.5869,0.6091,0.6608,0.6993,0.7436,0.7931,0.8546,0.9081,0.9627,1.0118,1.036,1.0308,1.0616,1.0734,1.0699,1.0486,1.0368,1.0368,1.047,1.0565,1.0726,1.0677,1.0779,1.0863,1.0821,1.0922,1.1175,1.1023,1.0922,1.0922,1.0769,1.0667,1.0667,1.0667,1.0616,1.0557,1.0249,1.0198,1.0454,0.948,0.8956,0.9106,0.9159,0.9368,0.9784,0.9836,0.9888,0.9836,0.9888,1.0051,1.0368,1.0506,1.0616,1.0514,1.0411,1.0146,0.9895,0.9792,0.9844,0.9836,0.9888,0.9947,1.0051,0.994,1.0051,1.0565,1.0812,1.0913,1.1175,1.1578,1.2026,1.251,1.3208,1.3967,1.4582,1.4755,1.4709,1.5028,1.6299,1.7144,1.6808,1.6552,1.625,1.6057,1.6367,1.6655,1.6697,1.6582,1.6454,1.6454,1.6367,1.6238,1.6139,1.6509,1.665,1.625,1.4892,1.3941,1.4536,1.4071,1.4071,0.6105,0.5828,0.7687,0.6578,0.3848,0.4316,0.4391,0.4015,0.3907,0.3796,0.3907,0.4959,0.5407,0.5179,0.4835,0.5222,0.6173,0.6273,0.6879,0.7836,0.8127,0.8718,0.9544,0.9866,1.0205,1.047,1.0726,1.0769,1.0675,1.0616,1.0565,1.0522,1.0616,1.0667,1.0726,1.1065,1.1065,1.0726,1.0592,1.0592,1.0718,1.0624,1.0522,1.0375,1.0205,0.9991,0.9895,0.9895,0.9784,0.9569,0.9517,0.9465,0.9361,0.9211,0.9061,0.8857,0.9054,0.9263,0.9263,0.942,0.9472,0.9465,0.9569,0.9725,0.9991,0.9829,0.9984,1.0249,0.9984,0.9569,0.9323,0.9271,0.9368,0.9472,0.9569,0.9614,0.9517,0.9361,0.9472,0.9999,1.0102,1.0205,1.0565,1.0922,1.1477,1.2067,1.2452,1.2977,1.361,1.3637,1.3542,1.3732,1.5062,1.5901,1.5546,1.5659,1.5603,1.5457,1.5591,1.5744,1.5832,1.58,1.5724,1.5724,1.5635,1.5546,1.5501,1.568,1.5824,1.549,1.449,1.3563,1.3658,1.3266,1.3532,0.4645,0.4863,0.6425,0.5242,0.2662,0.3289,0.3297,0.2794,0.2794,0.274,0.2742,0.3352,0.3796,0.4177,0.4061,0.4505,0.5411,0.5723,0.6209,0.6939,0.7509,0.8168,0.8891,0.9232,0.965,1.0133,1.0272,1.0265,1.0257,1.0249,1.0257,1.0257,1.047,1.0565,1.0624,1.1073,1.1124,1.0726,1.0372,1.0218,1.0257,1.0154,1.0051,0.9888,0.9681,0.948,0.948,0.9427,0.9368,0.9263,0.9159,0.9113,0.9204,0.9061,0.8903,0.8811,0.8962,0.9061,0.9106,0.9061,0.9061,0.9061,0.9113,0.9211,0.9472,0.9413,0.942,0.9427,0.9271,0.9061,0.8956,0.8956,0.9054,0.9263,0.9316,0.9316,0.9256,0.9113,0.9113,0.9472,0.9577,0.9732,0.994,1.0249,1.071,1.1318,1.1669,1.2058,1.2598,1.2647,1.255,1.254,1.3532,1.4444,1.4593,1.4834,1.4777,1.4536,1.472,1.5028,1.4983,1.5051,1.5017,1.4971,1.4869,1.4731,1.4686,1.4777,1.4926,1.4501,1.3437,1.2393,1.3055,1.2647,1.2628,0.2952,0.3456,0.4317,0.336,0.1395,0.2184,0.2242,0.1792,0.1849,0.1905,0.1961,0.2074,0.2464,0.3016,0.3231,0.3843,0.4632,0.5007,0.5382,0.5819,0.6681,0.7391,0.7949,0.8474,0.9015,0.9449,0.9598,0.9681,0.9777,0.9784,0.9836,0.994,1.0154,1.0316,1.0411,1.0861,1.092,1.0573,1.0218,0.9961,0.9888,0.9732,0.9629,0.951,0.9309,0.9159,0.9166,0.9106,0.9054,0.9047,0.8798,0.8798,0.8949,0.885,0.8752,0.8699,0.8745,0.8804,0.8798,0.8639,0.8527,0.8586,0.8533,0.8692,0.8896,0.9001,0.8844,0.8586,0.854,0.8586,0.8699,0.8699,0.8798,0.8949,0.9054,0.9061,0.8956,0.8804,0.8798,0.9061,0.9159,0.9256,0.9465,0.9629,0.9888,1.0498,1.0854,1.1167,1.1619,1.1778,1.1678,1.1477,1.2197,1.3074,1.3847,1.3999,1.3763,1.3716,1.3894,1.4071,1.4118,1.4222,1.4233,1.4118,1.4035,1.3941,1.3931,1.3978,1.3894,1.3362,1.2433,1.1619,1.2412,1.2008,1.166,0.0447,0.0614,0.0616,0.056,0.0168,0.0729,0.101,0.101,0.1234,0.129,0.129,0.1346,0.1514,0.1794,0.2404,0.3181,0.3965,0.4076,0.4291,0.4721,0.5647,0.6357,0.6902,0.7605,0.8196,0.8626,0.8883,0.9145,0.9354,0.942,0.9517,0.9614,0.9732,0.9895,1.0007,1.034,1.0451,1.0265,1.0028,0.9865,0.9614,0.9517,0.9413,0.9361,0.9263,0.9113,0.9008,0.8857,0.8745,0.8633,0.8533,0.848,0.848,0.8639,0.8639,0.8421,0.8321,0.8221,0.8215,0.8096,0.7984,0.7931,0.7925,0.809,0.8368,0.8421,0.8268,0.7955,0.7955,0.8055,0.8262,0.8315,0.8421,0.8474,0.8692,0.8692,0.8474,0.8421,0.8533,0.8745,0.8738,0.8784,0.9106,0.9015,0.9211,0.9725,1.0095,1.0462,1.0871,1.0972,1.082,1.0761,1.1267,1.2058,1.29,1.3045,1.2997,1.2997,1.2949,1.3055,1.3228,1.3362,1.3314,1.3314,1.3266,1.3218,1.316,1.3016,1.2725,1.2286,1.1751,1.1418,1.171,1.1418,1.1116,-0.0952,-0.1008,-0.1009,-0.0841,-0.0561,-0.0336,-0.0056,0.0336,0.0393,0.0561,0.0729,0.0954,0.1066,0.1178,0.1569,0.2127,0.2852,0.3244,0.3572,0.4009,0.4889,0.5496,0.5873,0.6573,0.7235,0.7788,0.8043,0.8178,0.8258,0.8554,0.8791,0.8837,0.9047,0.9204,0.9309,0.9874,1.0037,0.974,0.9555,0.9496,0.9406,0.9159,0.9008,0.9001,0.8896,0.8784,0.8738,0.8639,0.8527,0.8474,0.8374,0.8321,0.8374,0.8109,0.8002,0.8055,0.7943,0.7842,0.7676,0.7568,0.7461,0.7396,0.7402,0.7509,0.7729,0.7836,0.7735,0.7461,0.7354,0.7402,0.7391,0.761,0.7883,0.8096,0.8334,0.8394,0.815,0.7925,0.799,0.8374,0.8321,0.8268,0.848,0.8533,0.8798,0.9256,0.9472,0.9784,1.0146,1.0249,1.0087,0.988,1.0403,1.1116,1.156,1.1819,1.1927,1.2017,1.2116,1.2264,1.2452,1.253,1.253,1.254,1.2491,1.2501,1.2442,1.2452,1.2058,1.125,1.0659,1.06,1.0854,1.0659,1.0344,-0.174,-0.1797,-0.1797,-0.1515,-0.101,-0.0954,-0.0673,-0.028,-0.0112,0.0112,0.028,0.0505,0.0673,0.0729,0.0897,0.1234,0.1793,0.2462,0.2961,0.335,0.4073,0.4567,0.5003,0.5601,0.6268,0.6879,0.7252,0.7444,0.7475,0.7871,0.8043,0.8103,0.8355,0.8508,0.8626,0.9246,0.9456,0.9159,0.9026,0.8974,0.9093,0.885,0.8646,0.8593,0.8421,0.8362,0.8527,0.8374,0.8268,0.8215,0.8109,0.8002,0.7931,0.7568,0.7467,0.7622,0.7563,0.7456,0.7295,0.7198,0.7085,0.6977,0.6972,0.7085,0.7252,0.7246,0.7085,0.6869,0.682,0.6707,0.6534,0.6761,0.7139,0.7563,0.7854,0.7913,0.767,0.7391,0.7557,0.7889,0.7836,0.7788,0.8002,0.8109,0.8315,0.8738,0.8798,0.9061,0.948,0.9465,0.9302,0.9099,0.9577,1.0095,1.0344,1.0446,1.071,1.0854,1.1259,1.1469,1.156,1.1642,1.1692,1.176,1.1769,1.1769,1.1778,1.1828,1.1217,1.036,0.9895,0.9732,0.988,0.994,0.9621,-0.1962,-0.1853,-0.1797,-0.1628,-0.129,-0.1066,-0.0898,-0.0729,-0.028,-0.0056,-0.0,-0.0,0.0224,0.0393,0.0449,0.0617,0.1121,0.1736,0.2296,0.2745,0.3188,0.3685,0.4233,0.4728,0.5344,0.5955,0.6495,0.6874,0.7079,0.7235,0.7348,0.7515,0.7717,0.7871,0.7871,0.844,0.8712,0.8573,0.8448,0.8455,0.8573,0.8421,0.8321,0.8162,0.7889,0.7937,0.8315,0.8055,0.7901,0.7848,0.7747,0.7521,0.7278,0.7128,0.7085,0.7085,0.7085,0.7079,0.7031,0.6815,0.6652,0.6652,0.6647,0.6652,0.6707,0.6707,0.6598,0.6391,0.6282,0.6123,0.59,0.5845,0.6218,0.6923,0.7144,0.7139,0.7079,0.6923,0.6982,0.73,0.7246,0.7354,0.7628,0.7628,0.7676,0.7889,0.8109,0.8374,0.8692,0.8685,0.8527,0.8527,0.8844,0.9309,0.9211,0.9061,0.9427,0.9732,1.0249,1.0608,1.06,1.0643,1.0744,1.0804,1.0956,1.1015,1.1116,1.1065,1.0498,0.9732,0.9316,0.9008,0.9159,0.9204,0.8837,-0.2127,-0.2074,-0.2073,-0.1908,-0.1628,-0.1572,-0.129,-0.0897,-0.0673,-0.0393,-0.0,-0.0,0.0056,-0.0,0.028,0.0561,0.0898,0.1177,0.1569,0.2127,0.2629,0.3072,0.3463,0.4018,0.468,0.5289,0.5601,0.5982,0.6322,0.648,0.6588,0.6642,0.6912,0.7074,0.7128,0.7628,0.7842,0.7717,0.7759,0.7871,0.799,0.7937,0.7836,0.7735,0.7521,0.7461,0.7515,0.7574,0.7574,0.7478,0.7424,0.7419,0.73,0.6815,0.6495,0.6495,0.649,0.6376,0.6223,0.6218,0.6164,0.6114,0.6119,0.6114,0.6164,0.6277,0.6282,0.6178,0.6173,0.6009,0.5572,0.5289,0.5555,0.6376,0.648,0.6485,0.648,0.6593,0.6756,0.681,0.6652,0.6766,0.7144,0.7085,0.7031,0.73,0.7461,0.7723,0.8043,0.7996,0.7783,0.7622,0.815,0.8573,0.8468,0.8262,0.8209,0.8679,0.9197,0.9725,0.9725,0.9621,0.9725,0.994,1.0095,1.0249,1.0352,1.0198,0.9732,0.9099,0.8573,0.8474,0.8633,0.8474,0.815,-0.2296,-0.2184,-0.224,-0.213,-0.1964,-0.1852,-0.1572,-0.1234,-0.101,-0.0673,-0.0336,-0.0,-0.0,-0.0,0.0168,0.0336,0.0561,0.0785,0.1121,0.1511,0.2071,0.2517,0.291,0.3524,0.4135,0.4739,0.5007,0.5332,0.5673,0.5891,0.5996,0.605,0.6268,0.6436,0.649,0.6923,0.7144,0.7074,0.7009,0.7165,0.7396,0.7402,0.7354,0.7198,0.7036,0.6874,0.681,0.6923,0.709,0.7095,0.709,0.7144,0.7139,0.6549,0.6173,0.6173,0.6059,0.5946,0.5681,0.5845,0.59,0.5795,0.5791,0.5786,0.5837,0.595,0.6014,0.59,0.585,0.5677,0.5238,0.5014,0.5171,0.5664,0.5823,0.5828,0.5932,0.6159,0.6327,0.6277,0.6064,0.6114,0.6273,0.649,0.6436,0.6603,0.6756,0.702,0.7289,0.7241,0.6977,0.6923,0.7402,0.767,0.783,0.7568,0.7144,0.7568,0.8037,0.8626,0.8942,0.8679,0.8626,0.9047,0.9309,0.9517,0.9621,0.9577,0.9218,0.8527,0.783,0.7889,0.7943,0.7836,0.7622,-0.2521,-0.224,-0.2354,-0.2352,-0.2184,-0.1964,-0.1853,-0.1685,-0.1234,-0.0954,-0.0785,-0.0336,-0.0,-0.0,-0.0,-0.0,-0.0,0.0673,0.0898,0.1121,0.1514,0.2018,0.2577,0.319,0.3747,0.419,0.4636,0.4912,0.5183,0.5399,0.5563,0.5618,0.5782,0.5946,0.6,0.6445,0.6608,0.6539,0.6303,0.6465,0.6923,0.6874,0.6766,0.6652,0.6436,0.6268,0.6154,0.6209,0.6376,0.6771,0.6707,0.6652,0.6593,0.6337,0.6064,0.6064,0.5905,0.5631,0.5466,0.5576,0.574,0.5681,0.5681,0.5681,0.5563,0.5626,0.5686,0.5466,0.5411,0.5183,0.4904,0.4791,0.4842,0.4842,0.5171,0.5277,0.5281,0.5567,0.5732,0.5736,0.5462,0.5356,0.5462,0.5681,0.5736,0.5841,0.5996,0.6317,0.6485,0.6431,0.6164,0.6327,0.6593,0.681,0.6918,0.6701,0.6332,0.649,0.6966,0.745,0.8103,0.7943,0.7836,0.8256,0.8415,0.8672,0.889,0.8844,0.8415,0.761,0.7241,0.7246,0.7192,0.7139,0.7035,-0.2465,-0.2465,-0.2579,-0.2521,-0.241,-0.2354,-0.2132,-0.1797,-0.1628,-0.129,-0.0954,-0.0729,-0.0505,-0.028,-0.0,-0.0,-0.0,0.0617,0.0897,0.0898,0.101,0.1681,0.2352,0.2796,0.3241,0.3741,0.4076,0.4467,0.4857,0.4963,0.5073,0.5234,0.5293,0.5344,0.5399,0.5791,0.5896,0.5719,0.5605,0.566,0.5941,0.6105,0.5996,0.5891,0.5837,0.5727,0.5555,0.555,0.5773,0.6164,0.6114,0.6009,0.6009,0.5736,0.5572,0.5517,0.5466,0.5411,0.5352,0.5352,0.5352,0.5293,0.5293,0.5234,0.512,0.5297,0.5352,0.5301,0.5301,0.4967,0.4405,0.4239,0.4242,0.4298,0.468,0.4952,0.5011,0.5066,0.5124,0.512,0.5238,0.5242,0.5242,0.5183,0.512,0.5179,0.5395,0.5555,0.5719,0.5832,0.5677,0.5508,0.5614,0.5837,0.5946,0.5732,0.5572,0.5572,0.5891,0.6268,0.6972,0.7413,0.7515,0.7723,0.7396,0.7498,0.7925,0.8143,0.745,0.675,0.6534,0.6485,0.6544,0.6549,0.6437,-0.2352,-0.241,-0.2579,-0.2635,-0.2579,-0.2521,-0.2298,-0.1964,-0.1853,-0.1572,-0.1234,-0.101,-0.0785,-0.0617,-0.0,-0.0,0.0056,0.0617,0.0897,0.0954,0.1178,0.1626,0.2128,0.2404,0.285,0.3294,0.3633,0.4021,0.4411,0.4522,0.4684,0.4846,0.4959,0.5014,0.5014,0.5234,0.5348,0.5171,0.4944,0.4944,0.5344,0.5395,0.534,0.5234,0.5238,0.5179,0.5066,0.5066,0.523,0.5563,0.5736,0.574,0.5576,0.5411,0.5187,0.5018,0.5073,0.5128,0.5132,0.5132,0.5073,0.5014,0.5014,0.4956,0.4956,0.5069,0.5128,0.4963,0.4963,0.4629,0.4132,0.3965,0.391,0.3913,0.4132,0.4405,0.4515,0.4625,0.4736,0.4791,0.4849,0.4963,0.4963,0.4684,0.4574,0.4574,0.4787,0.4897,0.5011,0.5124,0.5128,0.4908,0.4849,0.512,0.5289,0.5128,0.5018,0.4963,0.5018,0.5344,0.6,0.6707,0.6923,0.6918,0.6539,0.6485,0.7074,0.7343,0.6799,0.6263,0.5937,0.5782,0.59,0.5967,0.5836,-0.2184,-0.224,-0.2521,-0.2691,-0.2635,-0.2521,-0.2354,-0.2128,-0.1908,-0.174,-0.1515,-0.1122,-0.101,-0.0898,-0.0785,-0.0617,-0.0112,0.0449,0.0785,0.101,0.129,0.1684,0.1849,0.2183,0.2575,0.2907,0.336,0.3635,0.3913,0.4242,0.4408,0.4463,0.468,0.4791,0.4736,0.4846,0.4901,0.4846,0.4391,0.4391,0.4791,0.4787,0.468,0.4574,0.4574,0.4632,0.4577,0.4632,0.4743,0.4963,0.5462,0.5517,0.5301,0.5242,0.4967,0.4574,0.4629,0.4739,0.4798,0.4849,0.4846,0.4791,0.4791,0.4791,0.4791,0.4791,0.4736,0.4408,0.4411,0.4187,0.3852,0.3741,0.363,0.358,0.3583,0.3691,0.3913,0.4242,0.446,0.4463,0.4463,0.4408,0.4298,0.4135,0.3913,0.391,0.4128,0.4353,0.4463,0.4577,0.447,0.4249,0.4301,0.4405,0.457,0.4629,0.4519,0.4411,0.4411,0.4629,0.5183,0.5782,0.6159,0.6209,0.5882,0.5996,0.6495,0.6431,0.6105,0.5555,0.5062,0.5136,0.5333,0.5373,0.535,-0.2184,-0.224,-0.2579,-0.2635,-0.2577,-0.2521,-0.2352,-0.2071,-0.1959,-0.1794,-0.1628,-0.1459,-0.129,-0.1066,-0.0954,-0.0841,-0.0561,-0.0056,0.0449,0.0898,0.101,0.1403,0.1738,0.2017,0.2296,0.2633,0.297,0.3307,0.3638,0.3747,0.3916,0.4076,0.4132,0.4187,0.4242,0.4467,0.447,0.4245,0.407,0.4015,0.4073,0.4073,0.4018,0.3913,0.3965,0.4018,0.4018,0.4079,0.419,0.4353,0.4739,0.5069,0.4959,0.4794,0.4519,0.4187,0.4132,0.4298,0.4519,0.4519,0.4519,0.4353,0.4353,0.4301,0.4242,0.446,0.4298,0.3968,0.3805,0.3635,0.3352,0.3241,0.3241,0.3188,0.3188,0.319,0.3357,0.3744,0.4076,0.4076,0.3913,0.3805,0.3805,0.3487,0.3373,0.336,0.3535,0.3755,0.3872,0.3996,0.3893,0.3744,0.3597,0.3704,0.4018,0.4021,0.391,0.3837,0.3854,0.3934,0.4495,0.4963,0.5395,0.5445,0.5281,0.5559,0.5891,0.59,0.5681,0.4963,0.433,0.4502,0.468,0.4742,0.4828,-0.2184,-0.224,-0.2465,-0.2579,-0.2465,-0.241,-0.224,-0.2015,-0.2015,-0.1906,-0.1685,-0.1628,-0.1459,-0.1178,-0.1066,-0.0954,-0.0785,-0.028,0.0168,0.0505,0.0729,0.1066,0.1347,0.1738,0.2018,0.2298,0.2635,0.2914,0.3137,0.3302,0.3466,0.3577,0.3691,0.3805,0.3805,0.3971,0.3971,0.3805,0.3633,0.3522,0.3577,0.3519,0.3463,0.3411,0.3466,0.3519,0.3635,0.3688,0.3747,0.391,0.4239,0.457,0.468,0.457,0.4184,0.3685,0.3577,0.3744,0.3968,0.4079,0.4024,0.3916,0.3916,0.386,0.3913,0.4076,0.4021,0.358,0.3304,0.3079,0.274,0.2798,0.2798,0.2685,0.2685,0.2703,0.2788,0.322,0.3574,0.3522,0.3357,0.3193,0.3088,0.2943,0.2872,0.2846,0.3067,0.3297,0.3312,0.3432,0.342,0.3259,0.2936,0.2971,0.3391,0.3466,0.3299,0.3244,0.3314,0.3472,0.3803,0.4263,0.4743,0.4709,0.4741,0.4904,0.5179,0.5187,0.5061,0.4265,0.3854,0.3977,0.4124,0.4264,0.4332,-0.2184,-0.224,-0.241,-0.2465,-0.241,-0.224,-0.2127,-0.1961,-0.1959,-0.1906,-0.1797,-0.1684,-0.1459,-0.129,-0.1122,-0.101,-0.0785,-0.0,-0.0,-0.0,-0.0,0.0897,0.1066,0.1346,0.1626,0.1903,0.224,0.2521,0.2689,0.2854,0.2965,0.3019,0.3302,0.3416,0.3416,0.3471,0.3471,0.336,0.3077,0.3021,0.319,0.3077,0.3021,0.2907,0.3019,0.3077,0.319,0.3246,0.3357,0.3471,0.3747,0.3965,0.4187,0.4298,0.4018,0.3186,0.3074,0.3132,0.3413,0.3471,0.3474,0.3474,0.3471,0.3471,0.3524,0.3633,0.3577,0.3244,0.2854,0.2464,0.2128,0.224,0.2303,0.2201,0.2146,0.2179,0.2337,0.2653,0.2974,0.3035,0.2861,0.2761,0.2649,0.2568,0.2475,0.2433,0.2664,0.2828,0.2851,0.2883,0.2932,0.2907,0.2638,0.255,0.2888,0.3002,0.2801,0.2918,0.2913,0.3003,0.3219,0.3659,0.4079,0.4197,0.4301,0.4442,0.4601,0.4745,0.4406,0.3608,0.3308,0.3437,0.3585,0.3806,0.3778,-0.2184,-0.224,-0.241,-0.241,-0.224,-0.2127,-0.1961,-0.1852,-0.1852,-0.1796,-0.1797,-0.1684,-0.1515,-0.129,-0.1178,-0.101,-0.0785,-0.0,-0.0,-0.0,0.0617,0.0897,0.0954,0.1122,0.129,0.1514,0.1849,0.2128,0.2296,0.2465,0.2464,0.2464,0.2689,0.2856,0.2856,0.2856,0.2914,0.2858,0.2631,0.2577,0.2633,0.2633,0.2519,0.2408,0.2517,0.2631,0.2633,0.2747,0.2802,0.2856,0.3132,0.3244,0.3408,0.358,0.3469,0.3074,0.2631,0.2631,0.2965,0.2912,0.2858,0.2858,0.2856,0.2858,0.2912,0.3077,0.3021,0.2691,0.2357,0.1965,0.1515,0.1754,0.188,0.1847,0.1871,0.1892,0.1998,0.23,0.2617,0.2681,0.2525,0.2323,0.2309,0.2303,0.2193,0.2124,0.2291,0.2399,0.2435,0.2478,0.2528,0.2452,0.2381,0.2402,0.2468,0.2495,0.2405,0.2636,0.2718,0.2586,0.2838,0.319,0.3486,0.3583,0.3659,0.3808,0.4036,0.4305,0.3912,0.3194,0.3049,0.2883,0.3126,0.3367,0.3329,-0.23,-0.2298,-0.2414,-0.2414,-0.2234,-0.2032,-0.1852,-0.1797,-0.1797,-0.1741,-0.1685,-0.1628,-0.1459,-0.129,-0.1122,-0.101,-0.0785,-0.0,-0.0,-0.0,0.0561,0.0897,0.0897,0.0954,0.1066,0.1234,0.1457,0.1681,0.1849,0.1964,0.1962,0.1961,0.2184,0.2352,0.2354,0.2408,0.241,0.241,0.2296,0.2184,0.224,0.2184,0.2071,0.2073,0.2071,0.2127,0.2128,0.2184,0.224,0.2296,0.2519,0.2629,0.2629,0.2631,0.2691,0.2579,0.2352,0.224,0.2462,0.2408,0.2352,0.2352,0.23,0.224,0.2296,0.2406,0.2467,0.2196,0.2076,0.1749,0.1242,0.1414,0.1605,0.1681,0.169,0.1652,0.1684,0.1943,0.2107,0.2327,0.2306,0.2183,0.2197,0.2066,0.1944,0.1929,0.1963,0.2008,0.2053,0.2175,0.2296,0.2131,0.2109,0.2287,0.2266,0.2144,0.2003,0.2203,0.2317,0.2248,0.2423,0.2683,0.2786,0.284,0.2993,0.3162,0.3486,0.3758,0.3308,0.2841,0.2518,0.2387,0.271,0.2841,0.28,-0.2422,-0.2436,-0.2436,-0.2436,-0.2364,-0.2011,-0.1815,-0.1812,-0.1801,-0.1685,-0.1572,-0.1515,-0.1403,-0.1234,-0.1066,-0.0954,-0.0785,-0.0224,-0.0,-0.0,0.0393,0.0673,0.0729,0.0897,0.0954,0.1066,0.1122,0.1178,0.1458,0.1572,0.1515,0.157,0.1737,0.1847,0.1849,0.1905,0.2017,0.2017,0.1959,0.1847,0.1847,0.1736,0.1681,0.1685,0.1681,0.168,0.1736,0.1736,0.1736,0.1792,0.1905,0.2017,0.1961,0.1738,0.175,0.1934,0.1977,0.2023,0.2037,0.1985,0.1884,0.1905,0.1835,0.1774,0.1773,0.1894,0.1874,0.1703,0.171,0.1594,0.1187,0.1179,0.1364,0.137,0.1371,0.1319,0.122,0.1298,0.1501,0.1705,0.188,0.1889,0.1689,0.1751,0.1549,0.1614,0.1656,0.179,0.1843,0.2117,0.2183,0.186,0.1809,0.2143,0.2096,0.1883,0.1717,0.1521,0.164,0.1695,0.1882,0.2122,0.2183,0.2312,0.2343,0.252,0.2931,0.3201,0.2857,0.2463,0.1944,0.1878,0.2268,0.2357,0.2251,-0.2453,-0.2455,-0.2453,-0.2455,-0.2443,-0.2075,-0.1872,-0.1865,-0.171,-0.1629,-0.1579,-0.1293,-0.1182,-0.1122,-0.101,-0.0785,-0.0449,-0.0,-0.0,-0.0,-0.0,-0.0,0.0224,0.0673,0.0785,0.0897,0.0897,0.1066,0.1178,0.129,0.129,0.129,0.1346,0.1402,0.1402,0.1514,0.1459,0.1572,0.1459,0.1402,0.1401,0.1345,0.1346,0.1347,0.1346,0.1401,0.1347,0.1349,0.1352,0.1351,0.1404,0.1402,0.1346,0.1178,0.1046,0.1121,0.1288,0.1477,0.163,0.1581,0.1537,0.156,0.1575,0.1586,0.1568,0.1429,0.1345,0.1071,0.1205,0.1211,0.091,0.1018,0.1075,0.0952,0.0831,0.0713,0.0595,0.0397,0.0599,0.0801,0.0875,0.1016,0.102,0.1083,0.1146,0.1279,0.1346,0.1417,0.1492,0.1639,0.1684,0.1279,0.1309,0.1591,0.156,0.1386,0.1182,0.0904,0.0962,0.1091,0.1363,0.1558,0.1781,0.1856,0.1881,0.2013,0.2402,0.2477,0.2345,0.2029,0.1652,0.1639,0.1814,0.1843,0.1746,-0.2376,-0.2403,-0.2531,-0.2468,-0.2331,-0.2081,-0.1932,-0.1928,-0.1729,-0.1583,-0.1446,-0.127,-0.1143,-0.1013,-0.0954,-0.0841,-0.0617,-0.0224,-0.0,-0.0,-0.0,-0.0,-0.0,0.028,0.0449,0.0617,0.0617,0.0617,0.0785,0.0954,0.1066,0.101,0.1066,0.1066,0.1066,0.1234,0.1346,0.1347,0.1346,0.1234,0.1122,0.1066,0.1067,0.1067,0.1068,0.1069,0.1072,0.1089,0.1095,0.1093,0.1081,0.1066,0.1066,0.0962,0.0877,0.0901,0.1018,0.118,0.1399,0.1394,0.1345,0.1352,0.1299,0.1232,0.1171,0.1044,0.0805,0.0439,0.0514,0.0463,0.0335,0.033,0.0394,0.0395,0.0328,0.0132,-0.0067,-0.0403,-0.0471,-0.0269,-0.0136,-0.0,0.0139,0.0347,0.0419,0.0564,0.0702,0.084,0.0774,0.071,0.0625,0.0539,0.0696,0.1005,0.0742,0.0535,0.0534,0.0307,0.0376,0.0519,0.0808,0.1022,0.1249,0.1469,0.1618,0.1744,0.1921,0.202,0.205,0.1737,0.1349,0.1464,0.1579,0.1338,0.1291,-0.2268,-0.2281,-0.2479,-0.2478,-0.2275,-0.2084,-0.1932,-0.1931,-0.1666,-0.1514,-0.1361,-0.1167,-0.1031,-0.0845,-0.0785,-0.0673,-0.0841,-0.028,-0.0,-0.0,-0.0,-0.0,-0.0,-0.0,0.0112,0.0336,0.0393,0.0449,0.0505,0.0617,0.0785,0.0785,0.0785,0.0785,0.0841,0.0898,0.101,0.101,0.0954,0.0845,0.0738,0.0683,0.0629,0.0632,0.0633,0.0632,0.0635,0.0646,0.0656,0.0653,0.0703,0.0754,0.0754,0.0655,0.0432,0.033,0.0199,0.0393,0.0638,0.0819,0.1005,0.1008,0.0948,0.0701,0.0635,0.0569,0.0255,-0.0265,-0.0267,-0.047,-0.0741,-0.0672,-0.0603,-0.0402,-0.0201,-0.0405,-0.0682,-0.0967,-0.1099,-0.0814,-0.0759,-0.1004,-0.0865,-0.0572,-0.036,-0.022,-0.0073,0.0145,0.0073,-0.0073,-0.0218,-0.0283,-0.0213,0.0074,-0.0076,-0.0234,-0.0314,-0.0235,-0.023,-0.0076,0.0226,0.0452,0.0605,0.0905,0.1129,0.0977,0.0747,0.1296,0.1671,0.0997,0.0506,0.1063,0.12,0.0941,0.0813,-0.2229,-0.2214,-0.2348,-0.2414,-0.2342,-0.1952,-0.1799,-0.1796,-0.1377,-0.1282,-0.1188,-0.1034,-0.0911,-0.079,-0.0454,-0.0453,-0.0844,-0.0281,-0.0,-0.0,-0.0,-0.0,-0.0,-0.0,-0.0,0.0112,0.0224,0.0336,0.0393,0.0393,0.0449,0.0449,0.045,0.0449,0.0393,0.0395,0.0397,0.0341,0.0285,0.0288,0.0233,0.0177,-0.0,-0.0,-0.0061,-0.0061,-0.0,-0.0,-0.0062,-0.0,0.0184,0.0245,0.0185,0.0127,-0.0198,-0.0468,-0.0741,-0.0601,-0.033,-0.0065,-0.0,0.0066,0.0067,-0.0,-0.0,-0.06,-0.0942,-0.0873,-0.0807,-0.1211,-0.1682,-0.2022,-0.1568,-0.1221,-0.0886,-0.1029,-0.1258,-0.1515,-0.1573,-0.1246,-0.1263,-0.1535,-0.1653,-0.1344,-0.0963,-0.0828,-0.0906,-0.0673,-0.0518,-0.0595,-0.0909,-0.105,-0.1104,-0.105,-0.1085,-0.1179,-0.1179,-0.1022,-0.0855,-0.0621,-0.0389,-0.0233,-0.0077,-0.0,0.0156,-0.0078,-0.0234,0.0226,0.0367,-0.0147,-0.0295,0.0147,0.0293,-0.0,0.0076,-0.2066,-0.2018,-0.1951,-0.1951,-0.2085,-0.1795,-0.1655,-0.1651,-0.1374,-0.1218,-0.1057,-0.0968,-0.0893,-0.0714,-0.0298,-0.0119,-0.0298,-0.0179,-0.0,-0.0,-0.0,-0.0,-0.0,-0.0,-0.0,-0.0,-0.0,-0.0,0.0168,-0.0,-0.0,0.0172,-0.0,0.0168,0.0056,-0.023,-0.0408,-0.0415,-0.0357,-0.024,-0.0241,-0.0243,-0.0488,-0.0739,-0.0679,-0.0741,-0.0742,-0.0692,-0.0696,-0.0701,-0.0516,-0.0453,-0.0389,-0.0533,-0.0806,-0.1144,-0.1414,-0.1414,-0.1078,-0.0866,-0.0801,-0.1003,-0.1008,-0.0876,-0.0674,-0.0944,-0.1078,-0.1076,-0.1143,-0.1547,-0.2023,-0.2218,-0.2051,-0.1739,-0.1592,-0.1603,-0.1857,-0.207,-0.2009,-0.1659,-0.1747,-0.1871,-0.2067,-0.2105,-0.1778,-0.1386,-0.154,-0.1538,-0.1218,-0.1135,-0.1384,-0.1473,-0.1447,-0.1441,-0.1486,-0.1729,-0.1969,-0.1736,-0.1422,-0.1189,-0.0954,-0.0943,-0.0862,-0.0794,-0.0804,-0.0967,-0.0959,-0.0704,-0.0694,-0.0841,-0.0919,-0.0846,-0.0846,-0.0924,-0.0699,-0.1816,-0.1816,-0.1614,-0.1681,-0.1748,-0.1614,-0.1547,-0.148,-0.1344,-0.1061,-0.0838,-0.0877,-0.0864,-0.0741,-0.0308,0.0185,0.0184,0.0123,0.0123,-0.0,-0.0,0.0183,-0.0,-0.0,-0.0,-0.0,-0.0,-0.0,-0.0,-0.0,-0.0,-0.0,-0.0,-0.0,-0.0466,-0.0767,-0.1089,-0.1044,-0.0864,-0.0684,-0.0686,-0.0688,-0.0758,-0.1016,-0.102,-0.1084,-0.1089,-0.1102,-0.1109,-0.1182,-0.1128,-0.1141,-0.1076,-0.1077,-0.1143,-0.1412,-0.1615,-0.1818,-0.1548,-0.1346,-0.1346,-0.1412,-0.1479,-0.1346,-0.128,-0.128,-0.1347,-0.148,-0.148,-0.1693,-0.233,-0.249,-0.2525,-0.2273,-0.1976,-0.199,-0.2277,-0.2501,-0.2348,-0.2103,-0.2208,-0.2375,-0.2313,-0.2433,-0.2189,-0.1865,-0.1711,-0.1713,-0.1632,-0.155,-0.1791,-0.1801,-0.1638,-0.164,-0.1649,-0.2082,-0.2361,-0.2196,-0.1952,-0.1701,-0.1536,-0.1521,-0.1522,-0.1467,-0.1566,-0.1742,-0.1647,-0.1377,-0.1275,-0.1256,-0.126,-0.1264,-0.1528,-0.1526,-0.1346,-0.1614,-0.1614,-0.1479,-0.1479,-0.1547,-0.1479,-0.1412,-0.1345,-0.1212,-0.093,-0.0648,-0.0756,-0.0747,-0.0623,-0.0,0.0376,0.0626,0.0312,0.025,0.0501,0.0754,0.0559,-0.0,-0.0,-0.0,-0.0,-0.0,-0.0,-0.0,-0.0,-0.0,-0.0,-0.0,-0.043,-0.0986,-0.1048,-0.1112,-0.1114,-0.1057,-0.1012,-0.1027,-0.1032,-0.1044,-0.1122,-0.1192,-0.1255,-0.1324,-0.1326,-0.1399,-0.147,-0.1473,-0.1345,-0.1211,-0.1278,-0.1412,-0.1681,-0.169,-0.1758,-0.162,-0.1618,-0.1695,-0.1772,-0.1783,-0.1768,-0.1621,-0.162,-0.1715,-0.1953,-0.2211,-0.2452,-0.2787,-0.2992,-0.2931,-0.2774,-0.2395,-0.2347,-0.2652,-0.2998,-0.2844,-0.2536,-0.2718,-0.282,-0.274,-0.2668,-0.2588,-0.235,-0.2041,-0.1964,-0.1887,-0.2142,-0.2386,-0.2413,-0.2251,-0.2042,-0.2138,-0.2476,-0.2689,-0.2602,-0.2418,-0.2233,-0.2067,-0.2063,-0.2074,-0.2096,-0.2106,-0.22,-0.2111,-0.2101,-0.1996,-0.1977,-0.1614,-0.1619,-0.19,-0.2008,-0.19,-0.1412,-0.148,-0.128,-0.1212,-0.128,-0.1213,-0.1078,-0.0876,-0.1011,-0.1006,-0.0798,-0.0525,-0.0,0.0393,0.0523,0.0718,0.0654,0.0917,0.0852,0.085,0.1043,0.0969,0.0704,0.0444,0.0252,-0.0,-0.0,-0.0,-0.0,-0.0,-0.0,-0.0,-0.0387,-0.0842,-0.1024,-0.1084,-0.109,-0.111,-0.1115,-0.1118,-0.1126,-0.1194,-0.1199,-0.1212,-0.1345,-0.1412,-0.1479,-0.1547,-0.1614,-0.1681,-0.1681,-0.1614,-0.1547,-0.1614,-0.1952,-0.2245,-0.2411,-0.2555,-0.2555,-0.2556,-0.2413,-0.227,-0.2187,-0.2155,-0.2037,-0.2029,-0.2225,-0.2505,-0.287,-0.3218,-0.351,-0.352,-0.344,-0.3018,-0.2786,-0.2825,-0.3037,-0.3354,-0.3433,-0.3042,-0.2981,-0.3061,-0.3059,-0.3141,-0.3062,-0.2999,-0.2768,-0.2439,-0.2358,-0.2816,-0.3097,-0.3155,-0.3074,-0.2643,-0.2552,-0.3022,-0.3202,-0.3125,-0.2986,-0.2759,-0.2683,-0.2541,-0.2554,-0.2569,-0.2578,-0.2585,-0.2679,-0.2689,-0.2788,-0.2679,-0.2456,-0.2166,-0.2188,-0.2397,-0.2416,-0.1268,-0.1279,-0.1146,-0.108,-0.108,-0.108,-0.0809,-0.0405,-0.0337,-0.0337,-0.0269,-0.0,0.0404,0.0876,0.108,0.1012,0.0742,0.0944,0.1077,0.1078,0.1077,0.1063,0.0987,0.0851,0.0651,0.0383,0.0318,-0.0,-0.0,-0.0,-0.0,-0.0,-0.0601,-0.0863,-0.1052,-0.1118,-0.1122,-0.1069,-0.1069,-0.1136,-0.114,-0.1275,-0.1343,-0.1412,-0.1547,-0.1614,-0.1681,-0.1748,-0.1816,-0.1884,-0.1951,-0.2018,-0.2018,-0.2087,-0.2446,-0.2853,-0.2983,-0.3067,-0.3083,-0.3167,-0.3099,-0.306,-0.295,-0.2727,-0.2518,-0.2502,-0.2751,-0.3064,-0.3519,-0.3759,-0.3988,-0.3997,-0.382,-0.3459,-0.3319,-0.3363,-0.3602,-0.3919,-0.3841,-0.3528,-0.3528,-0.3528,-0.3459,-0.3538,-0.362,-0.3565,-0.3506,-0.3171,-0.2847,-0.3159,-0.3582,-0.3748,-0.369,-0.3253,-0.3252,-0.354,-0.3715,-0.3669,-0.3423,-0.3162,-0.31,-0.2963,-0.3054,-0.3146,-0.3155,-0.3171,-0.3201,-0.3306,-0.3374,-0.3462,-0.3537,-0.314,-0.2674,-0.2782,-0.2912,-0.1052,-0.1076,-0.1011,-0.0945,-0.1012,-0.0877,-0.054,0.0067,0.0674,0.0945,0.1012,0.027,0.054,0.1012,0.1079,0.1079,0.1079,0.1079,0.1078,0.1076,0.1076,0.1073,0.1074,0.1072,0.0932,0.1004,0.0936,-0.0,-0.0,-0.0,-0.0,-0.0,-0.0,-0.0739,-0.1006,-0.1072,-0.1073,-0.1076,-0.1143,-0.121,-0.1277,-0.1344,-0.1479,-0.1614,-0.1681,-0.1816,-0.1951,-0.2085,-0.2221,-0.2357,-0.2493,-0.2424,-0.2356,-0.2221,-0.2785,-0.3166,-0.322,-0.3333,-0.3464,-0.363,-0.3812,-0.3762,-0.3452,-0.3163,-0.3004,-0.3097,-0.333,-0.3635,-0.4077,-0.4231,-0.4307,-0.4384,-0.4384,-0.4135,-0.3904,-0.3995,-0.4229,-0.4307,-0.4153,-0.4075,-0.4231,-0.4238,-0.4191,-0.4196,-0.4346,-0.4123,-0.3987,-0.3647,-0.3403,-0.3357,-0.3796,-0.4193,-0.4116,-0.3903,-0.3938,-0.4078,-0.4098,-0.4034,-0.3855,-0.3615,-0.3558,-0.3467,-0.3548,-0.3636,-0.3659,-0.3676,-0.3676,-0.3765,-0.376,-0.3942,-0.4032,-0.3751,-0.3161,-0.3353,-0.3479,-0.1039,-0.0983,-0.0,0.0472,0.0472,0.0472,0.0472,0.0405,0.0607,0.0809,0.108,0.0877,0.0877,0.1079,0.1078,0.1144,0.1076,0.1076,0.1076,0.1076,0.1143,0.1144,0.1076,0.1077,0.1076,0.1077,0.1078,0.0944,-0.0,-0.0,-0.0,-0.0,-0.0,-0.0674,-0.0944,-0.1078,-0.1077,-0.1144,-0.121,-0.1277,-0.1412,-0.1547,-0.1681,-0.1816,-0.2018,-0.2155,-0.2296,-0.2429,-0.2563,-0.2632,-0.2744,-0.2682,-0.2621,-0.2563,-0.2982,-0.3938,-0.4027,-0.4006,-0.4085,-0.4183,-0.4274,-0.4375,-0.4081,-0.3853,-0.3685,-0.3677,-0.393,-0.4206,-0.447,-0.4623,-0.4776,-0.4776,-0.4776,-0.4543,-0.4387,-0.4387,-0.4628,-0.4744,-0.4666,-0.4594,-0.4749,-0.4755,-0.4708,-0.5083,-0.5157,-0.4829,-0.4495,-0.4235,-0.3985,-0.394,-0.4002,-0.4412,-0.4448,-0.4224,-0.4328,-0.4465,-0.4474,-0.4482,-0.4212,-0.4032,-0.4022,-0.4018,-0.4117,-0.4121,-0.4121,-0.4121,-0.4121,-0.4121,-0.4121,-0.421,-0.421,-0.3944,-0.3765,-0.3944,-0.3942,-0.0691,-0.0573,0.0393,0.1001,0.1212,0.1347,0.1213,0.0943,0.0809,0.0944,0.1212,0.1212,0.128,0.1347,0.1345,0.1344,0.1344,0.1143,0.1076,0.1143,0.1277,0.121,0.1143,0.1143,0.1143,0.1144,0.1077,0.1078,0.0877,-0.0,-0.0,-0.0,-0.0337,-0.0674,-0.0944,-0.1077,-0.1143,-0.121,-0.1277,-0.1344,-0.1614,-0.1816,-0.1951,-0.2155,-0.2359,-0.2504,-0.2597,-0.2732,-0.2879,-0.2973,-0.3043,-0.3037,-0.3151,-0.3333,-0.3693,-0.4585,-0.4486,-0.4471,-0.4593,-0.4686,-0.4771,-0.4854,-0.4851,-0.4691,-0.4375,-0.4208,-0.4448,-0.4781,-0.4862,-0.5018,-0.5171,-0.5249,-0.5087,-0.4932,-0.4854,-0.4776,-0.498,-0.5274,-0.5212,-0.5143,-0.5143,-0.5143,-0.5311,-0.5728,-0.5832,-0.5472,-0.5238,-0.5013,-0.4815,-0.4552,-0.4601,-0.4796,-0.4732,-0.4636,-0.4746,-0.4837,-0.4839,-0.475,-0.4391,-0.43,-0.4387,-0.4476,-0.4478,-0.4567,-0.4565,-0.4565,-0.448,-0.43,-0.43,-0.4478,-0.4656,-0.4569,-0.4391,-0.421,-0.4121,-0.0,-0.0,0.0446,0.0983,0.1404,0.1679,0.1681,0.1614,0.128,0.1212,0.1412,0.1412,0.1481,0.1547,0.1614,0.1614,0.1479,0.1277,0.121,0.1143,0.1547,0.1547,0.1412,0.1277,0.121,0.1143,0.1076,0.1077,0.0877,-0.0,-0.0,-0.0,-0.0337,-0.0674,-0.1012,-0.1077,-0.121,-0.1344,-0.1412,-0.1547,-0.1883,-0.2085,-0.2291,-0.2435,-0.258,-0.2799,-0.2858,-0.3032,-0.3266,-0.346,-0.3499,-0.3497,-0.3786,-0.4382,-0.4804,-0.4913,-0.483,-0.4988,-0.5074,-0.5162,-0.5323,-0.5404,-0.5562,-0.5326,-0.4935,-0.4623,-0.4781,-0.5249,-0.5485,-0.5562,-0.564,-0.5643,-0.5565,-0.5448,-0.532,-0.5345,-0.5479,-0.5696,-0.5647,-0.5589,-0.5717,-0.5715,-0.5803,-0.6141,-0.6375,-0.6025,-0.5779,-0.5667,-0.5486,-0.5182,-0.5207,-0.5176,-0.5006,-0.5013,-0.5104,-0.5196,-0.5282,-0.5104,-0.4748,-0.4567,-0.4743,-0.4746,-0.4837,-0.4835,-0.4921,-0.4926,-0.4837,-0.4656,-0.4656,-0.4924,-0.5104,-0.5285,-0.5015,-0.4656,-0.4389,0.0651,0.0719,0.1138,0.1426,0.1502,0.16,0.1614,0.1614,0.1548,0.1548,0.1547,0.1681,0.1681,0.1681,0.1816,0.1748,0.1681,0.1613,0.1479,0.1614,0.1883,0.1951,0.1816,0.1547,0.1344,0.1143,0.1076,0.1076,0.0944,-0.0,-0.0,-0.0,-0.0337,-0.0674,-0.1079,-0.1076,-0.121,-0.1479,-0.1681,-0.1883,-0.2085,-0.2297,-0.244,-0.2681,-0.2917,-0.3163,-0.3287,-0.3536,-0.3761,-0.3935,-0.4013,-0.4077,-0.4234,-0.4993,-0.5251,-0.5096,-0.5246,-0.5392,-0.5553,-0.5643,-0.5736,-0.5655,-0.5652,-0.5565,-0.5326,-0.5015,-0.5093,-0.5637,-0.5951,-0.6028,-0.6136,-0.6142,-0.6081,-0.5991,-0.5901,-0.5956,-0.6006,-0.6046,-0.6093,-0.6241,-0.6307,-0.6314,-0.6304,-0.6465,-0.6702,-0.6665,-0.6395,-0.6151,-0.5974,-0.5772,-0.5764,-0.5719,-0.5366,-0.5371,-0.5463,-0.5552,-0.5552,-0.5552,-0.5285,-0.5193,-0.501,-0.5013,-0.5015,-0.5193,-0.5193,-0.5196,-0.5196,-0.5013,-0.5102,-0.5371,-0.5463,-0.5466,-0.5374,-0.5013,-0.4837,0.075,0.093,0.1543,0.1785,0.1811,0.1993,0.2083,0.2083,0.2083,0.2083,0.2016,0.195,0.1884,0.1951,0.2018,0.2084,0.2017,0.1949,0.188,0.2016,0.2085,0.2153,0.2018,0.1883,0.1547,0.1344,0.1143,0.1076,0.1012,-0.0,-0.0,-0.0,-0.0337,-0.0674,-0.1011,-0.1144,-0.1277,-0.1614,-0.1951,-0.2223,-0.243,-0.252,-0.2753,-0.3008,-0.3335,-0.3532,-0.3814,-0.4004,-0.4177,-0.443,-0.4584,-0.4928,-0.5217,-0.5712,-0.5796,-0.5715,-0.5786,-0.5935,-0.6038,-0.6155,-0.6192,-0.6202,-0.6354,-0.6478,-0.6032,-0.5712,-0.5789,-0.6257,-0.618,-0.6183,-0.6701,-0.6844,-0.6848,-0.6735,-0.6743,-0.6736,-0.6749,-0.6679,-0.6763,-0.6946,-0.6907,-0.674,-0.6734,-0.674,-0.6953,-0.6953,-0.6697,-0.6517,-0.6257,-0.6171,-0.626,-0.6171,-0.5905,-0.5727,-0.5819,-0.5819,-0.5644,-0.5733,-0.5733,-0.5641,-0.5371,-0.528,-0.5282,-0.546,-0.5549,-0.5463,-0.5374,-0.528,-0.5371,-0.5552,-0.5644,-0.5644,-0.5463,-0.5369,-0.5282,0.0674,0.1019,0.1744,0.2065,0.2186,0.252,0.2686,0.2686,0.2686,0.2686,0.2619,0.2218,0.222,0.2356,0.2423,0.2555,0.2554,0.2351,0.2281,0.2283,0.2354,0.2288,0.2221,0.2153,0.1816,0.1479,0.1277,0.1144,0.108,0.0607,0.027,-0.0,-0.0337,-0.0742,-0.1012,-0.1144,-0.1277,-0.1681,-0.2087,-0.2565,-0.2727,-0.2832,-0.3147,-0.3401,-0.3754,-0.3997,-0.422,-0.4422,-0.4617,-0.4873,-0.506,-0.5389,-0.5712,-0.6032,-0.6183,-0.6187,-0.6421,-0.6499,-0.6599,-0.6849,-0.6965,-0.7101,-0.7312,-0.7174,-0.6702,-0.657,-0.6652,-0.6785,-0.6709,-0.6857,-0.7316,-0.7503,-0.7507,-0.7416,-0.7436,-0.7439,-0.7432,-0.7336,-0.7436,-0.7552,-0.7471,-0.7309,-0.7132,-0.7139,-0.7231,-0.7143,-0.6966,-0.6789,-0.6612,-0.6612,-0.6612,-0.6612,-0.6523,-0.6349,-0.626,-0.6083,-0.5908,-0.5997,-0.6086,-0.5908,-0.5819,-0.5638,-0.5638,-0.5819,-0.5911,-0.5819,-0.5733,-0.5641,-0.5733,-0.5733,-0.5905,-0.5905,-0.5905,-0.5813,-0.5816,0.0954,0.1298,0.2044,0.229,0.2257,0.2564,0.2686,0.2686,0.2686,0.2686,0.2753,0.2686,0.2619,0.2621,0.2621,0.2686,0.2755,0.2619,0.2619,0.2619,0.2757,0.2557,0.2356,0.2221,0.1951,0.1614,0.1345,0.1212,0.1079,0.0674,0.0337,-0.0,-0.0337,-0.0674,-0.1011,-0.1145,-0.128,-0.1755,-0.2306,-0.2792,-0.2913,-0.3091,-0.3405,-0.3759,-0.4075,-0.4329,-0.456,-0.474,-0.4988,-0.5234,-0.5401,-0.564,-0.5873,-0.6264,-0.6416,-0.6631,-0.6871,-0.7365,-0.7504,-0.7531,-0.7652,-0.7569,-0.767,-0.77,-0.739,-0.7301,-0.7541,-0.7974,-0.7985,-0.7989,-0.8307,-0.8307,-0.8307,-0.7897,-0.7759,-0.7824,-0.7854,-0.7763,-0.7804,-0.8017,-0.8113,-0.776,-0.7316,-0.7408,-0.7764,-0.7676,-0.7503,-0.7234,-0.6966,-0.6962,-0.7054,-0.7054,-0.7054,-0.67,-0.6432,-0.6432,-0.6343,-0.6346,-0.6346,-0.626,-0.6083,-0.5902,-0.5991,-0.6083,-0.6174,-0.6174,-0.6086,-0.5908,-0.5997,-0.6083,-0.6166,-0.6251,-0.6254,-0.6166,-0.608]},{"header":{"parameterUnit":"m.s-1","parameterCategory":1,"la1":31.0,"la2":29.5877,"lo1":-88.7671,"lo2":-86.6584,"dy":0.0162,"dx":0.0185,"nx":115,"ny":88,"refTime":"2023-06-23T12:00:00:Z","depth":0,"parameterNumber":3,"parameterNumberName":"V-component_of_WINDS"},"data":[0.0,0.0,0.0,0.0,0.0,0.0,0.0,0.0,0.0,0.0,0.0,0.0,0.0,0.0,0.0,0.0,0.0,0.0,0.0,0.0,0.0,0.0,0.0,0.0,0.0,0.0,0.0,0.0,0.0,0.0,0.0,0.0,0.0,0.0,0.0,0.0,0.0,0.0,0.0,0.0,0.0,0.0,0.0,0.0,0.0,0.0,0.0,0.0,0.0,0.0,0.0,0.0,0.0,0.0,0.0,0.0,0.0,0.0,0.0,0.0,0.0,0.0,0.0,0.0,0.0,0.0,0.0,0.0,0.0,0.0,0.0,0.0,0.0,0.0,0.0,0.0,0.0,0.0,0.0,0.0,0.0,0.0,0.0,0.0,0.0,0.0,0.0,0.0,0.0,0.0,0.0,0.0,0.0,0.0,0.0,0.0,0.0,0.0,0.0,0.0,0.0,0.0,0.0,0.0,0.0,0.0,0.0,0.0,0.0,0.0,0.0,0.0,0.0,0.0,0.0,0.0,0.0,0.0,0.0,0.0,0.0,0.0,0.0,0.0,0.0,0.0,0.0,0.0,0.0,0.0,0.0,0.0,0.0,0.0,0.0,0.0,0.0,0.0,0.0,0.0,0.0,0.0,0.0,0.0,0.0,0.0,0.0,0.0,0.0,0.0,0.0,0.0,0.0,0.0,0.0,0.0,0.0,0.0,0.0,0.0,0.0,0.0,0.0,0.0,0.0,0.0,0.0,0.0,0.0,0.0,0.0,0.0,0.0,0.0,0.0,0.0,0.0,0.0,0.0,0.0,0.0,0.0,0.0,0.0,0.0,0.0,0.0,0.0,0.0,0.0,0.0,0.0,0.0,0.0,0.0,0.0,0.0,0.0,0.0,0.0,0.0,0.0,0.0,0.0,0.0,0.0,0.0,0.0,0.0,0.0,0.0,0.0,0.0,0.0,0.0,0.0,0.0,0.0,0.0,0.0,0.0,0.0,0.0,0.0,0.0,0.0,0.0,0.0,0.0,0.0,0.0,0.0,0.0,0.0,0.0,0.0,0.0,0.0,0.0,0.0,0.0,0.0,0.0,0.0,0.0,0.0,0.0,0.0,0.0,0.0,0.0,0.0,0.0,0.0,0.0,0.0,0.0,0.0,0.0,0.0,0.0,0.0,0.0,0.0,0.0,0.0,0.0,0.0,0.0,0.0,0.0,0.0,0.0,0.0,0.0,0.0,0.0,0.0,0.0,0.0,0.0,0.0,0.0,0.0,0.0,0.0,0.0,0.0,0.0,0.0,0.0,0.0,0.0,0.0,0.0,0.0,0.0,0.0,0.0,0.0,0.0,0.0,0.0,0.0,0.0,0.0,0.0,0.0,0.0,0.0,0.0,0.0,0.0,0.0,0.0,0.0,0.0,0.0,0.0,0.0,0.0,0.0,0.0,0.0,0.0,0.0,0.0,0.0,0.0,0.0,0.0,0.0,0.0,0.0,0.0,0.0,0.0,0.0,0.0,0.0,0.0,0.0,0.0,0.0,0.0,0.0,0.0,0.0,0.0,0.0,0.0,0.0,0.0,0.0,0.0,0.0,0.0,0.0,0.0,0.0,0.0,0.0,0.0,0.0,0.0,0.0,0.0,0.0,0.0,0.0,0.0,0.0,0.0,0.0,0.0,0.0,0.0,0.0,0.0,0.0,0.0,0.0,0.0,0.0,0.0,0.0,0.0,0.0,0.0,0.0,0.0,0.0,0.0,0.0,0.0,0.0,0.0,0.0,0.0,0.0,0.0,0.0,0.0,0.0,0.0,0.0,0.0,0.0,0.0,0.0,0.0,0.0,0.0,0.0,0.0,0.0,0.0,0.0,0.0,0.0,0.0,0.0,0.0,0.0,0.0,0.0,0.0,0.0,0.0,0.0,0.0,0.0,0.0,0.0,0.0,0.0,0.0,0.0,0.0,0.0,0.0,0.0,0.0,0.0,0.0,0.0,0.0,0.0,0.0,0.0,0.0,0.0,0.0,0.0,0.0,0.0,0.0,0.0,0.0,0.0,0.0,0.0,0.0,0.0,0.0,0.0,0.0,0.0,0.0,0.0,0.0,0.0,0.0,0.0,0.0,0.0,0.0,0.0,0.0,0.0,0.0,0.0,0.0,0.0,0.0,0.0,0.0,0.0,0.0,0.0,0.0,0.0,0.0,0.0,0.0,0.0,0.0,0.0,0.0,0.0,0.0,0.0,0.0,0.0,0.0,0.0,0.0,0.0,0.0,0.0,0.0,0.0,0.0,0.0,0.0,0.0,0.0,0.0,0.0,0.0,0.0,0.0,0.0,0.0,0.0,0.0,0.0,0.0,0.0,0.0,0.0,0.0,0.0,0.0,0.0,0.0,0.0,0.0,0.0,0.0,0.0,0.0,0.0,0.0,0.0,0.0,0.0,0.0,0.0,0.0,0.0,0.0,0.0,0.0,0.0,0.0,0.0,0.0,0.0,0.0,0.0,0.0,0.0,0.0,0.0,0.0,0.0,0.0,0.0,0.0,0.0,0.0,0.0,0.0,0.0,0.0,0.0,0.0,0.0,0.0,0.0,0.0,0.0,0.0,0.0,0.0,0.0,0.0,0.0,0.0,0.0,0.0,0.0,0.0,0.0,0.0,0.0,0.0,0.0,0.0,0.0,0.0,0.0,0.0,0.0,0.0,0.0,0.0,0.0,0.0,0.0,0.0,0.0,0.0,0.0,0.0,0.0,0.0,0.0,0.0,0.0,0.0,0.0,0.0,0.0,0.0,0.0,0.0,0.0,0.0,0.0,0.0,0.0,0.0,0.0,0.0,0.0,0.0,0.0,0.0,0.0,0.0,0.0,0.0,0.0,0.0,0.0,0.0,0.0,0.0,0.0,0.0,0.0,0.0,0.0,0.0,0.0,0.0,0.0,0.0,0.0,0.0,0.0,0.0,0.0,0.0,0.0,0.0,0.0,0.0,0.0,0.0,0.0,0.0,0.0,0.0,0.0,0.0,0.0,0.0,0.0,0.0,0.0,0.0,0.0,0.0,0.0,0.0,0.0,0.0,0.0,0.0,0.0,0.0,0.0,0.0,0.0,0.0,0.0,0.0,0.0,0.0,0.0,0.0,0.0,0.0,0.0,0.0,0.0,0.0,0.0,0.0,0.0,0.0,0.0,0.0,0.0,0.0,0.0,0.0,0.0,0.0,0.0,0.0,0.0,0.0,0.0,0.0,0.0,0.0,0.0,0.0,0.0,0.0,0.0,0.0,0.0,0.0,0.0,0.0,0.0,0.0,0.0,0.0,0.0,0.0,0.0,0.0,0.0,0.0,0.0,0.0,0.0,0.0,0.0,0.0,0.0,0.0,0.0,0.0,0.0,0.0,0.0,0.0,0.0,0.0,0.0,0.0,0.0,0.0,0.0,0.0,0.0,0.0,0.0,0.0,0.0,0.0,0.0,0.0,0.0,0.0,0.0,0.0,0.0,0.0,0.0,0.0,0.0,0.0,0.0,0.0,0.0,0.0,0.0,0.0,0.0,0.0,0.0,0.0,0.0,0.0,0.0,0.0,0.0,0.0,0.0,0.0,0.0,0.0,0.0,0.0,0.0,0.0,0.0,0.0,0.0,0.0,0.0,0.0,0.0,0.0,0.0,0.0,0.0,0.0,0.0,0.0,0.0,0.0,0.0,0.0,0.0,0.0,0.0,0.0,0.0,0.0,0.0,0.0,0.0,0.0,0.0,0.0,0.0,0.0,0.0,0.0,0.0,0.0,0.0,0.0,0.0,0.0,0.0,0.0,0.0,0.0,0.0,0.0,0.0,0.0,0.0,0.0,0.0,0.0,0.0,0.0,0.0,0.0,0.0,0.0,0.0,0.0,0.0,0.0,0.0,0.0,0.0,0.0,0.0,0.0,0.0,0.0,0.0,0.0,0.0,0.0,0.0,0.0,0.0,0.0,0.0,0.0,0.0,0.0,0.0,0.0,0.0,0.0,0.0,0.0,0.0,0.0,0.0,0.0,0.0,0.0,0.0,0.0,0.0,0.0,0.0,0.0,0.0,0.0,0.0,0.0,0.0,0.0,0.0,0.0,0.0,0.0,0.0,0.0,0.0,0.0,0.0,0.0,0.0,0.0,0.0,0.0,0.0,0.0,0.0,0.0,0.0,0.0,0.0,0.0,0.0,0.0,0.0,0.0,0.0,0.0,0.0,0.0,0.0,0.0,0.0,0.0,0.0,0.0,0.0,0.0,0.0,0.0,0.0,0.0,0.0,0.0,0.0,0.0,0.3613,0.0,0.0,0.0,0.0,0.0,0.0,0.0,0.0,0.0,0.0,0.0,0.0,0.0,0.0,0.0,0.0,0.0,0.0,0.0,0.0,0.0,0.0,0.0,0.0,0.0,0.0,0.0,0.0,0.0,0.0,0.0,0.0,0.0,0.0,0.0,0.0,0.0,0.0,0.0,0.0,0.0,0.0,0.0,0.0,0.0,0.0,0.0,0.0,0.0,0.0,0.0,0.0,0.0,0.0,0.0,0.0,0.0,0.0,0.0,0.0,0.0,0.0,0.0,0.0,0.0,0.0,0.0,0.0,0.0,0.0,0.0,0.0,0.0,0.0,0.0,0.0,0.0,0.0,0.0,0.0,0.0,0.0,0.0,0.0,0.0,0.0,0.0,0.0,0.0,0.0,0.0,0.0,0.0,0.0,0.0,0.0,0.0,0.0,0.0,0.0,0.0,0.0,0.0,0.0,0.0,0.0,0.0,0.0,0.0,0.0,0.0755,0.1294,0.1792,0.2435,0.317,0.0,0.0,0.0,0.0,0.0,0.0,0.0,0.0,0.0,0.0,0.0,0.0,0.0,0.0,0.0,0.0,0.0,0.0,0.0,0.0,0.0,0.0,0.0,0.0,0.0,0.0,0.0,0.0,0.0,0.0,0.0,0.0,0.0,0.0,0.0,0.0,0.0,0.0,0.0,0.0,0.0,0.0,0.0,0.0,0.0,0.0,0.0,0.0,0.0,0.0,0.0,0.0,0.0,0.0,0.0,0.0,0.0,0.0,0.0,0.0,0.0,0.0,0.0,0.0,0.0,0.0,0.0,0.0,0.0,0.0,0.0,0.0,0.0,0.0,0.0,0.0,0.0,0.0,0.0,0.0,0.0,0.0,0.0,0.0,0.0,0.0,0.0,0.0,0.0,0.0,0.0,0.0,0.0,0.0,0.0,0.0,0.0,0.0,0.0,0.0,0.0,0.0,0.0,0.0,0.0,0.0,0.0,0.0,0.0,0.0,0.0,0.0,0.1656,0.2212,0.2816,0.0,0.0,0.0,0.0,0.0,0.0,0.0,0.0,0.0,0.0,0.0,0.0,0.0,0.0,0.0,0.0,0.0,0.0,0.0,0.0,0.0,0.0,0.0,0.0,0.0,0.0,0.0,0.0,0.0,0.0,0.0,0.0,0.0,0.0,0.0,0.0,0.0,0.0,0.0,0.0,0.0,0.0,0.0,0.0,0.0,0.0,0.0,0.0,0.0,0.0,0.0,0.0,0.0,0.0,0.0,0.0,0.0,0.0,0.0,0.0,0.0,0.0,0.0,0.0,0.0,0.0,0.0,0.0,0.0,0.0,0.0,0.0,0.0,0.0,0.0,0.0,0.0,0.0,0.0,0.0,0.0,0.0,0.0,0.0,0.0,0.0,0.0,0.0,0.0,0.0,0.0,0.0,0.0,0.0,0.0,0.0,0.0,0.0,0.0,0.0,0.0,0.0,0.0,0.0,0.0,0.0,0.0,0.0,0.0,0.0,0.0734,0.1016,0.1585,0.0,0.2969,0.0,0.0,0.0,0.0,0.0,0.0,0.0,0.0,0.0,0.0,0.0,0.0,0.0,0.0,0.0,0.0,0.0,0.0,0.0,0.0,0.0,0.0,0.0,0.0,0.0,0.0,0.0,0.0,0.0,0.0,0.0,0.0,0.0,0.0,0.0,0.0,0.0,0.0,0.0,0.0,0.0,0.0,0.0,0.0,0.0,0.0,0.0,0.0,0.0,0.0,0.0,0.0,0.0,0.0,0.0,0.0,0.0,0.0,0.0,0.0,0.0,0.0,0.0,0.0,0.0,0.0,0.0,0.0,0.0,0.0,0.0,0.0,0.0,0.0,0.0,0.0,0.0,0.0,0.0,0.0,0.0,0.0,0.0,0.0,0.0,0.0,0.0,0.0,0.0,0.0,0.0,0.0,0.0,0.0,0.0,0.0,0.0,0.0,0.0,0.0,0.0,0.0,0.0,0.0,0.0,0.0,0.0,0.0,0.0,0.0,0.0723,0.1005,0.1622,0.201,0.0,0.0,0.0,0.0,0.0,0.0,0.0,0.0,0.0,0.0,0.0,0.0,0.0,0.0,0.0,0.0,0.0,0.0,0.0,0.0,0.0,0.0,0.0,0.0,0.0,0.0,0.0,0.0,0.0,0.0,0.0,0.0,0.0,0.0,0.0,0.0,0.0,0.0,0.0,0.0,0.0,0.0,0.0,0.0,0.0,0.0,0.0,0.0,0.0,0.0,0.0,0.0,0.0,0.0,0.0,0.0,0.0,0.0,0.0,0.0,0.0,0.0,0.0,0.0,0.0,0.0,0.0,0.0,0.0,0.0,0.0,0.0,0.0,0.0,0.0,0.0,0.0,0.0,0.0,0.0,0.0,0.0,0.0,0.0,0.0,0.0,0.0,0.0,0.0,0.0,0.0,0.0,0.0,0.0,0.0,0.0,0.0,0.0,0.0,0.0,0.0,0.0,0.0,0.0,0.0,0.0,0.0,0.0,0.0,0.0,0.049,0.0796,0.1169,0.1735,0.1823,0.1418,0.0,0.0,0.0,0.0,0.0,0.0,0.0,0.0,0.0,0.0,0.0,0.0,0.0,0.0,0.0,0.0,0.0,0.0,0.0,0.0,0.0,0.0,0.0,0.0,0.0,0.0,0.0,0.0,0.0,0.0,0.0,0.0,0.0,0.0,0.0,0.0,0.0,0.0,0.0,0.0,0.0,0.0,0.0,0.0,0.0,0.0,0.0,0.0,0.0,0.0,0.0,0.0,0.0,0.0,0.0,0.0,0.0,0.0,0.0,0.0,0.0,0.0,0.0,0.0,0.0,0.0,0.0,0.0,0.0,0.0,0.0,0.0,0.0,0.0,0.0,0.0,0.0,0.0,0.0,0.0,0.0,0.0,0.0,0.0,0.0,0.0,0.0,0.0,0.0,0.0,0.0,0.0,0.0,0.0,0.0,0.0,0.0,0.0,0.0,0.0,0.0,0.0,0.0,0.0,0.0,0.0,0.0,0.0,0.0289,0.0548,0.0984,0.154,0.1916,0.1961,0.0,0.0,0.0,0.0,0.0,0.0,0.0,0.0,0.0,0.0,0.0,0.0,0.0,0.0,0.0,0.0,0.0,0.0,0.0,0.0,0.0,0.0,0.0,0.0,0.0,0.0,0.0,0.0,0.0,0.0,0.0,0.0,0.0,0.0,0.0,0.0,0.0,0.0,0.0,0.0,0.0,0.0,0.0,0.0,0.0,0.0,0.0,0.0,0.0,0.0,0.0,0.0,0.0,0.0,0.0,0.0,0.0,0.0,0.0,0.0,0.0,0.0,0.0,0.0,0.0,0.0,0.0,0.0,0.0,0.0,0.0,0.0,0.0,0.0,0.0,0.0,0.0,0.0,0.0,0.0,0.0,0.0,0.0,0.0,0.0,0.0,0.0,0.0,0.0,0.0,0.0,0.0,0.0,0.0,0.0,0.0,0.0,0.0,0.0,0.0,0.0,0.0,0.0,0.0,0.0,0.0,0.0,0.0,0.0,0.0358,0.0749,0.111,0.1399,0.1729,0.183,0.0,0.0,0.0,0.0,0.0,0.0,0.0,0.0,0.0,0.0,0.0,0.0,0.0,0.0,0.0,0.0,0.0,0.0,0.0,0.0,0.0,0.0,0.0,0.0,0.0,0.0,0.0,0.0,0.0,0.0,0.0,0.0,0.0,0.0,0.0,0.0,0.0,0.0,0.0,0.0,0.0,0.0,0.0,0.0,0.0,0.0,0.0,0.0,0.0,0.0,0.0,0.0,0.0,0.0,0.0,0.0,0.0,0.0,0.0,0.0,0.0,0.0,0.0,0.0,0.0,0.0,0.0,0.0,0.0,0.0,0.0,0.0,0.0,0.0,0.0,0.0,0.0,0.0,0.0,0.0,0.0,0.0,0.0,0.0,0.0,0.0,0.0,0.0,0.0,0.0,0.0,0.0,0.0,0.0,0.0,0.0,0.0,0.0,0.0,0.0,0.0,0.0,0.0,0.0,0.0,0.0,0.0,0.0,0.0,0.0457,0.0,0.1173,0.1275,0.1639,0.1754,0.0,0.0,0.0,0.0,0.0,0.0,0.0,0.0,0.0,0.0,0.0,0.0,0.0,0.0,0.0,0.0,0.0,0.0,0.0,0.0,0.0,0.0,0.0,0.0,0.0,0.0,0.0,0.0,0.0,0.0,0.0,0.0,0.0,0.0,0.0,0.0,0.0,0.0,0.0,0.0,0.0,0.0,0.0,0.0,0.0,0.0,0.0,0.0,0.0,0.0,0.0,0.0,0.0,0.0,0.0,0.0,0.0,0.0,0.0,0.0,0.0,0.0,0.0,0.0,0.0,0.0,0.0,0.0,0.0,0.0,0.0,0.0,0.0,0.0,0.0,0.0,0.0,0.0,0.0,0.0,0.0,0.0,0.0,0.0,0.0,0.0,0.0,0.0,0.0,0.0,0.0,0.0,0.0,0.0,0.0,0.0,0.0,0.0,0.0,0.0,0.0,0.0,0.0,0.0,0.0,0.0,0.0,0.0,-0.0017,0.0573,0.0999,0.1182,0.1216,0.1645,0.1759,0.0,0.0,0.0,0.0,0.0,0.0,0.0,0.0,0.0,0.0,0.0,0.0,0.0,0.0,0.0,0.0,0.0,0.0,0.0,0.0,0.0,0.0,0.0,0.0,0.0,0.0,0.0,0.0,0.0,0.0,0.0,0.0,0.0,0.0,0.0,0.0,0.0,0.0,0.0,0.0,0.0,0.0,0.0,0.0,0.0,0.0,0.0,0.0,0.0,0.0,0.0,0.0,0.0,0.0,0.0,0.0,0.0,0.0,0.0,0.0,0.0,0.0,0.0,0.0,0.0,0.0,0.0,0.0,0.0,0.0,0.0,0.0,0.0,0.0,0.0,0.0,0.0,0.0,0.0,0.0,0.0,0.0,0.0,0.0,0.0,0.0,0.0,0.0,0.0,0.0,0.0,0.0,0.0,0.0,0.0,0.0,0.0,0.0,0.0,0.0,0.0,0.0,0.0,0.0,0.0,0.0,0.0,0.0,0.0,0.0374,0.0742,0.1019,0.1201,0.1477,0.1592,0.0,0.0,0.0,0.0,0.0,0.0,0.0,0.0,0.0,0.0,0.0,0.0,0.0,0.0,0.0,0.0,0.0,0.0,0.0,0.0,0.0,0.0,0.0,0.0,0.0,0.0,0.0,0.0,0.0,0.0,0.0,0.0,0.0,0.0,0.0,0.0,0.0,0.0,0.0,0.0,0.0,0.0,0.0,0.0,0.0,0.0,0.0,0.0,0.0,0.0,0.0,0.0,0.0,0.0,0.0,0.0,0.0,0.0,0.0,0.0,0.0,0.0,0.0,0.0,0.0,0.0,0.0,0.0,0.0,0.0,0.0,0.0,0.0,0.0,0.0,0.0,0.0,0.0,0.0,0.0,0.0,0.0,0.0,0.0,0.0,0.0,0.0,0.0,0.0,0.0,0.0,0.0,0.0,0.0,0.0,0.0,0.0,0.0,0.0,0.0,0.0,0.0,0.0,0.0,0.0,0.0,0.0,0.0,0.0,-0.0222,0.0335,0.0746,0.1043,0.124,0.1347,0.1395,0.0,0.0,0.0,0.0,0.0,0.0,0.0,0.0,0.0,0.0,0.0,0.0,0.0,0.0,0.0,0.0,0.0,0.0,0.0,0.0,0.0,0.0,0.0,0.0,0.0,0.0,0.0,0.0,0.0,0.0,0.0,0.0,0.0,0.0,0.0,0.0,0.0,0.0,0.0,0.0,0.0,0.0,0.0,0.0,0.0,0.0,0.0,0.0,0.0,0.0,0.0,0.0,0.0,0.0,0.0,0.0,0.0,0.0,0.0,0.0,0.0,0.0,0.0,0.0,0.0,0.0,0.0,0.0,0.0,0.0,0.0,0.0,0.0,0.0,0.0,0.0,0.0,0.0,0.0,0.0,0.0,0.0,0.0,0.0,0.0,0.0,0.0,0.0,0.0,0.0,0.0,0.0,0.0,0.0,0.0,0.0,0.0,0.0,0.0,0.0,0.0,0.0,0.0,0.0,0.0,0.0,0.0,0.0,-0.1176,-0.0294,0.0341,0.0702,0.0926,0.1095,0.0,0.0,0.0,0.0,0.0,0.0,0.0,0.0,0.0,0.0,0.0,0.0,0.0,0.0,0.0,0.0,0.0,0.0,0.0,0.0,0.0,0.0,0.0,0.0,0.0,0.0,0.0,0.0,0.0,0.0,0.0,0.0,0.0,0.0,0.0,0.0,0.0,0.0,0.0,0.0,0.0,0.0,0.0,0.0,0.0,0.0,0.0,0.0,0.0,0.0,0.0,0.0,0.0,0.0,0.0,0.0,0.0,0.0,0.0,0.0,0.0,0.0,0.0,0.0,0.0,0.0,0.0,0.0,0.0,0.0,0.0,0.0,0.0,0.0,0.0,0.0,0.0,0.0,0.0,0.0,0.0,0.0,0.0,0.0,0.0,0.0,0.0,0.0,0.0,0.0,0.0,0.0,0.0,0.0,0.0,0.0,0.0,0.0,0.0,0.0,0.0,0.0,0.0,0.0,0.0,0.0,0.0,0.0,0.0,-0.1842,-0.1605,-0.1023,-0.0121,0.024,0.0558,0.0,0.0,0.0,0.0,0.0,0.0,0.0,0.0,0.0,0.0,0.0,0.0,0.0,0.0,0.0,0.0,0.0,0.0,0.0,0.0,0.0,0.0,0.0,0.0,0.0,0.0,0.0,0.0,0.0,0.0,0.0,0.0,0.0,0.0,0.0,0.0,0.0,0.0,0.0,0.0,0.0,0.0,0.0,0.0,0.0,0.0,0.0,0.0,0.0,0.0,0.0,0.0,0.0,0.0,0.0,0.0,0.0,0.0,0.0,0.0,0.0,0.0,0.0,0.0,0.0,0.0,0.0,0.0,0.0,0.0,0.0,0.0,0.0,0.0,0.0,0.0,0.0,0.0,0.0,0.0,0.0,0.0,0.0,0.0,0.0,0.0,0.0,0.0,0.0,0.0,0.0,0.0,0.0,0.0,0.0,0.0,0.0,0.0,0.0,0.0,0.0,0.0,0.0,0.0,0.0,0.0,0.0,0.0,-0.2742,-0.2781,-0.2691,-0.2384,-0.1719,-0.0805,-0.0133,0.0,0.0,0.0,0.0,0.0,0.0,0.0,0.0,0.0,0.0,0.0,0.0,0.0,0.0,0.0,0.0,0.0,0.0,0.0,0.0,0.0,0.0,0.0,0.0,0.0,0.0,0.0,0.0,0.0,0.0,0.0,0.0,0.0,0.0,0.0,0.0,0.0,0.0,0.0,0.0,0.0,0.0,0.0,0.0,0.0,0.0,0.0,0.0,0.0,0.0,0.0,0.0,0.0,0.0,0.0,0.0,0.0,0.0,0.0,0.0,0.0,0.0,0.0,0.0,0.0,0.0,0.0,0.0,0.0,0.0,0.0,0.0,0.0,0.0,0.0,0.0,0.0,0.0,0.0,0.0,0.0,0.0,0.0,0.0,0.0,0.0,0.0,0.0,0.0,0.0,0.0,0.0,0.0,0.0,0.0,0.0,0.0,0.0,0.0,0.0,0.0,0.0,0.0,0.0,0.0,0.0,0.0,0.0,-0.3405,-0.3822,-0.3711,-0.3626,-0.3622,-0.2069,-0.0967,0.0,0.0,0.0,0.0,0.0,0.0,0.0,0.0,0.0,0.0,0.0,0.0,0.0,0.0,0.0,0.0,0.0,0.0,0.0,0.0,0.0,0.0,0.0,0.0,0.0,0.0,0.0,0.0,0.0,0.0,0.0,0.0,0.0,0.0,0.0,0.0,0.0,0.0,0.0,0.0,0.0,0.0,0.0,0.0,0.0,0.0,0.0,0.0,0.0,0.0,0.0,0.0,0.0,0.0,0.0,0.0,0.0,0.0,0.0,0.0,0.0,0.0,0.0,0.0,0.0,0.0,0.0,0.0,0.0,0.0,0.0,0.0,0.0,0.0,0.0,0.0,0.0,0.0,0.0,0.0,0.0,0.0,0.0,0.0,0.0,0.0,0.0,0.0,0.0,0.0,0.0,0.0,0.0,0.0,0.0,0.0,0.0,0.0,0.0,0.0,0.0,0.0,0.0,0.0,0.0,0.0,0.0,0.0,-0.4179,-0.4626,-0.4685,-0.4667,-0.4667,-0.3205,-0.2173,0.0,0.0,0.0,0.0,0.0,0.0,0.0,0.0,0.0,0.0,0.0,0.0,0.0,0.0,0.0,0.0,0.0,0.0,0.0,0.0,0.0,0.0,0.0,0.0,0.0,0.0,0.0,0.0,0.0,0.0,0.0,0.0,0.0,0.0,0.0,0.0,0.0,0.0,0.0,0.0,0.0,0.0,0.0,0.0,0.0,0.0,0.0,0.0,-0.5084,0.0,0.0,0.0,0.0,0.0,0.0,0.0,0.0,0.0,0.0,0.0,0.0,0.0,0.0,0.0,0.0,0.0,0.0,0.0,0.0,0.0,0.0,0.0,0.0,0.0,0.0,0.0,0.0,0.0,0.0,0.0,0.0,0.0,0.0,0.0,0.0,0.0,0.0,0.0,0.0,0.0,0.0,0.0,0.0,0.0,0.0,0.0,0.0,0.0,0.0,0.0,0.0,0.0,0.0,0.0,0.0,0.0,0.0,0.0,-0.4923,-0.5494,-0.5607,-0.5666,-0.5614,-0.4841,-0.3806,0.0,0.0,0.0,0.0,0.0,0.0,0.0,0.0,0.0,0.0,0.0,0.0,0.0,0.0,0.0,0.0,0.0,0.0,0.0,0.0,0.0,0.0,0.0,0.0,0.0,0.0,0.0,0.0,0.0,0.0,0.0,0.0,0.0,0.0,0.0,0.0,0.0,0.0,0.0,0.0,0.0,0.0,0.0,0.0,0.0,0.0,0.0,0.0,0.0,0.0,0.0,0.0,0.0,0.0,0.0,0.0,0.0,0.0,0.0,0.0,0.0,0.0,0.0,0.0,0.0,0.0,0.0,0.0,0.0,0.0,0.0,0.0,0.0,0.0,0.0,0.0,0.0,0.0,0.0,0.0,0.0,0.0,0.0,0.0,0.0,0.0,0.0,0.0,0.0,0.0,0.0,0.0,0.0,0.0,0.0,0.0,0.0,0.0,0.0,0.0,0.0,0.0,0.0,0.0,0.0,0.0,0.0,-0.5298,-0.5647,-0.631,-0.6504,-0.6552,-0.6562,-0.6455,-0.5477,-0.3598,0.0,0.0,0.0,0.0,0.0,0.0,0.0,0.0,0.0,0.0,0.0,0.0,0.0,0.0,0.0,0.0,0.0,0.0,0.0,0.0,0.0,0.0,0.0,0.0,0.0,0.0,0.0,0.0,0.0,0.0,0.0,0.0,0.0,0.0,0.0,0.0,0.0,0.0,-0.6468,-0.6482,0.0,0.0,0.0,0.0,0.0,0.0,0.0,0.0,-0.534,0.0,0.0,0.0,0.0,0.0,0.0,0.0,0.0,0.0,0.0,0.0,0.0,0.0,0.0,0.0,0.0,0.0,0.0,0.0,0.0,0.0,0.0,0.0,0.0,0.0,0.0,0.0,0.0,0.0,0.0,0.0,0.0,0.0,0.0,0.0,0.0,0.0,0.0,0.0,0.0,0.0,0.0,0.0,0.0,0.0,0.0,0.0,0.0,0.0,0.0,0.0,0.0,0.0,0.0,0.0,0.0,-0.5924,-0.5929,-0.6261,-0.6852,-0.7215,-0.7375,-0.7254,-0.7331,-0.6718,-0.531,0.0,0.0,0.0,0.0,0.0,0.0,0.0,0.0,0.0,0.0,0.0,0.0,0.0,0.0,0.0,0.0,0.0,0.0,0.0,0.0,0.0,0.0,0.0,0.0,0.0,0.0,0.0,0.0,0.0,0.0,0.0,0.0,0.0,0.0,0.0,0.0,0.0,0.0,0.0,-0.6751,-0.6651,0.0,0.0,0.0,0.0,0.0,0.0,0.0,0.0,-0.5967,0.0,0.0,0.0,0.0,0.0,0.0,0.0,0.0,0.0,0.0,0.0,0.0,0.0,0.0,0.0,0.0,0.0,0.0,0.0,0.0,0.0,0.0,0.0,0.0,0.0,0.0,0.0,0.0,0.0,0.0,0.0,0.0,0.0,0.0,0.0,0.0,0.0,0.0,0.0,0.0,0.0,0.0,0.0,0.0,0.0,0.0,0.0,0.0,0.0,0.0,0.0,0.0,0.0,0.0,0.0,-0.6322,-0.6389,-0.6727,-0.7284,-0.7697,-0.7864,-0.7868,-0.7997,-0.7531,0.0,0.0,0.0,0.0,0.0,0.0,0.0,0.0,0.0,0.0,0.0,0.0,0.0,0.0,0.0,0.0,0.0,0.0,0.0,0.0,0.0,0.0,0.0,0.0,0.0,0.0,0.0,0.0,0.0,0.0,0.0,0.0,0.0,0.0,0.0,0.0,0.0,0.0,0.0,0.0,-0.7121,-0.7089,-0.6715,0.0,0.0,0.0,0.0,0.0,0.0,-0.5592,-0.6029,0.0,0.0,0.0,0.0,0.0,0.0,0.0,0.0,0.0,0.0,0.0,0.0,0.0,0.0,0.0,0.0,0.0,0.0,0.0,0.0,0.0,0.0,0.0,0.0,0.0,0.0,0.0,0.0,0.0,0.0,0.0,0.0,0.0,0.0,0.0,0.0,0.0,0.0,0.0,0.0,0.0,0.0,0.0,0.0,0.0,0.0,0.0,0.0,0.0,0.0,0.0,0.0,0.0,0.0,0.0,-0.6733,-0.692,-0.7302,-0.7852,-0.8277,-0.851,-0.8544,-0.871,-0.8265,0.0,0.0,0.0,0.0,0.0,0.0,0.0,0.0,0.0,0.0,0.0,0.0,0.0,0.0,0.0,0.0,0.0,0.0,0.0,0.0,0.0,0.0,0.0,0.0,0.0,0.0,0.0,0.0,0.0,0.0,0.0,0.0,0.0,0.0,0.0,0.0,0.0,0.0,0.0,0.0,0.0,-0.7469,-0.7078,-0.7281,0.0,0.0,0.0,0.0,-0.5787,-0.5975,0.0,0.0,0.0,0.0,0.0,0.0,0.0,0.0,0.0,0.0,0.0,0.0,0.0,0.0,0.0,0.0,0.0,0.0,0.0,0.0,0.0,0.0,0.0,0.0,0.0,0.0,0.0,0.0,0.0,0.0,0.0,0.0,0.0,0.0,0.0,0.0,0.0,0.0,0.0,0.0,0.0,0.0,0.0,0.0,0.0,0.0,0.0,0.0,0.0,0.0,0.0,0.0,0.0,0.0,0.0,0.0,-0.7487,-0.7656,-0.8063,-0.8651,-0.9293,-0.957,-0.9445,-0.9698,-0.9258,0.0,0.0,0.0,0.0,0.0,0.0,0.0,0.0,0.0,0.0,0.0,0.0,0.0,0.0,0.0,0.0,0.0,0.0,0.0,0.0,0.0,0.0,0.0,0.0,0.0,0.0,0.0,0.0,0.0,0.0,0.0,0.0,0.0,0.0,0.0,0.0,0.0,0.0,0.0,0.0,0.0,-0.7721,-0.7766,-0.7509,-0.7449,0.0,0.0,-0.6765,-0.7083,-0.733,0.0,0.0,0.0,0.0,0.0,0.0,0.0,0.0,0.0,0.0,0.0,0.0,0.0,0.0,0.0,0.0,0.0,0.0,0.0,0.0,0.0,0.0,0.0,0.0,0.0,0.0,0.0,0.0,0.0,0.0,0.0,0.0,0.0,0.0,0.0,0.0,0.0,0.0,0.0,0.0,0.0,0.0,0.0,0.0,0.0,0.0,0.0,0.0,0.0,0.0,0.0,0.0,0.0,0.0,0.0,-0.8198,-0.8136,-0.8083,-0.8484,-0.9252,-0.9845,-1.0138,-1.0154,-1.0454,-1.003,0.0,0.0,0.0,0.0,0.0,0.0,0.0,0.0,0.0,0.0,0.0,0.0,0.0,0.0,0.0,0.0,0.0,0.0,0.0,0.0,0.0,0.0,0.0,0.0,0.0,0.0,0.0,0.0,0.0,0.0,0.0,0.0,0.0,0.0,0.0,0.0,0.0,0.0,0.0,0.0,0.0,0.0,-0.7912,-0.792,0.0,0.0,0.0,-0.7455,-0.7543,0.0,0.0,0.0,0.0,0.0,0.0,0.0,0.0,0.0,0.0,0.0,0.0,0.0,0.0,0.0,0.0,0.0,0.0,0.0,0.0,0.0,0.0,0.0,0.0,0.0,0.0,0.0,0.0,0.0,0.0,0.0,0.0,0.0,0.0,0.0,0.0,0.0,0.0,0.0,0.0,0.0,0.0,0.0,0.0,0.0,0.0,0.0,0.0,0.0,0.0,0.0,0.0,0.0,0.0,0.0,0.0,0.0,-0.8795,-0.8721,-0.9139,-1.0049,-1.0623,-1.0988,-1.1219,-1.1407,0.0,0.0,0.0,0.0,0.0,0.0,0.0,0.0,0.0,0.0,0.0,0.0,0.0,0.0,0.0,0.0,0.0,0.0,0.0,0.0,0.0,0.0,0.0,0.0,0.0,0.0,0.0,-0.8088,0.0,0.0,0.0,0.0,0.0,0.0,0.0,0.0,0.0,0.0,0.0,0.0,0.0,0.0,-0.8451,-0.8196,-0.8314,-0.8201,0.0,0.0,-0.7821,-0.7712,-0.7802,-0.8242,0.0,0.0,0.0,0.0,0.0,0.0,0.0,0.0,0.0,0.0,0.0,0.0,0.0,0.0,0.0,0.0,0.0,0.0,0.0,0.0,0.0,0.0,0.0,0.0,0.0,0.0,0.0,0.0,0.0,0.0,0.0,0.0,0.0,0.0,0.0,0.0,0.0,0.0,0.0,0.0,0.0,0.0,0.0,0.0,0.0,0.0,0.0,0.0,0.0,0.0,0.0,0.0,0.0,0.0,0.0,-0.9533,-0.9903,-1.0452,-1.1273,-1.1926,-1.2454,-1.29,-1.2893,-1.2472,0.0,0.0,0.0,0.0,0.0,0.0,0.0,0.0,0.0,0.0,0.0,0.0,0.0,0.0,0.0,0.0,0.0,0.0,0.0,0.0,0.0,0.0,0.0,0.0,0.0,0.0,0.0,0.0,0.0,0.0,0.0,0.0,0.0,0.0,0.0,0.0,0.0,0.0,0.0,0.0,0.0,-0.8945,-0.8927,-0.8699,-0.8349,0.0,0.0,-0.7496,-0.767,-0.8085,-0.8732,-0.9783,0.0,0.0,0.0,0.0,0.0,0.0,0.0,0.0,0.0,0.0,0.0,0.0,0.0,0.0,0.0,0.0,0.0,0.0,0.0,0.0,0.0,0.0,0.0,0.0,0.0,0.0,0.0,0.0,0.0,0.0,0.0,0.0,0.0,0.0,0.0,0.0,0.0,0.0,0.0,0.0,0.0,0.0,0.0,0.0,0.0,0.0,0.0,0.0,0.0,0.0,0.0,0.0,0.0,-1.0246,-1.0148,-1.0221,-1.0773,-1.1846,-1.258,-1.3264,-1.3947,-1.4315,-1.4066,0.0,0.0,0.0,0.0,0.0,0.0,0.0,0.0,0.0,0.0,0.0,0.0,0.0,0.0,0.0,0.0,0.0,0.0,0.0,0.0,0.0,0.0,0.0,0.0,0.0,0.0,0.0,0.0,-0.8937,-0.8976,-0.8916,0.0,0.0,0.0,0.0,0.0,0.0,0.0,0.0,0.0,0.0,-0.915,-0.9004,-0.8814,0.0,0.0,-0.7855,-0.7321,-0.7821,-0.8406,-0.9024,-0.9713,-1.0293,0.0,0.0,0.0,0.0,0.0,0.0,0.0,0.0,0.0,0.0,0.0,0.0,0.0,0.0,0.0,0.0,0.0,0.0,0.0,0.0,0.0,0.0,0.0,0.0,0.0,0.0,0.0,0.0,0.0,0.0,0.0,0.0,0.0,0.0,0.0,0.0,0.0,0.0,0.0,0.0,0.0,0.0,0.0,0.0,0.0,0.0,0.0,0.0,0.0,0.0,0.0,0.0,-1.0695,-1.0766,-1.0846,-1.1416,-1.2589,-1.3433,-1.4282,-1.5199,-1.5845,-1.5775,0.0,0.0,0.0,0.0,0.0,0.0,0.0,0.0,0.0,0.0,0.0,0.0,0.0,0.0,0.0,0.0,0.0,0.0,0.0,0.0,0.0,0.0,0.0,0.0,0.0,0.0,0.0,0.0,-0.9769,-0.9614,-0.9321,0.0,0.0,0.0,0.0,0.0,0.0,0.0,0.0,0.0,0.0,-0.9563,-0.9332,-0.9177,-0.9199,-0.9628,-0.8723,-0.8113,-0.8504,-0.9128,-0.9734,-1.0176,0.0,0.0,0.0,0.0,0.0,0.0,0.0,0.0,0.0,0.0,0.0,0.0,0.0,0.0,0.0,0.0,0.0,0.0,0.0,0.0,0.0,0.0,0.0,0.0,0.0,0.0,0.0,0.0,0.0,0.0,-0.8273,0.0,0.0,0.0,0.0,0.0,0.0,0.0,0.0,0.0,0.0,0.0,0.0,0.0,0.0,0.0,0.0,0.0,0.0,0.0,0.0,0.0,0.0,-1.1523,-1.1421,-1.1893,-1.2638,-1.3558,-1.4607,-1.5692,-1.6818,-1.7394,-1.7604,-1.7454,0.0,0.0,0.0,0.0,0.0,0.0,0.0,0.0,0.0,0.0,0.0,0.0,0.0,0.0,0.0,0.0,0.0,0.0,0.0,0.0,0.0,0.0,0.0,0.0,0.0,0.0,-1.1402,-1.0953,-1.0401,0.0,0.0,0.0,0.0,0.0,0.0,0.0,0.0,0.0,0.0,-1.0485,-1.0293,-1.0118,-0.9785,-0.9855,-1.0552,-1.0389,-1.007,-0.9971,-1.0448,-1.0995,0.0,0.0,0.0,0.0,0.0,0.0,0.0,0.0,0.0,0.0,0.0,0.0,0.0,0.0,0.0,0.0,0.0,0.0,0.0,0.0,0.0,0.0,0.0,0.0,0.0,0.0,0.0,-0.9424,-0.9335,0.0,0.0,0.0,0.0,0.0,0.0,0.0,0.0,0.0,0.0,0.0,-1.0103,-1.0554,0.0,0.0,0.0,0.0,0.0,0.0,0.0,0.0,0.0,0.0,0.0,0.0,-1.2157,-1.2138,-1.2731,-1.3496,-1.4332,-1.5428,-1.6541,-1.7733,-1.8687,-1.8781,-1.7964,0.0,0.0,0.0,0.0,0.0,0.0,0.0,0.0,0.0,0.0,0.0,0.0,0.0,0.0,0.0,0.0,0.0,0.0,0.0,0.0,0.0,0.0,0.0,0.0,0.0,-1.269,0.0,0.0,0.0,0.0,0.0,0.0,0.0,0.0,0.0,0.0,0.0,-1.0754,-1.1311,-1.1255,-1.1067,-1.0926,-1.0534,-1.0534,0.0,0.0,0.0,0.0,0.0,0.0,0.0,0.0,0.0,0.0,0.0,0.0,0.0,0.0,-1.5197,-1.3912,-1.3741,-1.4023,-1.4781,0.0,0.0,0.0,0.0,0.0,0.0,0.0,0.0,0.0,0.0,0.0,0.0,0.0,0.0,-1.0113,0.0,-1.0244,0.0,0.0,0.0,0.0,0.0,0.0,0.0,0.0,-1.1248,-1.156,-1.2211,-1.2497,-1.2732,0.0,-1.2884,-1.2581,0.0,0.0,0.0,0.0,0.0,0.0,0.0,0.0,-1.2754,-1.2804,-1.3507,-1.4246,-1.5038,-1.62,-1.7397,-1.8612,-1.9955,-2.0162,-1.9174,-1.7973,-1.636,0.0,0.0,0.0,0.0,0.0,0.0,0.0,0.0,0.0,0.0,0.0,0.0,0.0,0.0,0.0,0.0,0.0,0.0,0.0,0.0,0.0,0.0,0.0,-1.361,0.0,0.0,0.0,0.0,0.0,0.0,0.0,0.0,0.0,-0.953,-1.0672,-1.1726,-1.2069,-1.1811,-1.1579,-1.1415,0.0,0.0,0.0,0.0,0.0,0.0,0.0,-1.2186,-1.2449,-1.2484,-1.2873,-1.4027,-1.3847,-1.3853,-1.4609,0.0,0.0,-1.4572,-1.4389,-1.4693,-1.5673,-1.5931,-1.5957,-1.5875,-1.5941,-1.6159,0.0,0.0,0.0,0.0,0.0,0.0,0.0,0.0,-0.8945,-0.9392,0.0,-1.0038,0.0,0.0,0.0,0.0,0.0,-1.2254,0.0,0.0,-1.3374,-1.3813,-1.4522,-1.4389,-1.4413,-1.4584,-1.4413,-1.4403,-1.4461,-1.2824,0.0,0.0,0.0,0.0,0.0,0.0,-1.3358,-1.3372,-1.4238,-1.5028,-1.5736,-1.6918,-1.8201,-1.9557,-2.1144,-2.1697,-2.1113,-2.039,-1.8946,-1.6607,-1.4278,0.0,0.0,0.0,0.0,0.0,0.0,0.0,0.0,0.0,0.0,0.0,0.0,0.0,0.0,0.0,0.0,0.0,0.0,0.0,0.0,-1.3799,0.0,0.0,0.0,0.0,0.0,0.0,0.0,0.0,0.0,0.0,-1.0411,-1.169,-1.2838,-1.2709,0.0,0.0,0.0,0.0,-1.1844,-1.1943,-1.2222,-1.233,-1.215,-1.2113,-1.2136,-1.2192,0.0,0.0,-1.444,-1.4476,-1.4373,-1.4749,-1.4952,-1.5139,-1.5402,-1.5464,-1.5685,-1.6245,-1.6532,-1.6437,-1.5556,-1.5655,-1.5915,0.3036,0.0,0.0,0.0,0.0,-0.7896,-0.8725,-0.9578,-0.9971,-1.0571,-1.1266,-1.1847,0.0,0.0,0.0,0.0,0.0,0.0,-1.5487,-1.6135,-1.5957,-1.6007,-1.627,-1.6436,-1.6542,-1.658,-1.6405,-1.6335,-1.631,-1.5395,-1.4462,-1.3577,0.0,0.0,0.0,0.0,-1.4295,-1.4213,-1.5355,-1.6193,-1.6629,-1.7706,-1.9192,-2.1098,-2.1978,-2.2203,-2.1731,-2.13,-2.0034,-1.7738,-1.6035,0.0,0.0,0.0,0.0,0.0,0.0,0.0,0.0,0.0,0.0,0.0,0.0,0.0,0.0,0.0,0.0,0.0,0.0,0.0,-1.4771,-1.5049,-1.489,0.0,0.0,0.0,0.0,0.0,0.0,0.0,0.0,0.0,-1.2823,-1.2785,-1.2838,0.0,0.0,-1.2437,-1.2222,-1.2233,-1.2336,-1.2658,-1.266,0.0,-1.233,-1.2186,-1.2495,-1.3582,-1.3411,-1.3281,-1.3611,-1.4189,-1.4652,-1.4586,-1.4413,-1.4505,-1.5104,-1.5781,-1.6019,-1.5664,-1.5736,-1.5903,-1.5872,-1.609,-1.6337,0.4485,0.1223,-0.0839,-0.3112,-0.5457,-0.6783,-0.8056,-0.9266,-1.0094,-1.0909,-1.1707,-1.2699,-1.3528,-1.4348,-1.5626,0.0,0.0,0.0,-1.7773,-1.8408,-1.8089,-1.8037,-1.8263,-1.8287,-1.8332,-1.8346,-1.8164,-1.8068,-1.8107,-1.7446,-1.6719,-1.5866,0.0,0.0,-1.3914,-1.4829,-1.5202,-1.5133,-1.6344,-1.719,-1.753,-1.8821,-2.0307,-2.1852,-2.2485,-2.274,-2.2587,-2.2329,-2.1167,-1.9085,-1.8085,-1.6581,0.0,0.0,0.0,0.0,0.0,0.0,0.0,0.0,0.0,0.0,0.0,-0.9831,0.0,0.0,0.0,0.0,-1.3149,-1.4977,-1.68,-1.6214,0.0,0.0,0.0,0.0,0.0,0.0,0.0,-1.3913,-1.4345,-1.4897,-1.5327,-1.4549,-1.38,-1.341,-1.3336,-1.3225,-1.2939,0.0,-1.2562,-1.3092,-1.3435,-1.347,-1.2945,-1.2415,-1.2496,-1.3609,-1.3621,-1.342,-1.3334,-1.381,-1.414,-1.4197,-1.4093,-1.4161,-1.4616,-1.5232,-1.5591,-1.5074,-1.5119,-1.5379,-1.5876,-1.6207,-1.6436,0.389,0.2189,0.0668,-0.1346,-0.3541,-0.542,-0.7146,-0.8707,-0.9823,-1.0893,-1.194,-1.3098,-1.4362,-1.5734,-1.7462,0.0,-1.9288,-1.9318,-1.9638,-2.0207,-1.986,-1.9939,-2.0304,-1.9969,-1.9864,-1.9914,-1.9656,-1.9591,-1.9682,-1.9026,-1.8725,-1.868,-1.6809,-1.5436,-1.4753,-1.5613,-1.6039,-1.5991,-1.7242,-1.808,-1.8447,-2.0112,-2.1366,-2.2096,-2.2747,-2.3217,-2.3476,-2.3295,-2.2334,-2.0463,-2.0142,-1.8864,-1.6212,0.0,0.0,0.0,0.0,0.0,0.0,0.0,0.0,0.0,0.0,0.0,0.0,0.0,0.0,0.0,-1.4059,0.0,-1.8611,-1.743,0.0,0.0,0.0,-1.666,-1.7279,-1.6761,-1.6163,-1.5639,0.0,0.0,-1.7702,-1.6597,-1.5389,-1.4569,-1.4269,-1.4021,-1.3744,-1.303,-1.2735,-1.3331,-1.4334,-1.4663,-1.3678,-1.2873,-1.2542,-1.3107,-1.3142,-1.3286,-1.3392,-1.3324,-1.342,-1.3763,-1.3926,-1.402,-1.402,-1.4337,-1.4477,-1.4822,-1.4868,-1.504,-1.5558,-1.5925,-1.6144,0.0699,-0.0539,-0.2274,-0.365,-0.476,-0.6892,-0.8941,-1.0865,-1.2195,-1.3398,-1.4589,-1.5686,-1.7054,-1.8524,-1.9118,-1.9984,-2.0988,-2.1056,-2.1457,-2.2099,-2.1681,-2.1532,-2.1542,-2.1182,-2.1007,-2.0991,-2.0846,-2.0798,-2.083,-2.0575,-2.0226,-1.9735,-1.9077,-1.7866,-1.6104,-1.6559,-1.6775,-1.6661,-1.7963,-1.8994,-1.9722,-2.0601,-2.1475,-2.2214,-2.2747,-2.3175,-2.3476,-2.3453,-2.2587,-2.0793,-2.0564,-1.9389,-1.6879,-1.5047,0.0,0.0,0.0,0.0,0.0,0.0,0.0,0.0,0.0,-1.3073,-1.4172,0.0,-1.3168,0.0,-1.563,-1.73,-1.9054,-1.9061,0.0,0.0,-1.8397,-1.8378,-1.8498,-1.8672,-1.81,-1.6373,-1.7899,-1.8797,-1.8001,-1.7558,-1.6996,-1.6078,-1.5082,-1.4353,-1.3905,-1.3649,-1.3484,-1.3617,-1.4126,-1.4481,-1.4136,-1.368,-1.3435,-1.3971,-1.3763,-1.3563,-1.3752,-1.3467,-1.3314,-1.3716,-1.3915,-1.4057,-1.4244,-1.4197,-1.443,-1.5028,-1.5119,-1.5028,-1.5131,-1.5424,-1.5736,-0.3216,-0.4222,-0.5934,-0.7308,-0.8444,-0.9098,-1.0491,-1.2397,-1.379,-1.5098,-1.6304,-1.7904,-1.9314,-2.0527,-2.0994,-2.1651,-2.2432,-2.2532,-2.2733,-2.3053,-2.2718,-2.2459,-2.2258,-2.1907,-2.1748,-2.1748,-2.1672,-2.1609,-2.1639,-2.1609,-2.1351,-2.0944,-2.0531,-1.9653,-1.8387,-1.8145,-1.7987,-1.7941,-1.8947,-1.9788,-2.0462,-2.0959,-2.1552,-2.2192,-2.266,-2.301,-2.3265,-2.3307,-2.2659,-2.1278,-2.0865,-1.9578,-1.7298,-1.5879,-1.5379,0.0,0.0,0.0,0.0,0.0,0.0,0.0,0.0,0.0,0.0,0.0,-1.589,-1.77,-1.8667,-1.9558,-2.0373,-2.073,-2.0739,-2.0266,-1.9476,-1.9192,-1.9759,-1.9902,-1.9612,-1.8696,-1.917,-1.936,-1.876,-1.8214,-1.7747,-1.7214,-1.6242,-1.529,-1.4568,-1.4313,-1.4157,-1.3992,-1.3839,-1.3726,-1.3726,-1.4035,-1.4316,-1.4384,-1.414,-1.3941,-1.3941,-1.3742,-1.3705,-1.3999,-1.428,-1.4466,-1.4501,-1.443,-1.4627,-1.5198,-1.5603,-1.5546,-1.5108,-1.5367,-1.578,-0.7609,-0.843,-0.9873,-1.1546,-1.3072,-1.1978,-1.2439,-1.3969,-1.5322,-1.6615,-1.789,-1.9851,-2.1203,-2.2029,-2.2716,-2.3215,-2.3606,-2.3669,-2.364,-2.3488,-2.3289,-2.3014,-2.2702,-2.2432,-2.232,-2.2303,-2.2248,-2.2248,-2.232,-2.233,-2.2265,-2.2119,-2.1528,-2.1116,-2.0872,-2.0041,-1.954,-1.946,-2.003,-2.0494,-2.0877,-2.1245,-2.1675,-2.2141,-2.2571,-2.2868,-2.2995,-2.3045,-2.2653,-2.1757,-2.1173,-1.9934,-1.7885,-1.7237,-1.7392,0.0,-1.8408,0.0,0.0,0.0,0.0,0.0,0.0,0.0,0.0,-1.7802,-1.8933,-2.1635,-2.1857,-2.1907,-2.1922,-2.2203,-2.2275,-2.197,-2.0394,-1.982,-2.1009,-2.0883,-2.0841,-2.1352,-1.9997,-1.928,-1.9743,-1.886,-1.8135,-1.8014,-1.7463,-1.6621,-1.5555,-1.5005,-1.4663,-1.4477,-1.3621,-1.321,-1.3344,-1.4316,-1.5062,-1.4697,-1.4512,-1.4408,-1.4258,-1.4269,-1.4326,-1.4558,-1.496,-1.5142,-1.4846,-1.4834,-1.4994,-1.5513,-1.6132,-1.6207,-1.5412,-1.5647,-1.6163,-1.2137,-1.254,-1.3682,-1.4971,-1.6198,-1.6797,-1.6944,-1.689,-1.8082,-1.9456,-2.0798,-2.1705,-2.2453,-2.3038,-2.3484,-2.3866,-2.4172,-2.4211,-2.4192,-2.4042,-2.3798,-2.3549,-2.3312,-2.3045,-2.291,-2.2859,-2.2902,-2.291,-2.291,-2.3003,-2.296,-2.2884,-2.2651,-2.2453,-2.2268,0.0,0.0,0.0,-2.0958,-2.1132,-2.137,-2.1645,-2.2015,-2.2398,-2.2623,0.0,-2.2902,-2.2944,-2.2546,-2.1759,-2.2198,0.0,0.0,0.0,0.0,0.0,0.0,0.0,0.0,0.0,0.0,0.0,-2.0603,-2.0534,-1.9561,-2.0115,-2.1016,-2.2089,-2.2209,-2.2287,-2.2527,-2.2677,-2.2677,-2.2368,-2.1881,-2.1752,-2.215,-2.2105,-2.2001,-2.1861,-2.1264,-2.0814,-2.0747,-1.996,-1.9169,-1.8674,-1.8344,-1.7787,-1.6857,-1.5668,-1.4857,-1.4891,-1.4176,-1.3668,-1.4057,-1.5006,-1.5691,-1.5513,-1.5198,-1.5051,-1.5187,-1.513,-1.513,-1.5322,-1.5736,-1.6032,-1.5864,-1.5389,-1.5345,-1.6001,-1.665,-1.668,-1.5412,-1.5812,-1.6637,-1.5773,0.0,-1.689,-1.7845,0.0,-1.9672,-2.0028,-2.0081,-2.0236,-2.1001,-2.2221,-2.2754,-2.3214,-2.361,-2.394,-2.419,-2.4357,-2.441,-2.4352,-2.4192,-2.3903,-2.3707,-2.3534,-2.3241,-2.3119,-2.3144,-2.3102,-2.3144,-2.3193,-2.3265,-2.3265,-2.3193,-2.3126,-2.3028,-2.2893,-2.266,-2.2237,-2.1658,-2.1602,-2.1661,-2.1807,-2.1969,-2.2231,-2.2504,-2.2649,0.0,0.0,0.0,0.0,0.0,0.0,0.0,0.0,0.0,0.0,-2.165,-2.2194,-2.198,-2.0766,-2.0976,-2.1278,-2.149,-2.1989,-2.1859,-2.0819,-2.1252,-2.1811,-2.2432,-2.2497,-2.2649,-2.3022,-2.3105,-2.302,-2.2877,-2.2668,-2.2598,-2.2721,-2.2764,-2.2624,-2.2381,-2.2032,-2.1724,-2.1481,-2.0909,-2.0243,-1.9579,-1.9332,-1.8921,-1.792,-1.6416,-1.5435,-1.5724,-1.5096,-1.4777,-1.5367,-1.5988,-1.6466,-1.6436,-1.6163,-1.5976,-1.6076,-1.6039,-1.6071,-1.6269,-1.6497,-1.6612,-1.6672,-1.6312,-1.6132,-1.6565,-1.7269,-1.7639,-1.6896,-1.6909,-1.7297,-1.8753,-1.8964,-1.9592,-2.026,-2.0892,-2.1541,-2.22,-2.2832,0.0,0.0,0.0,-2.3472,-2.379,-2.402,-2.4257,-2.4399,-2.445,-2.4513,-2.4418,-2.4242,-2.3984,-2.3792,-2.3598,-2.3336,-2.3241,-2.3313,-2.3217,-2.3199,-2.3336,-2.3407,-2.3407,-2.336,-2.3378,-2.3289,-2.3126,-2.2902,-2.2607,-2.232,-2.2163,-2.2107,-2.2181,-2.2326,-2.2443,-2.2552,-2.2712,-2.2764,-2.2764,-2.2842,-2.2825,-2.2773,-2.279,-2.2747,-2.2738,-2.302,-2.3193,-2.3223,-2.3217,-2.3035,-2.2608,-2.2502,-2.252,-2.2634,-2.2764,-2.25,-2.1814,-2.1857,-2.2175,-2.2712,-2.2764,-2.2979,-2.3413,-2.3431,-2.3313,-2.3245,-2.3063,-2.2995,-2.3052,-2.3119,-2.3045,-2.2816,-2.2525,-2.2248,-2.1915,-2.1617,-2.1198,-2.0628,-2.0273,-1.9818,-1.8841,-1.734,-1.6392,-1.665,-1.6194,-1.6032,-1.6637,-1.7173,-1.7434,-1.7393,-1.7144,-1.6921,-1.6921,-1.698,-1.705,-1.7133,-1.7229,-1.7353,-1.7476,-1.7297,-1.7157,-1.717,-1.8121,-1.8836,-1.8683,-1.8383,-1.8316,-2.0781,-2.0845,-2.1343,-2.1817,-2.2234,-2.275,-2.3338,-2.3949,-2.365,-2.3666,-2.3941,-2.4176,-2.4356,-2.4513,-2.4603,-2.4657,-2.4657,-2.4655,-2.4584,-2.4371,-2.421,-2.4005,-2.3764,-2.3593,-2.3471,-2.3401,-2.336,-2.3401,-2.3453,-2.3539,-2.3562,-2.3562,-2.3562,-2.3494,-2.336,-2.3153,-2.3038,-2.3035,-2.2634,-2.2452,-2.2535,-2.2642,-2.2764,-2.2842,-2.2952,-2.3045,-2.3045,-2.3045,-2.3095,-2.3119,-2.307,-2.2995,-2.2893,-2.3241,-2.3522,-2.3667,-2.3642,-2.3504,-2.3259,-2.3182,-2.3175,-2.3175,-2.3217,-2.2977,-2.2443,-2.2388,-2.2579,-2.2995,-2.3028,-2.3119,-2.3307,-2.3539,-2.3567,-2.3401,-2.3289,-2.3265,-2.3354,-2.3313,-2.3217,-2.307,-2.2859,-2.2615,-2.2304,-2.2061,-2.1764,-2.1386,-2.0991,-2.0431,-1.9464,-1.8383,-1.776,-1.7666,-1.7282,-1.7199,-1.7611,-1.8201,-1.8436,-1.8347,-1.8042,-1.7774,-1.7693,-1.7841,-1.7947,-1.7933,-1.8106,-1.8291,-1.8369,-1.8214,-1.8095,-1.8254,-1.9354,-2.0189,-1.966,-1.9681,-1.9859,-2.24,-2.2418,-2.2737,-2.3045,-2.335,-2.3858,-2.4258,-2.461,-2.4625,-2.4514,-2.4439,-2.4522,-2.4642,-2.4746,-2.4756,-2.4779,-2.4817,-2.4741,-2.4622,-2.4482,-2.4266,-2.4067,-2.3905,-2.3661,-2.3522,-2.3499,-2.3448,-2.3424,-2.3506,-2.3557,-2.3585,-2.3585,-2.3562,-2.3494,-2.3407,-2.3236,-2.3194,-2.3265,-2.2961,-2.2863,-2.2876,-2.297,-2.3028,-2.307,-2.3168,-2.3217,-2.3199,-2.3217,-2.3217,-2.3241,-2.3319,-2.3295,-2.3126,-2.3594,-2.3891,-2.3896,-2.3873,-2.3786,-2.3571,-2.3544,-2.3522,-2.3522,-2.3522,-2.3389,-2.307,-2.297,-2.3045,-2.3289,-2.3295,-2.336,-2.3499,-2.3616,-2.3656,-2.3549,-2.3544,-2.3522,-2.3517,-2.3539,-2.343,-2.3223,-2.3102,-2.2952,-2.2764,-2.2535,-2.2298,-2.2032,-2.1568,-2.0926,-2.0258,-1.9808,-1.9441,-1.9383,-1.8588,-1.8161,-1.8489,-1.895,-1.9236,-1.9288,-1.8921,-1.8679,-1.8563,-1.8703,-1.8855,-1.8893,-1.902,-1.9184,-1.9207,-1.8936,-1.8874,-1.9221,-2.033,-2.091,-2.0563,-2.0763,-2.078,-2.3673,-2.3673,-2.3825,-2.4057,-2.4273,-2.469,-2.4962,-2.5084,-2.5201,-2.5115,-2.4904,-2.4832,-2.4861,-2.4955,-2.4924,-2.4891,-2.4879,-2.4794,-2.4706,-2.4592,-2.4303,-2.4129,-2.3979,-2.3692,-2.3544,-2.3567,-2.343,-2.3419,-2.3478,-2.3552,-2.3562,-2.3562,-2.3517,-2.3453,-2.3401,-2.3294,-2.3248,-2.3295,-2.3206,-2.3159,-2.3168,-2.3241,-2.3289,-2.3289,-2.336,-2.3407,-2.3407,-2.3407,-2.343,-2.3435,-2.3571,-2.3594,-2.3481,-2.3912,-2.4113,-2.4036,-2.4016,-2.3935,-2.3768,-2.3747,-2.3725,-2.3747,-2.3725,-2.3678,-2.3562,-2.3458,-2.343,-2.3476,-2.3522,-2.3616,-2.3743,-2.3786,-2.3765,-2.3747,-2.3725,-2.3721,-2.3678,-2.3703,-2.3678,-2.3453,-2.3319,-2.3271,-2.3168,-2.297,-2.2738,-2.2453,-2.1982,-2.1507,-2.1119,-2.0975,-2.1007,-2.078,-1.9773,-1.9124,-1.942,-1.9639,-1.9889,-2.0096,-1.9767,-1.95,-1.9464,-1.9588,-1.9696,-1.9696,-1.9767,-1.9874,-1.9929,-1.9675,-1.9581,-1.9889,-2.0878,-2.157,-2.115,-2.1462,-2.1462,-2.4485,-2.4512,-2.4568,-2.4766,-2.4999,-2.512,-2.5226,-2.5348,-2.5385,-2.5401,-2.5385,-2.522,-2.5168,-2.5176,-2.5165,-2.5107,-2.4991,-2.4926,-2.4806,-2.4664,-2.4467,-2.4283,-2.4076,-2.3819,-2.3611,-2.3517,-2.3401,-2.336,-2.3424,-2.343,-2.3453,-2.3494,-2.343,-2.3407,-2.3401,-2.3329,-2.3329,-2.3401,-2.3376,-2.3376,-2.3383,-2.3448,-2.3494,-2.358,-2.3611,-2.3682,-2.3743,-2.3743,-2.3768,-2.3834,-2.3855,-2.3876,-2.3917,-2.3996,-2.4074,-2.417,-2.4056,-2.3976,-2.3976,-2.3915,-2.3894,-2.3876,-2.3834,-2.3771,-2.3682,-2.3728,-2.3664,-2.3571,-2.3664,-2.3834,-2.3974,-2.3994,-2.3935,-2.3894,-2.3834,-2.3795,-2.3855,-2.3917,-2.3894,-2.37,-2.3656,-2.3611,-2.3453,-2.3289,-2.302,-2.2694,-2.2463,-2.2141,-2.1781,-2.1718,-2.1777,-2.1658,-2.0731,-2.017,-2.0444,-2.0407,-2.0426,-2.0512,-2.041,-2.0243,-2.0174,-2.0224,-2.0308,-2.0308,-2.0376,-2.0444,-2.0478,-2.0342,-2.0254,-2.0462,-2.1182,-2.1811,-2.1751,-2.1969,-2.1761,-2.5061,-2.502,-2.5069,-2.5203,-2.5329,-2.5413,-2.5471,-2.5511,-2.5511,-2.5537,-2.5556,-2.5464,-2.5401,-2.5302,-2.5281,-2.5226,-2.5187,-2.5038,-2.4902,-2.481,-2.4561,-2.4412,-2.4262,-2.4051,-2.3886,-2.3728,-2.3625,-2.3607,-2.3589,-2.3571,-2.3589,-2.3589,-2.3517,-2.3453,-2.3448,-2.3347,-2.3323,-2.3401,-2.3432,-2.35,-2.3589,-2.3634,-2.3678,-2.3725,-2.381,-2.3912,-2.3912,-2.3933,-2.3935,-2.3976,-2.4016,-2.4054,-2.3978,-2.4074,-2.4133,-2.4208,-2.4132,-2.4074,-2.4036,-2.4074,-2.4074,-2.4074,-2.4054,-2.3996,-2.3894,-2.3896,-2.3915,-2.3933,-2.3994,-2.4074,-2.4113,-2.4113,-2.4056,-2.3976,-2.3955,-2.3955,-2.3958,-2.4054,-2.4054,-2.3894,-2.3852,-2.3789,-2.3703,-2.3571,-2.3365,-2.3077,-2.2902,-2.2677,-2.2381,-2.2354,-2.2409,-2.2392,-2.1761,-2.1214,-2.1135,-2.099,-2.1007,-2.115,-2.1023,-2.078,-2.0812,-2.0811,-2.086,-2.0893,-2.0942,-2.1039,-2.1071,-2.1007,-2.0925,-2.1198,-2.182,-2.2473,-2.2163,-2.2354,-2.232,-2.5415,-2.5391,-2.5457,-2.5522,-2.5548,-2.561,-2.5625,-2.5621,-2.5636,-2.5632,-2.5628,-2.5639,-2.5585,-2.5486,-2.5401,-2.5335,-2.5302,-2.5171,-2.5053,-2.4956,-2.4718,-2.4556,-2.4464,-2.4266,-2.4112,-2.3987,-2.3907,-2.381,-2.375,-2.3768,-2.3747,-2.3703,-2.3634,-2.3585,-2.3522,-2.3425,-2.3419,-2.3471,-2.35,-2.361,-2.3725,-2.3789,-2.3831,-2.3837,-2.3937,-2.4016,-2.4034,-2.4036,-2.4056,-2.4037,-2.4171,-2.4171,-2.4095,-2.4152,-2.4209,-2.4228,-2.419,-2.419,-2.4171,-2.4228,-2.4247,-2.4247,-2.4266,-2.4209,-2.4114,-2.4075,-2.4134,-2.4247,-2.4284,-2.4247,-2.4228,-2.4228,-2.4171,-2.4095,-2.4056,-2.4074,-2.4113,-2.419,-2.4171,-2.4074,-2.4016,-2.3958,-2.3876,-2.3831,-2.3725,-2.344,-2.3277,-2.3151,-2.2927,-2.2868,-2.2919,-2.302,-2.2581,-2.2084,-2.1631,-2.1556,-2.1708,-2.1738,-2.1601,-2.1462,-2.1432,-2.1386,-2.1402,-2.1432,-2.1509,-2.157,-2.1554,-2.1524,-2.1601,-2.1911,-2.2429,-2.2927,-2.2508,-2.2703,-2.2884,-2.5602,-2.5598,-2.5657,-2.5677,-2.5703,-2.5693,-2.5703,-2.5703,-2.5693,-2.569,-2.569,-2.5687,-2.5678,-2.566,-2.5551,-2.5446,-2.5395,-2.5378,-2.5303,-2.5166,-2.4955,-2.4804,-2.4678,-2.4491,-2.432,-2.4192,-2.4078,-2.3979,-2.3899,-2.3915,-2.3855,-2.3795,-2.3789,-2.3743,-2.3718,-2.3638,-2.3611,-2.3607,-2.3624,-2.3671,-2.3795,-2.3855,-2.3896,-2.3917,-2.3976,-2.4054,-2.4094,-2.417,-2.419,-2.421,-2.4266,-2.4284,-2.4284,-2.4228,-2.4228,-2.4284,-2.4339,-2.4394,-2.4375,-2.4374,-2.4391,-2.4408,-2.4389,-2.4355,-2.4303,-2.4284,-2.4358,-2.4482,-2.4482,-2.4429,-2.4339,-2.4321,-2.4284,-2.4266,-2.4209,-2.4209,-2.4266,-2.4284,-2.4266,-2.419,-2.4172,-2.4135,-2.4036,-2.4112,-2.3996,-2.3771,-2.3638,-2.3499,-2.3313,-2.3265,-2.3336,-2.3342,-2.3102,-2.2677,-2.2231,-2.2147,-2.2175,-2.2175,-2.2203,-2.2163,-2.2015,-2.1911,-2.194,-2.194,-2.1969,-2.1998,-2.201,-2.2096,-2.2265,-2.251,-2.2816,-2.3028,-2.2859,-2.3028,-2.3175,-2.5666,-2.5664,-2.5683,-2.5689,-2.5697,-2.5701,-2.5703,-2.5701,-2.57,-2.5697,-2.5693,-2.5705,-2.5701,-2.5696,-2.5655,-2.5595,-2.5525,-2.5498,-2.5414,-2.5309,-2.5154,-2.5049,-2.4943,-2.4747,-2.4623,-2.4515,-2.4392,-2.4264,-2.4155,-2.4155,-2.4153,-2.4115,-2.4037,-2.3978,-2.3937,-2.3837,-2.379,-2.3807,-2.3798,-2.3801,-2.3878,-2.4016,-2.4094,-2.4075,-2.4114,-2.4135,-2.4172,-2.4228,-2.4247,-2.4266,-2.4321,-2.4339,-2.4321,-2.4411,-2.4446,-2.4429,-2.4445,-2.4498,-2.453,-2.4564,-2.4596,-2.4575,-2.4594,-2.4561,-2.4513,-2.4479,-2.4532,-2.4596,-2.4629,-2.4594,-2.4556,-2.451,-2.4444,-2.4374,-2.4376,-2.4377,-2.4356,-2.4389,-2.4409,-2.4321,-2.4339,-2.4358,-2.4284,-2.4266,-2.4171,-2.3958,-2.3894,-2.3768,-2.3616,-2.3571,-2.362,-2.3707,-2.3504,-2.3175,-2.2935,-2.2825,-2.279,-2.2721,-2.2668,-2.2588,-2.2463,-2.2375,-2.2375,-2.2392,-2.2419,-2.2436,-2.2446,-2.2463,-2.2677,-2.3067,-2.3389,-2.3394,-2.3277,-2.3389,-2.3508,-2.5683,-2.5699,-2.5699,-2.5697,-2.5703,-2.5705,-2.5694,-2.5702,-2.5703,-2.5703,-2.5702,-2.5698,-2.5694,-2.5693,-2.5687,-2.5693,-2.564,-2.5565,-2.5493,-2.5444,-2.5359,-2.5254,-2.5152,-2.5005,-2.4907,-2.4806,-2.4679,-2.454,-2.4449,-2.4407,-2.4392,-2.4393,-2.4266,-2.4192,-2.4192,-2.4087,-2.4005,-2.4016,-2.3983,-2.4002,-2.3999,-2.4152,-2.4247,-2.4266,-2.4284,-2.4284,-2.4247,-2.4321,-2.4358,-2.4375,-2.4411,-2.4446,-2.4408,-2.4564,-2.4615,-2.4547,-2.4545,-2.4578,-2.4626,-2.4695,-2.4707,-2.4738,-2.4719,-2.4707,-2.4679,-2.466,-2.4707,-2.4768,-2.4802,-2.4813,-2.4818,-2.4798,-2.4692,-2.4545,-2.4535,-2.4537,-2.4512,-2.4556,-2.4526,-2.4462,-2.4479,-2.4515,-2.4446,-2.4411,-2.4321,-2.4172,-2.4171,-2.4074,-2.3912,-2.3876,-2.3919,-2.4018,-2.3852,-2.3638,-2.3508,-2.3463,-2.3365,-2.3277,-2.3084,-2.3003,-2.2935,-2.2849,-2.2824,-2.2833,-2.285,-2.285,-2.2868,-2.2842,-2.3126,-2.3544,-2.3743,-2.3789,-2.3707,-2.3703,-2.3813,-2.5648,-2.5695,-2.5699,-2.5691,-2.569,-2.5701,-2.5707,-2.5693,-2.5702,-2.5703,-2.5703,-2.5703,-2.5702,-2.57,-2.5699,-2.5696,-2.5679,-2.5625,-2.56,-2.5576,-2.5505,-2.5418,-2.5293,-2.5205,-2.5141,-2.5044,-2.4889,-2.4787,-2.4689,-2.4623,-2.461,-2.458,-2.4476,-2.4407,-2.4407,-2.434,-2.4265,-2.421,-2.4192,-2.4211,-2.421,-2.4284,-2.4339,-2.4393,-2.4462,-2.4426,-2.4321,-2.4429,-2.45,-2.4517,-2.4569,-2.4599,-2.457,-2.4654,-2.4707,-2.4707,-2.4707,-2.4689,-2.4723,-2.4783,-2.4827,-2.4827,-2.4808,-2.4827,-2.4813,-2.4813,-2.4842,-2.4936,-2.4964,-2.5023,-2.5057,-2.507,-2.494,-2.4753,-2.4711,-2.4692,-2.4689,-2.4753,-2.4757,-2.4645,-2.466,-2.4629,-2.4566,-2.4566,-2.453,-2.4462,-2.4411,-2.4321,-2.4209,-2.4191,-2.4247,-2.4247,-2.4134,-2.3937,-2.3996,-2.4074,-2.3933,-2.3789,-2.3571,-2.3412,-2.3394,-2.3353,-2.3307,-2.3301,-2.323,-2.3223,-2.3175,-2.3199,-2.344,-2.3789,-2.3955,-2.4094,-2.4016,-2.3978,-2.4115,-2.5595,-2.5639,-2.5619,-2.5671,-2.5691,-2.5694,-2.569,-2.5687,-2.5694,-2.57,-2.5703,-2.5703,-2.5703,-2.5703,-2.5702,-2.5697,-2.5707,-2.5676,-2.5655,-2.5595,-2.5549,-2.5479,-2.5449,-2.5367,-2.5253,-2.5153,-2.5005,-2.4917,-2.4893,-2.4832,-2.4804,-2.479,-2.4716,-2.467,-2.4654,-2.4566,-2.4498,-2.4476,-2.4422,-2.4407,-2.4409,-2.4426,-2.4479,-2.4532,-2.4599,-2.4596,-2.458,-2.4582,-2.4582,-2.4652,-2.4669,-2.465,-2.4645,-2.4783,-2.4889,-2.4889,-2.487,-2.4879,-2.4959,-2.494,-2.4953,-2.4985,-2.5004,-2.4985,-2.4953,-2.4945,-2.4964,-2.501,-2.4991,-2.5031,-2.5132,-2.5153,-2.5056,-2.4879,-2.4832,-2.4851,-2.4832,-2.4823,-2.4779,-2.4764,-2.4827,-2.4817,-2.4711,-2.4707,-2.4723,-2.4645,-2.4596,-2.4495,-2.4392,-2.4428,-2.4497,-2.4547,-2.4356,-2.421,-2.4248,-2.4339,-2.4357,-2.4173,-2.3959,-2.3771,-2.3771,-2.3813,-2.3771,-2.3703,-2.3638,-2.3571,-2.3526,-2.3594,-2.3789,-2.4018,-2.421,-2.4266,-2.421,-2.4266,-2.4356,-2.56,-2.561,-2.5605,-2.5634,-2.5667,-2.5675,-2.5694,-2.5693,-2.5703,-2.5694,-2.5701,-2.5703,-2.5703,-2.5703,-2.5703,-2.5701,-2.5697,-2.5691,-2.5679,-2.5619,-2.56,-2.556,-2.5538,-2.548,-2.5388,-2.5262,-2.5171,-2.5084,-2.5069,-2.5019,-2.4974,-2.4961,-2.4907,-2.4884,-2.487,-2.4753,-2.4711,-2.467,-2.4648,-2.4582,-2.4575,-2.4594,-2.4629,-2.4695,-2.4742,-2.4787,-2.4764,-2.4753,-2.4726,-2.4745,-2.4726,-2.4711,-2.4692,-2.4875,-2.4991,-2.4991,-2.4999,-2.5006,-2.5107,-2.507,-2.5057,-2.5101,-2.5082,-2.5063,-2.5032,-2.5025,-2.505,-2.5057,-2.5089,-2.5088,-2.5184,-2.5209,-2.5138,-2.5031,-2.4975,-2.4994,-2.4949,-2.4934,-2.4912,-2.4945,-2.5018,-2.4985,-2.4926,-2.487,-2.4884,-2.4861,-2.4779,-2.4685,-2.4607,-2.4642,-2.4738,-2.4753,-2.4594,-2.4512,-2.4461,-2.4564,-2.4711,-2.4564,-2.4373,-2.4192,-2.4077,-2.4173,-2.4192,-2.4037,-2.3937,-2.3855,-2.3813,-2.3852,-2.4014,-2.4247,-2.4461,-2.4462,-2.4445,-2.4479,-2.4547,-2.5599,-2.5605,-2.5615,-2.5595,-2.561,-2.5667,-2.5695,-2.5707,-2.5693,-2.5705,-2.5691,-2.5701,-2.5703,-2.5703,-2.5703,-2.5703,-2.5703,-2.5694,-2.5707,-2.5679,-2.5678,-2.5643,-2.5593,-2.5524,-2.5448,-2.5379,-2.5321,-2.5269,-2.5195,-2.513,-2.5094,-2.5082,-2.5044,-2.5006,-2.4993,-2.4922,-2.4879,-2.4837,-2.4818,-2.4776,-2.4753,-2.4787,-2.4817,-2.4827,-2.4884,-2.4907,-2.4915,-2.4902,-2.4879,-2.4836,-2.4813,-2.4827,-2.4823,-2.495,-2.5018,-2.5018,-2.5076,-2.5139,-2.5175,-2.5151,-2.5114,-2.5107,-2.5107,-2.5107,-2.5094,-2.512,-2.5126,-2.5175,-2.5187,-2.5195,-2.5231,-2.5233,-2.5203,-2.5203,-2.5138,-2.5096,-2.5115,-2.5113,-2.5076,-2.5095,-2.5156,-2.5199,-2.5156,-2.5107,-2.5095,-2.5051,-2.4974,-2.4874,-2.4851,-2.4865,-2.4953,-2.4912,-2.4823,-2.4764,-2.4734,-2.4794,-2.4931,-2.487,-2.47,-2.4559,-2.4393,-2.4445,-2.4479,-2.4321,-2.4266,-2.4154,-2.4096,-2.4134,-2.4266,-2.451,-2.4642,-2.466,-2.4676,-2.4692,-2.4945,-2.5604,-2.5604,-2.5613,-2.5599,-2.5609,-2.5615,-2.5654,-2.5699,-2.5691,-2.569,-2.5705,-2.5693,-2.5698,-2.5702,-2.5703,-2.5703,-2.5703,-2.5696,-2.5687,-2.5707,-2.5703,-2.5648,-2.5595,-2.5531,-2.5478,-2.541,-2.5378,-2.5332,-2.528,-2.5239,-2.5217,-2.5164,-2.5172,-2.5141,-2.513,-2.5082,-2.5038,-2.5019,-2.5024,-2.5012,-2.4987,-2.4947,-2.4974,-2.5019,-2.5032,-2.5057,-2.5056,-2.5037,-2.5006,-2.4953,-2.4985,-2.5031,-2.5031,-2.5095,-2.5132,-2.5144,-2.5175,-2.5187,-2.518,-2.518,-2.518,-2.5172,-2.5172,-2.5164,-2.5168,-2.5191,-2.518,-2.521,-2.521,-2.5258,-2.5303,-2.5331,-2.5351,-2.5341,-2.5253,-2.5182,-2.519,-2.5179,-2.5187,-2.5168,-2.5184,-2.5203,-2.5203,-2.5195,-2.5168,-2.5176,-2.5111,-2.5056,-2.5019,-2.5013,-2.5088,-2.5106,-2.5063,-2.5032,-2.5006,-2.5076,-2.5132,-2.5132,-2.5019,-2.4907,-2.4719,-2.4631,-2.458,-2.4495,-2.4575,-2.4524,-2.4389,-2.4338,-2.4559,-2.476,-2.4818,-2.4851,-2.4856,-2.4875,-2.5348,-2.5595,-2.5609,-2.5613,-2.5607,-2.5613,-2.5599,-2.562,-2.5667,-2.5695,-2.5694,-2.5693,-2.5703,-2.5691,-2.5696,-2.5703,-2.5703,-2.5703,-2.5696,-2.5687,-2.5705,-2.5696,-2.5671,-2.5615,-2.5551,-2.5505,-2.5452,-2.5445,-2.5387,-2.5341,-2.5322,-2.5273,-2.5222,-2.522,-2.5209,-2.5209,-2.5164,-2.516,-2.5138,-2.5143,-2.5143,-2.5141,-2.5111,-2.5122,-2.5164,-2.5184,-2.5176,-2.5179,-2.5179,-2.5145,-2.5094,-2.5095,-2.5114,-2.5151,-2.5187,-2.5214,-2.5228,-2.5217,-2.5206,-2.5225,-2.5225,-2.5217,-2.5209,-2.5209,-2.5201,-2.5201,-2.5198,-2.5206,-2.5239,-2.5239,-2.5283,-2.5369,-2.5395,-2.5404,-2.5423,-2.5369,-2.5303,-2.5284,-2.5264,-2.5243,-2.5233,-2.5241,-2.5239,-2.5239,-2.5273,-2.5293,-2.5293,-2.5214,-2.5192,-2.519,-2.5187,-2.5206,-2.525,-2.5241,-2.5168,-2.5153,-2.5206,-2.5228,-2.5239,-2.5228,-2.5141,-2.4993,-2.4813,-2.4753,-2.4734,-2.4837,-2.4851,-2.467,-2.4591,-2.4727,-2.4888,-2.4968,-2.5044,-2.5057,-2.5342,-2.5793,-2.561,-2.5605,-2.5599,-2.5601,-2.5607,-2.5599,-2.5615,-2.5615,-2.5671,-2.5683,-2.5697,-2.5698,-2.5703,-2.5707,-2.5691,-2.5696,-2.5703,-2.5699,-2.5691,-2.5703,-2.569,-2.5687,-2.5636,-2.5591,-2.5574,-2.5518,-2.5522,-2.5464,-2.5423,-2.5351,-2.5322,-2.5313,-2.5253,-2.5233,-2.5243,-2.5222,-2.5212,-2.5222,-2.5226,-2.5226,-2.5233,-2.5214,-2.5253,-2.5293,-2.5293,-2.5302,-2.5312,-2.5302,-2.5282,-2.5239,-2.5156,-2.5144,-2.521,-2.5203,-2.5258,-2.5293,-2.5283,-2.5262,-2.5271,-2.5241,-2.5222,-2.5233,-2.5233,-2.5233,-2.5233,-2.5233,-2.5243,-2.5322,-2.5341,-2.536,-2.5393,-2.541,-2.5426,-2.5472,-2.5492,-2.5456,-2.5423,-2.5351,-2.5293,-2.5313,-2.5313,-2.5322,-2.5341,-2.5388,-2.5423,-2.5404,-2.535,-2.5332,-2.5313,-2.5312,-2.5351,-2.5389,-2.5361,-2.5303,-2.5274,-2.5283,-2.5303,-2.5341,-2.5341,-2.5283,-2.5195,-2.5044,-2.4934,-2.4902,-2.4981,-2.4974,-2.4889,-2.4865,-2.4947,-2.5056,-2.516,-2.5244,-2.5363,-2.5834,-2.6297,-2.561,-2.5605,-2.5613,-2.5607,-2.5593,-2.5599,-2.5595,-2.56,-2.5609,-2.566,-2.5691,-2.5701,-2.569,-2.5701,-2.5705,-2.5689,-2.5697,-2.5703,-2.5699,-2.5707,-2.5703,-2.5704,-2.5664,-2.5624,-2.56,-2.5587,-2.557,-2.5549,-2.5484,-2.5448,-2.5443,-2.5378,-2.5369,-2.536,-2.5351,-2.5332,-2.5351,-2.537,-2.5339,-2.5348,-2.5359,-2.5359,-2.5367,-2.5423,-2.5395,-2.5367,-2.5367,-2.5397,-2.5379,-2.5332,-2.5262,-2.5198,-2.522,-2.5252,-2.5303,-2.536,-2.5369,-2.5341,-2.5303,-2.5303,-2.5303,-2.5332,-2.5332,-2.5361,-2.5351,-2.5293,-2.5341,-2.5415,-2.5459,-2.5464,-2.5464,-2.5478,-2.5478,-2.5505,-2.5505,-2.5524,-2.5503,-2.5429,-2.5378,-2.5378,-2.5423,-2.5459,-2.5459,-2.5623,-2.5619,-2.5522,-2.5557,-2.5506,-2.5528,-2.5588,-2.5663,-2.5824,-2.6002,-2.5948,-2.5367,-2.5387,-2.5404,-2.5672,-2.5788,-2.5934,-2.5823,-2.5239,-2.5111,-2.508,-2.5115,-2.5075,-2.5019,-2.5057,-2.5107,-2.5239,-2.5534,-2.5861,-2.6206,-2.6553,-2.7033,-2.561,-2.5605,-2.5604,-2.5613,-2.5604,-2.5609,-2.5605,-2.5604,-2.5604,-2.5652,-2.5707,-2.5691,-2.5701,-2.5696,-2.5701,-2.5705,-2.5691,-2.5702,-2.5703,-2.5698,-2.5693,-2.5701,-2.5707,-2.5664,-2.5643,-2.562,-2.5607,-2.5577,-2.555,-2.551,-2.5468,-2.5453,-2.5456,-2.5459,-2.5459,-2.5434,-2.5434,-2.5459,-2.5445,-2.5461,-2.5453,-2.5441,-2.5449,-2.5476,-2.5468,-2.5441,-2.5464,-2.5437,-2.5448,-2.5404,-2.5331,-2.5274,-2.5253,-2.5274,-2.534,-2.5418,-2.5453,-2.5429,-2.5415,-2.5397,-2.5406,-2.5443,-2.5443,-2.5451,-2.5423,-2.5378,-2.5387,-2.5472,-2.5529,-2.5538,-2.5537,-2.555,-2.555,-2.5543,-2.5543,-2.5718,-2.5984,-2.5757,-2.5434,-2.5461,-2.5503,-2.5543,-2.5615,-2.634,-2.676,-2.7077,-2.6916,-2.6849,-2.6493,-2.6517,-2.642,-2.6539,-2.6812,-2.6592,-2.5754,-2.5468,-2.549,-2.595,-2.6512,-2.6827,-2.7058,-2.6178,-2.5282,-2.5407,-2.558,-2.5231,-2.5176,-2.5214,-2.5738,-2.6554,-2.6992,-2.7013,-2.7189,-2.7701,-2.8145,-2.561,-2.5605,-2.5609,-2.5604,-2.5609,-2.5605,-2.5595,-2.5628,-2.5609,-2.5652,-2.5699,-2.5687,-2.5701,-2.569,-2.5698,-2.5703,-2.5691,-2.5703,-2.5703,-2.5703,-2.5703,-2.5687,-2.5701,-2.5687,-2.5671,-2.5613,-2.5605,-2.5599,-2.5582,-2.5544,-2.5531,-2.5506,-2.551,-2.5515,-2.5515,-2.5507,-2.5507,-2.5522,-2.5518,-2.5525,-2.5524,-2.5518,-2.5525,-2.5518,-2.5506,-2.5518,-2.5524,-2.5517,-2.5503,-2.5507,-2.5448,-2.5395,-2.536,-2.5341,-2.5367,-2.5485,-2.5499,-2.5511,-2.5495,-2.5507,-2.5526,-2.5526,-2.5507,-2.5507,-2.548,-2.5445,-2.5453,-2.5498,-2.5544,-2.5585,-2.5615,-2.5605,-2.5678,-2.5805,-2.5829,-2.6218,-2.6714,-2.6351,-2.6101,-2.5641,-2.6663,-2.742,-2.7509,-2.7949,-2.829,-2.8529,-2.8312,-2.8081,-2.7705,-2.7427,-2.7324,-2.766,-2.804,-2.7754,-2.6916,-2.7414,-2.7219,-2.7188,-2.7718,-2.7984,-2.8255,-2.7334,-2.6504,-2.613,-2.6053,-2.5852,-2.5764,-2.5917,-2.6689,-2.7873,-2.848,-2.8504,-2.8683,-2.8911,-2.919,-2.561,-2.5605,-2.5609,-2.5609,-2.5605,-2.5595,-2.5628,-2.5675,-2.5675,-2.5679,-2.5699,-2.5687,-2.5697,-2.569,-2.5696,-2.5703,-2.5691,-2.5703,-2.5703,-2.5703,-2.5696,-2.5687,-2.5705,-2.5698,-2.569,-2.5678,-2.5636,-2.5615,-2.56,-2.5604,-2.5585,-2.5585,-2.5582,-2.5564,-2.5564,-2.5564,-2.5577,-2.5583,-2.5568,-2.5593,-2.5587,-2.5587,-2.5579,-2.559,-2.556,-2.5568,-2.5587,-2.5595,-2.5589,-2.5564,-2.5511,-2.5498,-2.5456,-2.5472,-2.5488,-2.5499,-2.5568,-2.5568,-2.5531,-2.5557,-2.5583,-2.5583,-2.5564,-2.5583,-2.5557,-2.5518,-2.5525,-2.5601,-2.5654,-2.5687,-2.5697,-2.5898,-2.6065,-2.642,-2.6751,-2.7063,-2.7701,-2.7678,-2.7179,-2.6623,-2.8149,-2.9518,-2.9343,-2.9265,-2.9508,-2.9455,-2.9109,-2.8865,-2.8549,-2.8329,-2.8188,-2.8743,-2.9435,-2.8904,-2.8212,-2.9249,-2.9727,-2.9394,-2.9582,-2.9555,-2.9473,-2.8553,-2.7888,-2.7679,-2.7334,-2.7097,-2.7005,-2.6805,-2.7832,-2.9162,-2.9629,-2.994,-2.9738,-2.9555,-2.9795,-2.6286,-2.6267,-2.6276,-2.6276,-2.6194,-2.5819,-2.5675,-2.5699,-2.5699,-2.5703,-2.5707,-2.5691,-2.5701,-2.569,-2.5698,-2.5703,-2.5691,-2.5703,-2.5703,-2.5703,-2.5697,-2.5687,-2.5687,-2.5705,-2.5701,-2.5693,-2.5662,-2.5648,-2.5636,-2.5667,-2.5648,-2.5628,-2.561,-2.5595,-2.5615,-2.559,-2.5609,-2.5609,-2.56,-2.561,-2.5605,-2.561,-2.56,-2.5619,-2.56,-2.5595,-2.5615,-2.561,-2.5605,-2.56,-2.5579,-2.5549,-2.5549,-2.5568,-2.5601,-2.5613,-2.5595,-2.5605,-2.5565,-2.559,-2.5595,-2.5595,-2.5639,-2.5605,-2.56,-2.5571,-2.5624,-2.5746,-2.6383,-2.6681,-2.7081,-2.6975,-2.7218,-2.7488,-2.7624,-2.8018,-2.8564,-2.8684,-2.8359,-2.8009,-2.9304,-3.0273,-3.0468,-3.0496,-3.0681,-3.0447,-2.9955,-2.9639,-2.9362,-2.9275,-2.9168,-2.9552,-3.0161,-2.9893,-2.962,-3.0667,-3.1616,-3.1505,-3.1183,-3.1169,-3.0784,-2.9919,-2.9615,-2.9492,-2.9085,-2.887,-2.7888,-2.7616,-2.9031,-3.0199,-3.0306,-3.0336,-3.0211,-3.0199,-3.0477,-2.7001,-2.7157,-2.7157,-2.7157,-2.7026,-2.629,-2.5952,-2.5913,-2.5757,-2.5707,-2.5694,-2.5697,-2.5704,-2.5693,-2.5701,-2.5705,-2.5691,-2.5702,-2.5703,-2.5703,-2.57,-2.5694,-2.5693,-2.5687,-2.5705,-2.5701,-2.5698,-2.5696,-2.5681,-2.5694,-2.5697,-2.5675,-2.5644,-2.5617,-2.5636,-2.5632,-2.5624,-2.5624,-2.5609,-2.5617,-2.5617,-2.5625,-2.5648,-2.5707,-2.5648,-2.5629,-2.5625,-2.5625,-2.5625,-2.5621,-2.5632,-2.5624,-2.5628,-2.5664,-2.5839,-2.6022,-2.5842,-2.5702,-2.5877,-2.594,-2.6123,-2.6416,-2.6244,-2.619,-2.617,-2.626,-2.5987,-2.5979,-2.6997,-2.808,-2.8608,-2.8433,-2.8405,-2.8522,-2.8541,-2.8759,-2.9408,-2.9737,-2.9884,-3.003,-3.0743,-3.088,-3.093,-3.0829,-3.084,-3.0798,-3.0326,-3.0357,-3.0139,-3.0278,-3.0273,-3.0412,-3.0669,-3.0648,-3.0945,-3.1937,-3.2767,-3.3168,-3.2654,-3.2338,-3.1917,-3.1334,-3.1213,-3.1106,-3.1534,-3.1148,-2.9758,-2.865,-2.9667,-3.0447,-3.0681,-3.0704,-3.0521,-3.0808,-3.1208,-2.7351,-2.8057,-2.8037,-2.8057,-2.7921,-2.7128,-2.6771,-2.6673,-2.6096,-2.571,-2.5811,-2.5749,-2.5774,-2.5698,-2.5703,-2.5691,-2.5699,-2.5703,-2.5703,-2.5703,-2.5703,-2.5703,-2.5702,-2.5694,-2.5691,-2.5687,-2.5687,-2.5701,-2.5696,-2.569,-2.569,-2.569,-2.5687,-2.5684,-2.5684,-2.5678,-2.5701,-2.5694,-2.5701,-2.5684,-2.5665,-2.5668,-2.5687,-2.5707,-2.5687,-2.5665,-2.5707,-2.5746,-2.5804,-2.5785,-2.5723,-2.5684,-2.5687,-2.5696,-2.662,-2.7027,-2.6805,-2.6013,-2.6649,-2.6809,-2.7066,-2.7475,-2.7729,-2.7924,-2.7612,-2.7267,-2.6783,-2.5818,-2.761,-2.9194,-2.9791,-2.9162,-2.8964,-2.9086,-2.9305,-2.9718,-3.0287,-3.029,-3.0502,-3.0595,-3.0847,-3.1038,-3.1155,-3.1016,-3.0877,-3.0833,-3.083,-3.0905,-3.1058,-3.1266,-3.0852,-3.0833,-3.1555,-3.1679,-3.2482,-3.3428,-3.3846,-3.4519,-3.3912,-3.3341,-3.2862,-3.2443,-3.2627,-3.2682,-3.313,-3.2907,-3.1393,-3.0623,-3.0653,-3.0949,-3.1519,-3.1266,-3.0767,-3.1254,-3.1984,-2.8593,-2.8924,-2.8932,-2.8938,-2.8812,-2.8009,-2.7628,-2.7569,-2.7289,-2.6848,-2.6484,-2.6434,-2.6186,-2.5781,-2.5705,-2.5689,-2.5696,-2.5702,-2.5703,-2.5703,-2.5703,-2.5703,-2.5703,-2.5702,-2.5699,-2.5696,-2.5696,-2.5696,-2.5691,-2.5705,-2.5701,-2.5703,-2.5701,-2.5701,-2.5701,-2.5693,-2.5687,-2.5707,-2.5687,-2.5693,-2.5698,-2.5701,-2.572,-2.572,-2.5759,-2.5779,-2.5857,-2.6247,-2.6403,-2.6344,-2.6052,-2.5701,-2.5701,-2.592,-2.6782,-2.9478,-2.9162,-2.8452,-2.7855,-2.7758,-2.7995,-2.8151,-2.833,-2.8215,-2.8237,-2.8145,-2.8367,-2.8727,-2.9468,-3.0328,-3.0721,-3.0213,-3.0134,-3.0154,-3.0037,-3.0351,-3.0723,-3.0759,-3.0817,-3.0878,-3.1074,-3.1582,-3.1914,-3.1775,-3.197,-3.2319,-3.218,-3.2059,-3.2256,-3.2531,-3.183,-3.0894,-3.1906,-3.2895,-3.3996,-3.5015,-3.4957,-3.5213,-3.449,-3.3961,-3.3643,-3.3461,-3.3649,-3.364,-3.3692,-3.3275,-3.258,-3.1889,-3.128,-3.1808,-3.2531,-3.1939,-3.1445,-3.2257,-3.2846,-2.964,-2.9815,-2.9839,-2.9819,-2.9737,-2.889,-2.8528,-2.8509,-2.8252,-2.7732,-2.7095,-2.6732,-2.623,-2.5826,-2.5691,-2.5694,-2.5689,-2.5702,-2.5703,-2.5703,-2.5703,-2.5703,-2.5703,-2.5703,-2.5703,-2.5701,-2.57,-2.5699,-2.5698,-2.5696,-2.5691,-2.5691,-2.5691,-2.5691,-2.5689,-2.5707,-2.5703,-2.5703,-2.5705,-2.5826,-2.6025,-2.6085,-2.6223,-2.632,-2.636,-2.634,-2.6438,-2.6906,-2.7316,-2.7199,-2.6846,-2.6591,-2.6571,-2.7297,-2.8317,-3.0272,-3.039,-3.0017,-2.9251,-2.8856,-2.8771,-2.8869,-2.8949,-2.921,-2.9095,-2.8979,-2.9218,-3.0389,-3.0565,-3.0758,-3.087,-3.0793,-3.0697,-3.0681,-3.0761,-3.0974,-3.1242,-3.1645,-3.1485,-3.1083,-3.1612,-3.2875,-3.3035,-3.2788,-3.3045,-3.3671,-3.3633,-3.3281,-3.3301,-3.3496,-3.332,-3.2382,-3.248,-3.3711,-3.4922,-3.5819,-3.5975,-3.5859,-3.5116,-3.4765,-3.455,-3.4528,-3.4663,-3.4578,-3.4474,-3.4439,-3.423,-3.2982,-3.189,-3.2641,-3.3102,-3.2483,-3.2341,-3.317,-3.3857,-2.9995,-3.0701,-3.0691,-3.0667,-3.0614,-2.978,-2.9418,-2.9359,-2.8678,-2.7959,-2.7201,-2.6327,-2.6097,-2.5867,-2.6012,-2.5953,-2.5787,-2.5721,-2.5918,-2.5918,-2.5723,-2.5898,-2.5918,-2.5879,-2.5762,-2.5703,-2.5702,-2.5701,-2.57,-2.57,-2.5699,-2.5699,-2.5758,-2.5719,-2.5759,-2.5837,-2.6013,-2.6052,-2.6092,-2.6385,-2.6737,-2.6972,-2.7226,-2.7812,-2.8008,-2.8105,-2.8086,-2.8144,-2.8223,-2.8223,-2.8183,-2.8124,-2.83,-2.9101,-3.0234,-3.0621,-3.0889,-3.0619,-3.0252,-2.9863,-2.9941,-3.0351,-3.0508,-3.0351,-3.0234,-3.056,-3.0845,-3.0769,-3.0829,-3.0816,-3.0813,-3.0852,-3.123,-3.1089,-3.1237,-3.1448,-3.2006,-3.3051,-3.2755,-3.1714,-3.2143,-3.348,-3.4413,-3.4212,-3.3951,-3.4502,-3.4597,-3.4251,-3.3941,-3.4096,-3.4695,-3.4359,-3.3712,-3.4359,-3.5511,-3.6016,-3.6016,-3.6021,-3.5615,-3.558,-3.5623,-3.5663,-3.541,-3.5723,-3.5683,-3.5801,-3.5683,-3.4472,-3.367,-3.3789,-3.3768,-3.3593,-3.3534,-3.4121,-3.4863,-3.0496,-3.0793,-3.0798,-3.0798,-3.0789,-3.0435,-3.0306,-3.0248,-2.9968,-2.9369,-2.8496,-2.7717,-2.729,-2.7276,-2.7303,-2.7304,-2.7283,-2.7304,-2.7246,-2.7305,-2.7285,-2.6992,-2.6758,-2.6406,-2.6269,-2.5898,-2.5742,-2.5703,-2.5703,-2.5879,-2.6152,-2.621,-2.6074,-2.5742,-2.5781,-2.6308,-2.6735,-2.7145,-2.7244,-2.7518,-2.7636,-2.7811,-2.7964,-2.8213,-2.8293,-2.8291,-2.833,-2.8839,-2.9015,-2.921,-2.9566,-2.9684,-2.9704,-3.0542,-3.0771,-3.0838,-3.0846,-3.0846,-3.086,-3.0535,-3.0575,-3.0628,-3.0804,-3.0866,-3.0871,-3.0903,-3.088,-3.0821,-3.0799,-3.0801,-3.0871,-3.1719,-3.2376,-3.1847,-3.1698,-3.1913,-3.2701,-3.3843,-3.4062,-3.3025,-3.3333,-3.4265,-3.5056,-3.57,-3.5405,-3.5266,-3.5279,-3.522,-3.4881,-3.4669,-3.5227,-3.5516,-3.4892,-3.4755,-3.5828,-3.5994,-3.6059,-3.615,-3.6202,-3.6309,-3.6413,-3.6003,-3.5908,-3.6378,-3.6866,-3.694,-3.6628,-3.5833,-3.5325,-3.5029,-3.5086,-3.5244,-3.5244,-3.5281,-3.5599,-3.0786,-3.0786,-3.0798,-3.0794,-3.079,-3.0798,-3.0801,-3.0804,-3.0771,-3.0372,-2.9539,-2.8717,-2.8288,-2.8291,-2.826,-2.8222,-2.8124,-2.8144,-2.8222,-2.8184,-2.8047,-2.7909,-2.7578,-2.7324,-2.7148,-2.6543,-2.6465,-2.6562,-2.666,-2.6523,-2.6894,-2.707,-2.6836,-2.6641,-2.6715,-2.704,-2.7713,-2.8145,-2.8288,-2.8507,-2.8585,-2.8683,-2.8955,-2.9084,-2.922,-2.9218,-2.9355,-2.9706,-2.9901,-3.0094,-3.0389,-3.074,-3.0821,-3.0841,-3.0799,-3.0788,-3.0817,-3.0825,-3.082,-3.083,-3.083,-3.0807,-3.0785,-3.083,-3.0852,-3.0872,-3.0849,-3.0804,-3.0804,-3.1008,-3.1359,-3.2542,-3.3009,-3.2499,-3.2303,-3.2537,-3.3614,-3.4675,-3.4667,-3.4389,-3.4852,-3.5056,-3.5295,-3.5914,-3.5792,-3.5596,-3.5623,-3.5662,-3.5607,-3.5493,-3.5658,-3.5853,-3.5724,-3.5763,-3.5978,-3.666,-3.7269,-3.724,-3.7253,-3.7109,-3.7038,-3.6668,-3.6707,-3.7334,-3.776,-3.8007,-3.7718,-3.7103,-3.6521,-3.5955,-3.6072,-3.6208,-3.6843,-3.6785,-3.6264,-3.0798,-3.0798,-3.0785,-3.0785,-3.0801,-3.0785,-3.0788,-3.081,-3.0855,-3.0454,-2.97,-2.8877,-2.8525,-2.8548,-2.873,-2.8747,-2.8704,-2.8612,-2.8612,-2.8706,-2.8799,-2.8471,-2.832,-2.8242,-2.8086,-2.8203,-2.793,-2.7773,-2.7988,-2.7793,-2.8008,-2.8281,-2.8223,-2.818,-2.8225,-2.8242,-2.8298,-2.8357,-2.8476,-2.8967,-2.9396,-2.9552,-2.9904,-3.0233,-3.0348,-3.0247,-3.0323,-3.0381,-3.0515,-3.0609,-3.0668,-3.081,-3.0816,-3.0813,-3.0788,-3.0794,-3.095,-3.0966,-3.0915,-3.0876,-3.1047,-3.12,-3.1395,-3.1141,-3.0934,-3.0915,-3.1418,-3.1932,-3.1622,-3.2055,-3.2674,-3.3362,-3.3505,-3.3381,-3.3214,-3.357,-3.4664,-3.5146,-3.5158,-3.5162,-3.5521,-3.5827,-3.5813,-3.5897,-3.5883,-3.586,-3.5938,-3.5981,-3.6005,-3.6324,-3.6406,-3.6815,-3.6806,-3.5958,-3.6246,-3.777,-3.8461,-3.8408,-3.8166,-3.7864,-3.7854,-3.7795,-3.799,-3.84,-3.8575,-3.8746,-3.8673,-3.8478,-3.8092,-3.7722,-3.6976,-3.7074,-3.7843,-3.8307,-3.7823,-3.0788,-3.0804,-3.0852,-3.0855,-3.0872,-3.0875,-3.086,-3.0866,-3.0882,-3.0726,-3.0478,-3.0093,-3.0019,-3.0017,-2.9956,-2.9913,-2.9954,-3.0025,-3.0027,-2.9949,-2.9865,-2.9593,-2.9347,-2.9098,-2.8886,-2.8437,-2.8301,-2.8418,-2.8223,-2.8476,-2.8809,-2.9062,-2.9529,-2.9675,-2.9318,-2.9218,-2.9374,-2.9921,-3.0038,-3.0135,-3.035,-3.0387,-3.0523,-3.0855,-3.081,-3.0788,-3.0785,-3.0801,-3.0798,-3.0794,-3.0794,-3.0798,-3.0801,-3.0798,-3.0817,-3.113,-3.1509,-3.2458,-3.2458,-3.2478,-3.2469,-3.246,-3.2289,-3.1822,-3.1086,-3.2026,-3.2854,-3.3716,-3.3647,-3.4204,-3.4863,-3.496,-3.4929,-3.4497,-3.4438,-3.4925,-3.5613,-3.5643,-3.5655,-3.5671,-3.5872,-3.5885,-3.5866,-3.5898,-3.5905,-3.6086,-3.6183,-3.6011,-3.5977,-3.6806,-3.7274,-3.7975,-3.8001,-3.6643,-3.6493,-3.8397,-3.9578,-3.9701,-3.9026,-3.826,-3.8363,-3.8764,-3.8959,-3.9193,-3.933,-3.9447,-3.9558,-3.9694,-3.9864,-3.9558,-3.877,-3.8142,-3.8532,-3.9184,-3.9496,-3.0579,-3.0833,-3.0877,-3.0919,-3.0919,-3.0919,-3.0907,-3.0915,-3.0916,-3.0916,-3.0878,-3.0898,-3.0857,-3.0866,-3.0919,-3.0921,-3.0909,-3.0903,-3.0841,-3.086,-3.0841,-3.045,-3.014,-2.9988,-2.9817,-2.9255,-2.9158,-2.9258,-2.9375,-2.9258,-2.957,-3.0098,-3.0599,-3.0417,-3.0138,-3.0135,-3.0233,-3.0606,-3.0606,-3.0623,-3.0721,-3.0735,-3.0752,-3.0807,-3.0801,-3.0798,-3.0794,-3.079,-3.0786,-3.0802,-3.0798,-3.0793,-3.0793,-3.0808,-3.1076,-3.1806,-3.2461,-3.3375,-3.355,-3.366,-3.3725,-3.4121,-3.3719,-3.2817,-3.1991,-3.2697,-3.401,-3.5022,-3.5725,-3.576,-3.5696,-3.5773,-3.5596,-3.5123,-3.5274,-3.5741,-3.5776,-3.5782,-3.5791,-3.5823,-3.5823,-3.5823,-3.5927,-3.592,-3.5951,-3.6192,-3.6414,-3.6248,-3.6177,-3.7033,-3.8074,-3.8921,-3.9221,-3.8143,-3.8123,-3.947,-4.0435,-4.091,-4.0128,-3.9091,-3.939,-3.987,-3.9922,-3.9974,-4.0091,-4.0285,-4.0675,-4.0863,-4.0602,-4.0595,-4.0431,-3.9896,-3.948,-3.9786,-4.0383,-3.0118,-3.0821,-3.0882,-3.0923,-3.0921,-3.0905,-3.0913,-3.0918,-3.0911,-3.0923,-3.0921,-3.0917,-3.0913,-3.0901,-3.0899,-3.0899,-3.0899,-3.0899,-3.086,-3.0821,-3.0821,-3.0723,-3.0762,-3.0704,-3.0494,-3.0667,-3.063,-3.0312,-3.0762,-3.0469,-3.0566,-3.0762,-3.082,-3.0792,-3.0726,-3.0684,-3.0723,-3.0801,-3.0799,-3.0796,-3.0794,-3.0791,-3.0785,-3.0798,-3.0794,-3.0786,-3.0798,-3.0789,-3.0799,-3.0808,-3.0817,-3.0803,-3.0789,-3.0799,-3.1831,-3.2875,-3.3439,-3.384,-3.4396,-3.4536,-3.4811,-3.5053,-3.428,-3.3621,-3.3498,-3.3706,-3.4586,-3.5321,-3.5784,-3.5747,-3.5718,-3.5708,-3.5708,-3.56,-3.5646,-3.5754,-3.5727,-3.5718,-3.5756,-3.5765,-3.5747,-3.5805,-3.6085,-3.6124,-3.6716,-3.6899,-3.715,-3.7028,-3.7031,-3.7428,-3.8544,-3.9897,-4.0004,-3.9632,-3.9982,-4.0498,-4.0693,-4.0954,-4.0971,-4.0307,-4.0665,-4.0653,-4.0548,-4.054,-4.0793,-4.0988,-4.0988,-4.098,-4.0921,-4.0943,-4.0935,-4.0824,-4.0169,-4.0349,-4.0789,-2.9747,-3.0042,-3.0625,-3.0914,-3.0914,-3.0914,-3.0914,-3.0915,-3.0912,-3.0907,-3.0919,-3.0905,-3.0905,-3.0899,-3.086,-3.0819,-3.0821,-3.0821,-3.0801,-3.0801,-3.0799,-3.0819,-3.0821,-3.0841,-3.0821,-3.0841,-3.088,-3.0903,-3.0879,-3.0918,-3.0918,-3.0898,-3.0918,-3.0911,-3.0903,-3.086,-3.0841,-3.0819,-3.0796,-3.0794,-3.0788,-3.0801,-3.0794,-3.0786,-3.0793,-3.0823,-3.0891,-3.0862,-3.0851,-3.0864,-3.1364,-3.1448,-3.0728,-3.0851,-3.1696,-3.4561,-3.4669,-3.4495,-3.5174,-3.5339,-3.5446,-3.5631,-3.5135,-3.518,-3.5061,-3.4983,-3.5172,-3.5533,-3.5757,-3.5718,-3.5678,-3.5678,-3.5678,-3.5708,-3.5728,-3.5728,-3.5756,-3.6037,-3.6047,-3.6115,-3.6075,-3.6114,-3.6376,-3.7351,-3.7893,-3.7956,-3.7977,-3.7909,-3.7916,-3.8294,-3.8896,-4.0286,-4.0616,-4.0189,-4.0335,-4.0772,-4.0849,-4.0927,-4.0936,-4.0935,-4.0837,-4.0799,-4.0887,-4.0926,-4.0926,-4.0926,-4.0926,-4.0926,-4.0926,-4.0917,-4.0917,-4.0963,-4.098,-4.0963,-4.0943,-2.8781,-2.9194,-3.0017,-3.0569,-3.0836,-3.0849,-3.0875,-3.0864,-3.0888,-3.0884,-3.0855,-3.0855,-3.0872,-3.0849,-3.081,-3.0791,-3.0791,-3.0799,-3.0801,-3.0799,-3.0794,-3.0796,-3.0799,-3.0799,-3.0799,-3.0819,-3.0841,-3.086,-3.0905,-3.0918,-3.0918,-3.0918,-3.0916,-3.0911,-3.0903,-3.0841,-3.0799,-3.0796,-3.0794,-3.0791,-3.0798,-3.0786,-3.0798,-3.0823,-3.0828,-3.0953,-3.1259,-3.1228,-3.1333,-3.1599,-3.2338,-3.2279,-3.1994,-3.2388,-3.3056,-3.5427,-3.5263,-3.5146,-3.5485,-3.5591,-3.5639,-3.5667,-3.5648,-3.563,-3.5631,-3.5553,-3.5582,-3.5716,-3.5725,-3.5704,-3.5662,-3.5651,-3.5635,-3.5657,-3.5667,-3.5678,-3.6005,-3.6377,-3.6505,-3.6593,-3.6593,-3.6593,-3.7201,-3.8324,-3.902,-3.8934,-3.9124,-3.9409,-3.9217,-3.919,-3.9616,-4.0518,-4.0742,-4.0694,-4.0858,-4.0867,-4.0886,-4.0897,-4.0917,-4.0907,-4.0878,-4.0869,-4.0888,-4.0878,-4.0859,-4.0859,-4.0908,-4.0907,-4.0907,-4.0888,-4.0868,-4.0898,-4.0917,-4.0917,-4.0926,-2.748,-2.8281,-2.9215,-3.0042,-3.0632,-3.0755,-3.0794,-3.0798,-3.0852,-3.0855,-3.0807,-3.0788,-3.0824,-3.0801,-3.0798,-3.0798,-3.0785,-3.0794,-3.0796,-3.0799,-3.0801,-3.0801,-3.0788,-3.0794,-3.0796,-3.0799,-3.0801,-3.0841,-3.0905,-3.0918,-3.0918,-3.0918,-3.0916,-3.0911,-3.0901,-3.0841,-3.0796,-3.0791,-3.0788,-3.0801,-3.0782,-3.0789,-3.0833,-3.0939,-3.1045,-3.1203,-3.1864,-3.2221,-3.2434,-3.2924,-3.3293,-3.3274,-3.3891,-3.4449,-3.53,-3.5521,-3.5493,-3.5491,-3.5538,-3.5604,-3.562,-3.5628,-3.5623,-3.5639,-3.5676,-3.5718,-3.5716,-3.5651,-3.5635,-3.5623,-3.5611,-3.563,-3.5642,-3.5917,-3.6134,-3.6308,-3.6663,-3.7006,-3.723,-3.7397,-3.7694,-3.7674,-3.7701,-3.8774,-3.9687,-3.9721,-3.9857,-4.0326,-4.0312,-4.0037,-4.0231,-4.0688,-4.0768,-4.0826,-4.0834,-4.0843,-4.0812,-4.0834,-4.0877,-4.0878,-4.0839,-4.0858,-4.0867,-4.0848,-4.0818,-4.0856,-4.0867,-4.0868,-4.0868,-4.0837,-4.0834,-4.0831,-4.0846,-4.0868,-4.0898,-2.7121,-2.7451,-2.8962,-2.9692,-2.9904,-3.0524,-3.0798,-3.0798,-3.082,-3.082,-3.0801,-3.0794,-3.0794,-3.0794,-3.0786,-3.079,-3.0794,-3.0778,-3.0785,-3.0798,-3.0782,-3.0798,-3.0786,-3.0801,-3.0791,-3.0799,-3.0801,-3.0821,-3.0903,-3.0918,-3.0918,-3.0918,-3.0916,-3.0911,-3.0899,-3.0821,-3.0796,-3.0785,-3.0794,-3.0782,-3.0789,-3.0911,-3.0998,-3.1429,-3.1741,-3.211,-3.2647,-3.2955,-3.3009,-3.3244,-3.3904,-3.4447,-3.5117,-3.553,-3.567,-3.5693,-3.5631,-3.555,-3.5565,-3.563,-3.5714,-3.5707,-3.5688,-3.5642,-3.5639,-3.5684,-3.5673,-3.5591,-3.556,-3.5547,-3.5707,-3.5746,-3.5855,-3.6286,-3.6736,-3.7083,-3.7392,-3.7642,-3.7932,-3.8323,-3.8728,-3.8767,-3.8709,-3.9157,-4.0048,-4.0371,-4.0376,-4.0552,-4.0578,-4.043,-4.0372,-4.0694,-4.0761,-4.08,-4.0808,-4.0796,-4.0796,-4.0796,-4.0831,-4.0823,-4.0807,-4.0826,-4.0846,-4.0823,-4.0823,-4.0843,-4.0843,-4.0826,-4.0815,-4.08,-4.0808,-4.0827,-4.082,-4.0826,-4.0867,-2.6435,-2.6644,-2.8259,-2.9184,-2.9613,-3.0403,-3.075,-3.075,-3.075,-3.075,-3.0754,-3.0778,-3.0802,-3.0798,-3.0793,-3.0769,-3.0774,-3.0759,-3.0743,-3.0754,-3.0789,-3.0784,-3.0793,-3.0782,-3.0801,-3.0791,-3.0799,-3.0821,-3.0901,-3.0918,-3.0918,-3.0918,-3.0916,-3.0911,-3.0882,-3.0838,-3.0794,-3.0798,-3.0798,-3.0818,-3.0881,-3.1148,-3.1462,-3.1968,-3.2407,-3.2916,-3.3475,-3.3826,-3.4022,-3.4226,-3.4817,-3.5065,-3.5438,-3.556,-3.5586,-3.5579,-3.5528,-3.5464,-3.5605,-3.5823,-3.6034,-3.6092,-3.6502,-3.6738,-3.5566,-3.556,-3.5547,-3.5488,-3.5501,-3.552,-3.6599,-3.693,-3.6949,-3.7247,-3.7762,-3.82,-3.8277,-3.8368,-3.8849,-3.9392,-3.9677,-3.9745,-3.9706,-3.9745,-4.0462,-4.0462,-4.0564,-4.0574,-4.0654,-4.0687,-4.0673,-4.0687,-4.0726,-4.0752,-4.0759,-4.0759,-4.0803,-4.079,-4.079,-4.0784,-4.08,-4.0792,-4.0812,-4.0788,-4.0776,-4.0808,-4.082,-4.0792,-4.08,-4.0796,-4.0803,-4.0803,-4.0808,-4.0781,-4.0812,-2.5733,-2.5937,-2.7523,-2.8636,-2.9411,-3.0325,-3.0703,-3.0703,-3.0703,-3.0703,-3.0709,-3.076,-3.0779,-3.0789,-3.0784,-3.0753,-3.0734,-3.073,-3.0697,-3.0716,-3.0769,-3.0794,-3.0799,-3.0784,-3.0786,-3.0785,-3.0794,-3.0838,-3.0919,-3.0912,-3.0917,-3.0918,-3.0916,-3.0909,-3.0901,-3.0838,-3.0794,-3.0794,-3.0808,-3.087,-3.117,-3.1572,-3.1955,-3.2361,-3.2951,-3.3768,-3.4371,-3.4759,-3.5068,-3.5231,-3.5441,-3.5531,-3.556,-3.5566,-3.552,-3.554,-3.5955,-3.594,-3.6041,-3.6511,-3.6688,-3.6961,-3.7616,-3.7344,-3.6161,-3.5888,-3.5893,-3.6166,-3.62,-3.655,-3.7635,-3.8156,-3.8175,-3.8153,-3.8706,-3.9183,-3.9144,-3.9103,-3.964,-4.0255,-4.031,-4.0419,-4.045,-4.0489,-4.0492,-4.0508,-4.0539,-4.0569,-4.0598,-4.0598,-4.0598,-4.0598,-4.0612,-4.066,-4.0673,-4.07,-4.0746,-4.0733,-4.072,-4.0746,-4.0759,-4.0764,-4.0764,-4.0759,-4.0765,-4.0759,-4.079,-4.0784,-4.079,-4.079,-4.0726,-4.0726,-4.0726,-4.072,-4.0739,-2.5705,-2.5846,-2.7502,-2.8306,-2.8681,-3.0067,-3.0703,-3.0703,-3.0703,-3.0703,-3.0697,-3.0703,-3.0709,-3.0728,-3.0728,-3.0703,-3.0716,-3.0709,-3.0709,-3.0709,-3.0736,-3.0773,-3.0789,-3.0799,-3.0798,-3.0798,-3.081,-3.0855,-3.0899,-3.0911,-3.0916,-3.0918,-3.0916,-3.0911,-3.0882,-3.0858,-3.0852,-3.0907,-3.1028,-3.1125,-3.1702,-3.2098,-3.24,-3.299,-3.3798,-3.4633,-3.5233,-3.5407,-3.5491,-3.5554,-3.5608,-3.5611,-3.5573,-3.5526,-3.5479,-3.5777,-3.6189,-3.7028,-3.7299,-3.7433,-3.7608,-3.7625,-3.8123,-3.8276,-3.7581,-3.7559,-3.791,-3.8759,-3.8816,-3.8835,-3.9507,-3.9507,-3.9507,-3.9252,-3.9459,-3.9785,-3.9938,-3.9936,-4.0147,-4.0304,-4.0325,-4.0394,-4.0457,-4.046,-4.0413,-4.043,-4.0482,-4.0511,-4.0539,-4.0519,-4.0523,-4.0523,-4.0523,-4.0583,-4.0607,-4.0607,-4.0621,-4.064,-4.064,-4.0673,-4.07,-4.0707,-4.0694,-4.07,-4.0706,-4.0706,-4.072,-4.0746,-4.0733,-4.07,-4.0648,-4.0615,-4.0635,-4.0648,-4.0681]}]]